Cruise inventory

FS Meteor MT49

Cruise plan

Cruise Info. 
Ship name (ship code)FS Meteor (06MT)
Cruise identifierMT49
Cruise period1978-07-05 — 1978-09-11
StatusCompleted
ObjectivesJASIN
Chief scientistE Augstein (Max Planck Institute for Meteorology)
ProjectJASIN
Ocean/sea areas 
GeneralNorth East Atlantic Ocean (limit 40W)
Measurements 
Physical oceanography 
BathythermographQuantity: number of profiles = 65
CTD stationsQuantity: number of stations = 4785
Current metersQuantity: 62
Current profiler (eg ADCP)Quantity: 102
Description: radon profiles
Meteorology 
Upper air observationsQuantity: 395
Incident radiation
Routine standard measurements
Atmospheric chemistryDescription: air chemistry
Atmospheric chemistryQuantity: activity duration in hours = 251
Description: air sea interface studies
Other meteorological measurementsQuantity: number of observations = 6
Description: sea and swell
Data held at BODC 
Series/Profiles 
4556  CTD/STD cast
Vertical spatial coordinates
Salinity of the water column
Temperature of the water column
Vertical spatial coordinates
Salinity of the water column
Temperature of the water column

BODC idDate/TimeLocationDoc.
1239151978-08-06 10:14 58° 5' 39" N  12° 2' 17" W  View metadata report for BODC series reference number 123915
1239271978-08-06 10:19 58° 5' 39" N  12° 2' 17" W  View metadata report for BODC series reference number 123927
1239391978-08-06 10:24 58° 5' 39" N  12° 2' 17" W  View metadata report for BODC series reference number 123939
1239401978-08-06 10:29 58° 5' 39" N  12° 2' 17" W  View metadata report for BODC series reference number 123940
1239521978-08-06 10:34 58° 5' 39" N  12° 2' 17" W  View metadata report for BODC series reference number 123952
1239641978-08-06 10:39 58° 5' 39" N  12° 2' 17" W  View metadata report for BODC series reference number 123964
1239761978-08-06 10:44 58° 5' 39" N  12° 2' 17" W  View metadata report for BODC series reference number 123976
1239881978-08-06 10:49 58° 5' 39" N  12° 2' 17" W  View metadata report for BODC series reference number 123988
1240031978-08-06 10:54 58° 5' 39" N  12° 2' 17" W  View metadata report for BODC series reference number 124003
1240151978-08-06 10:59 58° 5' 34" N  12° 2' 30" W  View metadata report for BODC series reference number 124015
1240271978-08-06 11:04 58° 5' 34" N  12° 2' 30" W  View metadata report for BODC series reference number 124027
1240391978-08-06 11:09 58° 5' 34" N  12° 2' 30" W  View metadata report for BODC series reference number 124039
1240401978-08-06 11:14 58° 5' 34" N  12° 2' 30" W  View metadata report for BODC series reference number 124040
1240521978-08-06 11:19 58° 5' 34" N  12° 2' 30" W  View metadata report for BODC series reference number 124052
1240641978-08-06 11:24 58° 5' 34" N  12° 2' 30" W  View metadata report for BODC series reference number 124064
1240761978-08-06 11:24 58° 5' 34" N  12° 2' 30" W  View metadata report for BODC series reference number 124076
1240881978-08-06 11:29 58° 5' 34" N  12° 2' 30" W  View metadata report for BODC series reference number 124088
1241071978-08-06 11:34 58° 5' 34" N  12° 2' 30" W  View metadata report for BODC series reference number 124107
1241191978-08-06 11:39 58° 5' 34" N  12° 2' 30" W  View metadata report for BODC series reference number 124119
1241201978-08-06 11:44 58° 5' 34" N  12° 2' 30" W  View metadata report for BODC series reference number 124120
1241321978-08-06 11:49 58° 5' 34" N  12° 2' 30" W  View metadata report for BODC series reference number 124132
1241441978-08-06 11:54 58° 5' 32" N  12° 2' 40" W  View metadata report for BODC series reference number 124144
1241561978-08-06 11:59 58° 5' 32" N  12° 2' 40" W  View metadata report for BODC series reference number 124156
1241681978-08-06 12:04 58° 5' 32" N  12° 2' 40" W  View metadata report for BODC series reference number 124168
1241811978-08-06 12:09 58° 5' 32" N  12° 2' 40" W  View metadata report for BODC series reference number 124181
1241931978-08-06 12:14 58° 5' 32" N  12° 2' 40" W  View metadata report for BODC series reference number 124193
1242001978-08-06 12:19 58° 5' 32" N  12° 2' 40" W  View metadata report for BODC series reference number 124200
1242121978-08-06 12:24 58° 5' 32" N  12° 2' 40" W  View metadata report for BODC series reference number 124212
1242241978-08-06 12:29 58° 5' 32" N  12° 2' 40" W  View metadata report for BODC series reference number 124224
1242361978-08-06 12:34 58° 5' 32" N  12° 2' 40" W  View metadata report for BODC series reference number 124236
1242481978-08-06 12:39 58° 5' 32" N  12° 2' 40" W  View metadata report for BODC series reference number 124248
1242611978-08-06 12:44 58° 5' 32" N  12° 2' 40" W  View metadata report for BODC series reference number 124261
1242731978-08-06 12:49 58° 5' 32" N  12° 2' 40" W  View metadata report for BODC series reference number 124273
1242851978-08-06 12:54 58° 5' 32" N  12° 2' 40" W  View metadata report for BODC series reference number 124285
1242971978-08-06 12:59 58° 5' 30" N  12° 2' 52" W  View metadata report for BODC series reference number 124297
1243041978-08-06 13:04 58° 5' 30" N  12° 2' 52" W  View metadata report for BODC series reference number 124304
1243161978-08-06 13:09 58° 5' 30" N  12° 2' 52" W  View metadata report for BODC series reference number 124316
1243281978-08-06 13:14 58° 5' 30" N  12° 2' 52" W  View metadata report for BODC series reference number 124328
1243411978-08-06 13:19 58° 5' 30" N  12° 2' 52" W  View metadata report for BODC series reference number 124341
1243531978-08-06 13:24 58° 5' 30" N  12° 2' 52" W  View metadata report for BODC series reference number 124353
1243651978-08-06 13:29 58° 5' 30" N  12° 2' 52" W  View metadata report for BODC series reference number 124365
1243771978-08-06 13:34 58° 5' 30" N  12° 2' 52" W  View metadata report for BODC series reference number 124377
1243891978-08-06 13:39 58° 5' 30" N  12° 2' 52" W  View metadata report for BODC series reference number 124389
1243901978-08-06 13:44 58° 5' 30" N  12° 2' 52" W  View metadata report for BODC series reference number 124390
1244081978-08-06 13:49 58° 5' 30" N  12° 2' 52" W  View metadata report for BODC series reference number 124408
1244211978-08-06 13:54 58° 5' 30" N  12° 2' 52" W  View metadata report for BODC series reference number 124421
1244331978-08-06 13:59 58° 5' 28" N  12° 3' 4" W  View metadata report for BODC series reference number 124433
1244451978-08-06 14:04 58° 5' 28" N  12° 3' 4" W  View metadata report for BODC series reference number 124445
1244571978-08-06 14:09 58° 5' 28" N  12° 3' 4" W  View metadata report for BODC series reference number 124457
1244691978-08-06 14:14 58° 5' 28" N  12° 3' 4" W  View metadata report for BODC series reference number 124469
1244701978-08-06 14:19 58° 5' 28" N  12° 3' 4" W  View metadata report for BODC series reference number 124470
1244821978-08-06 14:24 58° 5' 28" N  12° 3' 4" W  View metadata report for BODC series reference number 124482
1244941978-08-06 14:29 58° 5' 28" N  12° 3' 4" W  View metadata report for BODC series reference number 124494
1245011978-08-06 14:34 58° 5' 28" N  12° 3' 4" W  View metadata report for BODC series reference number 124501
1245131978-08-06 14:39 58° 5' 28" N  12° 3' 4" W  View metadata report for BODC series reference number 124513
1245251978-08-06 14:44 58° 5' 28" N  12° 3' 4" W  View metadata report for BODC series reference number 124525
1245371978-08-06 14:49 58° 5' 28" N  12° 3' 4" W  View metadata report for BODC series reference number 124537
1498441978-08-26 15:46 58° 5' 52" N  12° 2' 50" W  View metadata report for BODC series reference number 149844
1498561978-08-26 15:48 58° 5' 52" N  12° 2' 50" W  View metadata report for BODC series reference number 149856
1498681978-08-26 15:50 58° 5' 52" N  12° 2' 50" W  View metadata report for BODC series reference number 149868
1498811978-08-26 15:52 58° 5' 52" N  12° 2' 50" W  View metadata report for BODC series reference number 149881
1498931978-08-26 15:54 58° 5' 52" N  12° 2' 50" W  View metadata report for BODC series reference number 149893
1499001978-08-26 15:56 58° 5' 52" N  12° 2' 50" W  View metadata report for BODC series reference number 149900
1499121978-08-26 15:58 58° 5' 52" N  12° 2' 50" W  View metadata report for BODC series reference number 149912
1499241978-08-26 16:00 58° 5' 52" N  12° 2' 50" W  View metadata report for BODC series reference number 149924
1499361978-08-26 16:32 58° 5' 46" N  12° 2' 46" W  View metadata report for BODC series reference number 149936
1499481978-08-26 16:34 58° 5' 46" N  12° 2' 46" W  View metadata report for BODC series reference number 149948
1499611978-08-26 16:36 58° 5' 46" N  12° 2' 46" W  View metadata report for BODC series reference number 149961
1499731978-08-26 16:38 58° 5' 46" N  12° 2' 46" W  View metadata report for BODC series reference number 149973
1499851978-08-26 16:40 58° 5' 46" N  12° 2' 46" W  View metadata report for BODC series reference number 149985
1499971978-08-26 16:42 58° 5' 46" N  12° 2' 46" W  View metadata report for BODC series reference number 149997
1500091978-08-26 16:44 58° 5' 46" N  12° 2' 46" W  View metadata report for BODC series reference number 150009
1500101978-08-26 16:46 58° 5' 46" N  12° 2' 46" W  View metadata report for BODC series reference number 150010
1500221978-08-26 16:48 58° 5' 46" N  12° 2' 46" W  View metadata report for BODC series reference number 150022
1500341978-08-26 16:50 58° 5' 46" N  12° 2' 46" W  View metadata report for BODC series reference number 150034
1500461978-08-26 16:52 58° 5' 46" N  12° 2' 46" W  View metadata report for BODC series reference number 150046
1500581978-08-26 16:54 58° 5' 46" N  12° 2' 46" W  View metadata report for BODC series reference number 150058
1500711978-08-26 16:56 58° 5' 46" N  12° 2' 46" W  View metadata report for BODC series reference number 150071
1493221978-08-26 12:40 58° 5' 47" N  12° 2' 41" W  View metadata report for BODC series reference number 149322
1493341978-08-26 12:42 58° 5' 47" N  12° 2' 41" W  View metadata report for BODC series reference number 149334
1493461978-08-26 12:44 58° 5' 47" N  12° 2' 41" W  View metadata report for BODC series reference number 149346
1493581978-08-26 12:46 58° 5' 47" N  12° 2' 41" W  View metadata report for BODC series reference number 149358
1493711978-08-26 12:48 58° 5' 47" N  12° 2' 41" W  View metadata report for BODC series reference number 149371
1493831978-08-26 12:50 58° 5' 47" N  12° 2' 41" W  View metadata report for BODC series reference number 149383
1493951978-08-26 12:52 58° 5' 47" N  12° 2' 41" W  View metadata report for BODC series reference number 149395
1494021978-08-26 12:54 58° 5' 47" N  12° 2' 41" W  View metadata report for BODC series reference number 149402
1494141978-08-26 12:56 58° 5' 47" N  12° 2' 41" W  View metadata report for BODC series reference number 149414
1494261978-08-26 12:58 58° 5' 47" N  12° 2' 41" W  View metadata report for BODC series reference number 149426
1494381978-08-26 13:00 58° 5' 47" N  12° 2' 41" W  View metadata report for BODC series reference number 149438
1494511978-08-26 13:34 58° 5' 57" N  12° 2' 48" W  View metadata report for BODC series reference number 149451
1494631978-08-26 13:36 58° 5' 57" N  12° 2' 48" W  View metadata report for BODC series reference number 149463
1494751978-08-26 13:38 58° 5' 57" N  12° 2' 48" W  View metadata report for BODC series reference number 149475
1494871978-08-26 13:40 58° 5' 57" N  12° 2' 48" W  View metadata report for BODC series reference number 149487
1494991978-08-26 13:42 58° 5' 57" N  12° 2' 48" W  View metadata report for BODC series reference number 149499
1495061978-08-26 13:44 58° 5' 57" N  12° 2' 48" W  View metadata report for BODC series reference number 149506
1495181978-08-26 13:46 58° 5' 57" N  12° 2' 48" W  View metadata report for BODC series reference number 149518
1495311978-08-26 13:48 58° 5' 57" N  12° 2' 48" W  View metadata report for BODC series reference number 149531
1495431978-08-26 13:50 58° 5' 57" N  12° 2' 48" W  View metadata report for BODC series reference number 149543
1495551978-08-26 13:52 58° 5' 57" N  12° 2' 48" W  View metadata report for BODC series reference number 149555
1495671978-08-26 13:54 58° 5' 57" N  12° 2' 48" W  View metadata report for BODC series reference number 149567
1495791978-08-26 13:56 58° 5' 57" N  12° 2' 48" W  View metadata report for BODC series reference number 149579
1495801978-08-26 13:58 58° 5' 57" N  12° 2' 48" W  View metadata report for BODC series reference number 149580
1495921978-08-26 14:00 58° 5' 57" N  12° 2' 48" W  View metadata report for BODC series reference number 149592
1496111978-08-26 14:30 58° 5' 57" N  12° 2' 55" W  View metadata report for BODC series reference number 149611
1496231978-08-26 14:32 58° 5' 57" N  12° 2' 55" W  View metadata report for BODC series reference number 149623
1496351978-08-26 14:34 58° 5' 57" N  12° 2' 55" W  View metadata report for BODC series reference number 149635
1496471978-08-26 14:36 58° 5' 57" N  12° 2' 55" W  View metadata report for BODC series reference number 149647
1496591978-08-26 14:38 58° 5' 57" N  12° 2' 55" W  View metadata report for BODC series reference number 149659
1496601978-08-26 14:40 58° 5' 57" N  12° 2' 55" W  View metadata report for BODC series reference number 149660
1496721978-08-26 14:42 58° 5' 57" N  12° 2' 55" W  View metadata report for BODC series reference number 149672
1496841978-08-26 14:44 58° 5' 57" N  12° 2' 55" W  View metadata report for BODC series reference number 149684
1496961978-08-26 14:46 58° 5' 57" N  12° 2' 55" W  View metadata report for BODC series reference number 149696
1489691978-08-26 09:44 58° 5' 47" N  12° 2' 44" W  View metadata report for BODC series reference number 148969
1489701978-08-26 09:46 58° 5' 47" N  12° 2' 44" W  View metadata report for BODC series reference number 148970
1627911978-09-02 22:54 59° 2' 37" N  12° 2' 41" W  View metadata report for BODC series reference number 162791
1628091978-09-02 22:59 59° 2' 37" N  12° 2' 41" W  View metadata report for BODC series reference number 162809
1628101978-09-02 23:04 59° 2' 37" N  12° 2' 41" W  View metadata report for BODC series reference number 162810
1628221978-09-02 23:09 59° 2' 37" N  12° 2' 41" W  View metadata report for BODC series reference number 162822
1628341978-09-02 23:14 59° 2' 37" N  12° 2' 41" W  View metadata report for BODC series reference number 162834
1628461978-09-02 23:19 59° 2' 37" N  12° 2' 41" W  View metadata report for BODC series reference number 162846
1628581978-09-02 23:24 59° 2' 37" N  12° 2' 41" W  View metadata report for BODC series reference number 162858
1628711978-09-02 23:29 59° 2' 37" N  12° 2' 41" W  View metadata report for BODC series reference number 162871
1628831978-09-02 23:34 59° 2' 37" N  12° 2' 41" W  View metadata report for BODC series reference number 162883
1628951978-09-02 23:39 59° 2' 37" N  12° 2' 41" W  View metadata report for BODC series reference number 162895
1629021978-09-02 23:44 59° 2' 37" N  12° 2' 41" W  View metadata report for BODC series reference number 162902
1629141978-09-02 23:49 59° 2' 37" N  12° 2' 41" W  View metadata report for BODC series reference number 162914
1629261978-09-02 23:54 59° 2' 37" N  12° 2' 41" W  View metadata report for BODC series reference number 162926
1418421978-08-24 07:58 58° 5' 49" N  12° 2' 48" W  View metadata report for BODC series reference number 141842
1418541978-08-24 08:00 58° 5' 49" N  12° 2' 48" W  View metadata report for BODC series reference number 141854
1418661978-08-24 08:02 58° 5' 49" N  12° 2' 48" W  View metadata report for BODC series reference number 141866
1418781978-08-24 08:04 58° 5' 49" N  12° 2' 48" W  View metadata report for BODC series reference number 141878
1418911978-08-24 08:06 58° 5' 49" N  12° 2' 48" W  View metadata report for BODC series reference number 141891
1419091978-08-24 08:08 58° 5' 49" N  12° 2' 48" W  View metadata report for BODC series reference number 141909
1419101978-08-24 08:10 58° 5' 49" N  12° 2' 48" W  View metadata report for BODC series reference number 141910
1419221978-08-24 08:12 58° 5' 49" N  12° 2' 48" W  View metadata report for BODC series reference number 141922
1419341978-08-24 08:14 58° 5' 49" N  12° 2' 48" W  View metadata report for BODC series reference number 141934
1419461978-08-24 08:16 58° 5' 49" N  12° 2' 48" W  View metadata report for BODC series reference number 141946
1419581978-08-24 08:18 58° 5' 49" N  12° 2' 48" W  View metadata report for BODC series reference number 141958
1419711978-08-24 08:20 58° 5' 49" N  12° 2' 48" W  View metadata report for BODC series reference number 141971
1419831978-08-24 08:22 58° 5' 49" N  12° 2' 48" W  View metadata report for BODC series reference number 141983
1419951978-08-24 08:44 58° 5' 49" N  12° 2' 48" W  View metadata report for BODC series reference number 141995
1420091978-08-24 08:46 58° 5' 49" N  12° 2' 48" W  View metadata report for BODC series reference number 142009
1420101978-08-24 08:48 58° 5' 49" N  12° 2' 48" W  View metadata report for BODC series reference number 142010
1420221978-08-24 08:50 58° 5' 49" N  12° 2' 48" W  View metadata report for BODC series reference number 142022
1420341978-08-24 08:52 58° 5' 49" N  12° 2' 48" W  View metadata report for BODC series reference number 142034
1420461978-08-24 08:54 58° 5' 49" N  12° 2' 48" W  View metadata report for BODC series reference number 142046
1420581978-08-24 08:56 58° 5' 49" N  12° 2' 48" W  View metadata report for BODC series reference number 142058
1420711978-08-24 08:58 58° 5' 49" N  12° 2' 48" W  View metadata report for BODC series reference number 142071
1420831978-08-24 09:00 58° 5' 49" N  12° 2' 48" W  View metadata report for BODC series reference number 142083
1420951978-08-24 09:02 58° 5' 49" N  12° 2' 48" W  View metadata report for BODC series reference number 142095
1421021978-08-24 09:04 58° 5' 49" N  12° 2' 48" W  View metadata report for BODC series reference number 142102
1414851978-08-24 05:50 58° 5' 44" N  12° 2' 44" W  View metadata report for BODC series reference number 141485
1414971978-08-24 05:52 58° 5' 44" N  12° 2' 44" W  View metadata report for BODC series reference number 141497
1415041978-08-24 05:54 58° 5' 44" N  12° 2' 44" W  View metadata report for BODC series reference number 141504
1415161978-08-24 05:56 58° 5' 44" N  12° 2' 44" W  View metadata report for BODC series reference number 141516
1415281978-08-24 05:58 58° 5' 44" N  12° 2' 44" W  View metadata report for BODC series reference number 141528
1415411978-08-24 06:00 58° 5' 44" N  12° 2' 44" W  View metadata report for BODC series reference number 141541
1415531978-08-24 06:02 58° 5' 44" N  12° 2' 44" W  View metadata report for BODC series reference number 141553
1415651978-08-24 06:04 58° 5' 44" N  12° 2' 44" W  View metadata report for BODC series reference number 141565
1415771978-08-24 06:06 58° 5' 44" N  12° 2' 44" W  View metadata report for BODC series reference number 141577
1415891978-08-24 06:08 58° 5' 44" N  12° 2' 44" W  View metadata report for BODC series reference number 141589
1415901978-08-24 06:10 58° 5' 44" N  12° 2' 44" W  View metadata report for BODC series reference number 141590
1416081978-08-24 06:12 58° 5' 44" N  12° 2' 44" W  View metadata report for BODC series reference number 141608
1416211978-08-24 06:14 58° 5' 44" N  12° 2' 44" W  View metadata report for BODC series reference number 141621
1416331978-08-24 06:16 58° 5' 44" N  12° 2' 44" W  View metadata report for BODC series reference number 141633
1416451978-08-24 06:58 58° 5' 49" N  12° 2' 48" W  View metadata report for BODC series reference number 141645
1416571978-08-24 07:02 58° 5' 49" N  12° 2' 48" W  View metadata report for BODC series reference number 141657
1416691978-08-24 07:04 58° 5' 49" N  12° 2' 48" W  View metadata report for BODC series reference number 141669
1416701978-08-24 07:06 58° 5' 49" N  12° 2' 48" W  View metadata report for BODC series reference number 141670
1416821978-08-24 07:08 58° 5' 49" N  12° 2' 48" W  View metadata report for BODC series reference number 141682
1416941978-08-24 07:10 58° 5' 49" N  12° 2' 48" W  View metadata report for BODC series reference number 141694
1245491978-08-06 14:54 58° 5' 28" N  12° 3' 4" W  View metadata report for BODC series reference number 124549
1245501978-08-06 14:59 58° 5' 27" N  12° 3' 13" W  View metadata report for BODC series reference number 124550
1245621978-08-06 15:04 58° 5' 27" N  12° 3' 13" W  View metadata report for BODC series reference number 124562
1245741978-08-06 15:09 58° 5' 27" N  12° 3' 13" W  View metadata report for BODC series reference number 124574
1245861978-08-06 15:14 58° 5' 27" N  12° 3' 13" W  View metadata report for BODC series reference number 124586
1245981978-08-06 15:19 58° 5' 27" N  12° 3' 13" W  View metadata report for BODC series reference number 124598
1246051978-08-06 15:24 58° 5' 27" N  12° 3' 13" W  View metadata report for BODC series reference number 124605
1246171978-08-06 15:29 58° 5' 27" N  12° 3' 13" W  View metadata report for BODC series reference number 124617
1246291978-08-06 15:34 58° 5' 27" N  12° 3' 13" W  View metadata report for BODC series reference number 124629
1246301978-08-06 15:39 58° 5' 27" N  12° 3' 13" W  View metadata report for BODC series reference number 124630
1246421978-08-06 15:44 58° 5' 27" N  12° 3' 13" W  View metadata report for BODC series reference number 124642
1246541978-08-06 15:49 58° 5' 27" N  12° 3' 13" W  View metadata report for BODC series reference number 124654
1246661978-08-06 15:54 58° 5' 27" N  12° 3' 13" W  View metadata report for BODC series reference number 124666
1246781978-08-06 15:59 58° 5' 25" N  12° 3' 25" W  View metadata report for BODC series reference number 124678
1246911978-08-06 16:04 58° 5' 25" N  12° 3' 25" W  View metadata report for BODC series reference number 124691
1247091978-08-06 16:09 58° 5' 25" N  12° 3' 25" W  View metadata report for BODC series reference number 124709
1247101978-08-06 16:14 58° 5' 25" N  12° 3' 25" W  View metadata report for BODC series reference number 124710
1247221978-08-06 16:19 58° 5' 25" N  12° 3' 25" W  View metadata report for BODC series reference number 124722
1247341978-08-06 16:24 58° 5' 25" N  12° 3' 25" W  View metadata report for BODC series reference number 124734
1247461978-08-06 16:29 58° 5' 25" N  12° 3' 25" W  View metadata report for BODC series reference number 124746
1247581978-08-06 16:34 58° 5' 25" N  12° 3' 25" W  View metadata report for BODC series reference number 124758
1247711978-08-06 16:39 58° 5' 25" N  12° 3' 25" W  View metadata report for BODC series reference number 124771
1247831978-08-06 16:44 58° 5' 25" N  12° 3' 25" W  View metadata report for BODC series reference number 124783
1247951978-08-06 16:49 58° 5' 25" N  12° 3' 25" W  View metadata report for BODC series reference number 124795
1248021978-08-06 16:54 58° 5' 25" N  12° 3' 25" W  View metadata report for BODC series reference number 124802
1248141978-08-06 16:59 58° 5' 25" N  12° 3' 25" W  View metadata report for BODC series reference number 124814
1248261978-08-06 17:04 58° 5' 25" N  12° 3' 25" W  View metadata report for BODC series reference number 124826
1248381978-08-06 17:09 58° 5' 25" N  12° 3' 25" W  View metadata report for BODC series reference number 124838
1248511978-08-06 17:14 58° 5' 25" N  12° 3' 25" W  View metadata report for BODC series reference number 124851
1248631978-08-06 17:19 58° 5' 25" N  12° 3' 25" W  View metadata report for BODC series reference number 124863
1248751978-08-06 17:24 58° 5' 25" N  12° 3' 25" W  View metadata report for BODC series reference number 124875
1248871978-08-06 17:29 58° 5' 25" N  12° 3' 25" W  View metadata report for BODC series reference number 124887
1248991978-08-06 17:34 58° 5' 25" N  12° 3' 25" W  View metadata report for BODC series reference number 124899
1249061978-08-06 17:39 58° 5' 25" N  12° 3' 25" W  View metadata report for BODC series reference number 124906
1249181978-08-06 17:44 58° 5' 25" N  12° 3' 25" W  View metadata report for BODC series reference number 124918
1249311978-08-06 17:49 58° 5' 25" N  12° 3' 25" W  View metadata report for BODC series reference number 124931
1249431978-08-06 17:54 58° 5' 25" N  12° 3' 30" W  View metadata report for BODC series reference number 124943
1249551978-08-06 17:59 58° 5' 23" N  12° 3' 38" W  View metadata report for BODC series reference number 124955
1249671978-08-06 18:04 58° 5' 23" N  12° 3' 38" W  View metadata report for BODC series reference number 124967
1249791978-08-06 18:09 58° 5' 23" N  12° 3' 38" W  View metadata report for BODC series reference number 124979
1249801978-08-06 18:14 58° 5' 23" N  12° 3' 38" W  View metadata report for BODC series reference number 124980
1249921978-08-06 18:19 58° 5' 23" N  12° 3' 38" W  View metadata report for BODC series reference number 124992
1250061978-08-06 18:24 58° 5' 23" N  12° 3' 38" W  View metadata report for BODC series reference number 125006
1250181978-08-06 18:29 58° 5' 23" N  12° 3' 38" W  View metadata report for BODC series reference number 125018
1250311978-08-06 18:34 58° 5' 23" N  12° 3' 38" W  View metadata report for BODC series reference number 125031
1250431978-08-06 18:39 58° 5' 23" N  12° 3' 38" W  View metadata report for BODC series reference number 125043
1250551978-08-06 18:44 58° 5' 23" N  12° 3' 38" W  View metadata report for BODC series reference number 125055
1250671978-08-06 18:49 58° 5' 23" N  12° 3' 38" W  View metadata report for BODC series reference number 125067
1250791978-08-06 18:54 58° 5' 23" N  12° 3' 38" W  View metadata report for BODC series reference number 125079
1250801978-08-06 18:59 58° 5' 23" N  12° 3' 38" W  View metadata report for BODC series reference number 125080
1250921978-08-06 19:04 58° 5' 23" N  12° 3' 38" W  View metadata report for BODC series reference number 125092
1251111978-08-06 19:09 58° 5' 23" N  12° 3' 38" W  View metadata report for BODC series reference number 125111
1251231978-08-06 19:14 58° 5' 23" N  12° 3' 38" W  View metadata report for BODC series reference number 125123
1251351978-08-07 06:29 58° 5' 50" N  12° 2' 47" W  View metadata report for BODC series reference number 125135
1251471978-08-07 08:49 58° 5' 45" N  12° 2' 22" W  View metadata report for BODC series reference number 125147
1251591978-08-07 09:19 58° 5' 45" N  12° 2' 22" W  View metadata report for BODC series reference number 125159
1251601978-08-07 09:21 58° 5' 45" N  12° 2' 22" W  View metadata report for BODC series reference number 125160
1417011978-08-24 07:12 58° 5' 49" N  12° 2' 48" W  View metadata report for BODC series reference number 141701
1417131978-08-24 07:14 58° 5' 49" N  12° 2' 48" W  View metadata report for BODC series reference number 141713
1417251978-08-24 07:16 58° 5' 49" N  12° 2' 48" W  View metadata report for BODC series reference number 141725
1417371978-08-24 07:18 58° 5' 49" N  12° 2' 48" W  View metadata report for BODC series reference number 141737
1417491978-08-24 07:20 58° 5' 49" N  12° 2' 48" W  View metadata report for BODC series reference number 141749
1417501978-08-24 07:22 58° 5' 49" N  12° 2' 48" W  View metadata report for BODC series reference number 141750
1417621978-08-24 07:24 58° 5' 49" N  12° 2' 48" W  View metadata report for BODC series reference number 141762
1417741978-08-24 07:26 58° 5' 49" N  12° 2' 48" W  View metadata report for BODC series reference number 141774
1417861978-08-24 07:28 58° 5' 49" N  12° 2' 48" W  View metadata report for BODC series reference number 141786
1536341978-08-28 00:55 58° 5' 56" N  12° 2' 54" W  View metadata report for BODC series reference number 153634
1536461978-08-28 01:00 58° 5' 56" N  12° 2' 54" W  View metadata report for BODC series reference number 153646
1536581978-08-28 01:05 58° 5' 56" N  12° 2' 54" W  View metadata report for BODC series reference number 153658
1536711978-08-28 01:10 58° 5' 56" N  12° 2' 54" W  View metadata report for BODC series reference number 153671
1536831978-08-28 01:15 58° 5' 56" N  12° 2' 54" W  View metadata report for BODC series reference number 153683
1536951978-08-28 01:20 58° 5' 56" N  12° 2' 54" W  View metadata report for BODC series reference number 153695
1537021978-08-28 01:25 58° 5' 56" N  12° 2' 54" W  View metadata report for BODC series reference number 153702
1537141978-08-28 01:30 58° 5' 56" N  12° 2' 54" W  View metadata report for BODC series reference number 153714
1537261978-08-28 01:35 58° 5' 56" N  12° 2' 54" W  View metadata report for BODC series reference number 153726
1537381978-08-28 01:40 58° 5' 56" N  12° 2' 54" W  View metadata report for BODC series reference number 153738
1537511978-08-28 01:45 58° 5' 56" N  12° 2' 54" W  View metadata report for BODC series reference number 153751
1537631978-08-28 01:50 58° 5' 56" N  12° 2' 54" W  View metadata report for BODC series reference number 153763
1537751978-08-28 01:55 58° 5' 56" N  12° 2' 54" W  View metadata report for BODC series reference number 153775
1537871978-08-28 02:00 58° 5' 52" N  12° 2' 44" W  View metadata report for BODC series reference number 153787
1537991978-08-28 02:05 58° 5' 52" N  12° 2' 44" W  View metadata report for BODC series reference number 153799
1538061978-08-28 02:10 58° 5' 52" N  12° 2' 44" W  View metadata report for BODC series reference number 153806
1530681978-08-27 14:50 58° 5' 56" N  12° 2' 48" W  View metadata report for BODC series reference number 153068
1530811978-08-27 14:55 58° 5' 50" N  12° 2' 49" W  View metadata report for BODC series reference number 153081
1530931978-08-27 15:36 58° 5' 50" N  12° 2' 49" W  View metadata report for BODC series reference number 153093
1531001978-08-27 15:42 58° 5' 50" N  12° 2' 49" W  View metadata report for BODC series reference number 153100
1531121978-08-27 15:47 58° 5' 50" N  12° 2' 49" W  View metadata report for BODC series reference number 153112
1531241978-08-27 15:52 58° 5' 50" N  12° 2' 49" W  View metadata report for BODC series reference number 153124
1531361978-08-27 15:56 58° 5' 50" N  12° 2' 49" W  View metadata report for BODC series reference number 153136
1531481978-08-27 16:48 58° 5' 50" N  12° 2' 49" W  View metadata report for BODC series reference number 153148
1531611978-08-27 21:30 58° 5' 52" N  12° 2' 47" W  View metadata report for BODC series reference number 153161
1531731978-08-27 21:32 58° 5' 52" N  12° 2' 47" W  View metadata report for BODC series reference number 153173
1531851978-08-27 21:34 58° 5' 52" N  12° 2' 47" W  View metadata report for BODC series reference number 153185
1531971978-08-27 21:36 58° 5' 52" N  12° 2' 47" W  View metadata report for BODC series reference number 153197
1532041978-08-27 21:38 58° 5' 52" N  12° 2' 47" W  View metadata report for BODC series reference number 153204
1532161978-08-27 21:40 58° 5' 52" N  12° 2' 47" W  View metadata report for BODC series reference number 153216
1532281978-08-27 21:42 58° 5' 52" N  12° 2' 47" W  View metadata report for BODC series reference number 153228
1532411978-08-27 21:44 58° 5' 52" N  12° 2' 47" W  View metadata report for BODC series reference number 153241
1532531978-08-27 21:46 58° 5' 52" N  12° 2' 47" W  View metadata report for BODC series reference number 153253
1532651978-08-27 21:48 58° 5' 52" N  12° 2' 47" W  View metadata report for BODC series reference number 153265
1532771978-08-27 21:50 58° 5' 52" N  12° 2' 47" W  View metadata report for BODC series reference number 153277
1532891978-08-27 21:52 58° 5' 52" N  12° 2' 47" W  View metadata report for BODC series reference number 153289
1532901978-08-27 21:54 58° 5' 52" N  12° 2' 47" W  View metadata report for BODC series reference number 153290
1533081978-08-27 21:56 58° 5' 52" N  12° 2' 47" W  View metadata report for BODC series reference number 153308
1533211978-08-27 21:58 58° 5' 52" N  12° 2' 47" W  View metadata report for BODC series reference number 153321
1533331978-08-27 22:00 58° 5' 52" N  12° 2' 47" W  View metadata report for BODC series reference number 153333
1533451978-08-27 22:02 58° 5' 52" N  12° 2' 47" W  View metadata report for BODC series reference number 153345
1533571978-08-27 22:04 58° 5' 52" N  12° 2' 47" W  View metadata report for BODC series reference number 153357
1533691978-08-27 22:06 58° 5' 52" N  12° 2' 47" W  View metadata report for BODC series reference number 153369
1533701978-08-27 22:08 58° 5' 52" N  12° 2' 47" W  View metadata report for BODC series reference number 153370
1533821978-08-27 22:10 58° 5' 52" N  12° 2' 47" W  View metadata report for BODC series reference number 153382
1533941978-08-27 22:12 58° 5' 52" N  12° 2' 47" W  View metadata report for BODC series reference number 153394
1534011978-08-27 22:14 58° 5' 52" N  12° 2' 47" W  View metadata report for BODC series reference number 153401
1534131978-08-27 22:16 58° 5' 52" N  12° 2' 47" W  View metadata report for BODC series reference number 153413
1251721978-08-07 09:23 58° 5' 45" N  12° 2' 22" W  View metadata report for BODC series reference number 125172
1251841978-08-07 09:25 58° 5' 45" N  12° 2' 22" W  View metadata report for BODC series reference number 125184
1251961978-08-07 09:27 58° 5' 45" N  12° 2' 22" W  View metadata report for BODC series reference number 125196
1252031978-08-07 09:29 58° 5' 45" N  12° 2' 22" W  View metadata report for BODC series reference number 125203
1252151978-08-07 09:31 58° 5' 45" N  12° 2' 22" W  View metadata report for BODC series reference number 125215
1252271978-08-07 09:33 58° 5' 45" N  12° 2' 22" W  View metadata report for BODC series reference number 125227
1252391978-08-07 09:35 58° 5' 45" N  12° 2' 22" W  View metadata report for BODC series reference number 125239
1252401978-08-07 09:37 58° 5' 45" N  12° 2' 22" W  View metadata report for BODC series reference number 125240
1252521978-08-07 09:39 58° 5' 45" N  12° 2' 22" W  View metadata report for BODC series reference number 125252
1252641978-08-07 09:41 58° 5' 45" N  12° 2' 22" W  View metadata report for BODC series reference number 125264
1252761978-08-07 09:43 58° 5' 45" N  12° 2' 22" W  View metadata report for BODC series reference number 125276
1252881978-08-07 09:45 58° 5' 45" N  12° 2' 22" W  View metadata report for BODC series reference number 125288
1253071978-08-07 09:47 58° 5' 45" N  12° 2' 22" W  View metadata report for BODC series reference number 125307
1253191978-08-07 09:49 58° 5' 45" N  12° 2' 22" W  View metadata report for BODC series reference number 125319
1253201978-08-07 09:51 58° 5' 45" N  12° 2' 22" W  View metadata report for BODC series reference number 125320
1253321978-08-07 09:53 58° 5' 45" N  12° 2' 22" W  View metadata report for BODC series reference number 125332
1253441978-08-07 09:55 58° 5' 45" N  12° 2' 22" W  View metadata report for BODC series reference number 125344
1253561978-08-07 09:57 58° 5' 45" N  12° 2' 22" W  View metadata report for BODC series reference number 125356
1253681978-08-07 09:59 58° 5' 45" N  12° 2' 22" W  View metadata report for BODC series reference number 125368
1253811978-08-07 10:01 58° 5' 45" N  12° 2' 22" W  View metadata report for BODC series reference number 125381
1253931978-08-07 10:03 58° 5' 45" N  12° 2' 22" W  View metadata report for BODC series reference number 125393
1254001978-08-07 10:06 58° 5' 45" N  12° 2' 22" W  View metadata report for BODC series reference number 125400
1254121978-08-07 10:08 58° 5' 45" N  12° 2' 22" W  View metadata report for BODC series reference number 125412
1254241978-08-07 10:10 58° 5' 45" N  12° 2' 22" W  View metadata report for BODC series reference number 125424
1254361978-08-07 10:12 58° 5' 45" N  12° 2' 22" W  View metadata report for BODC series reference number 125436
1254481978-08-07 10:14 58° 5' 45" N  12° 2' 22" W  View metadata report for BODC series reference number 125448
1254611978-08-07 10:16 58° 5' 45" N  12° 2' 22" W  View metadata report for BODC series reference number 125461
1254731978-08-07 10:18 58° 5' 45" N  12° 2' 22" W  View metadata report for BODC series reference number 125473
1254851978-08-07 10:20 58° 5' 45" N  12° 2' 22" W  View metadata report for BODC series reference number 125485
1254971978-08-07 10:22 58° 5' 45" N  12° 2' 22" W  View metadata report for BODC series reference number 125497
1255041978-08-07 10:24 58° 5' 45" N  12° 2' 22" W  View metadata report for BODC series reference number 125504
1255161978-08-07 11:26 58° 5' 45" N  12° 2' 22" W  View metadata report for BODC series reference number 125516
1255281978-08-07 10:28 58° 5' 45" N  12° 2' 22" W  View metadata report for BODC series reference number 125528
1255411978-08-07 10:30 58° 5' 45" N  12° 2' 22" W  View metadata report for BODC series reference number 125541
1255531978-08-07 10:32 58° 5' 45" N  12° 2' 22" W  View metadata report for BODC series reference number 125553
1255651978-08-07 10:34 58° 5' 45" N  12° 2' 22" W  View metadata report for BODC series reference number 125565
1255771978-08-07 10:36 58° 5' 45" N  12° 2' 22" W  View metadata report for BODC series reference number 125577
1255891978-08-07 10:38 58° 5' 45" N  12° 2' 22" W  View metadata report for BODC series reference number 125589
1255901978-08-07 10:40 58° 5' 45" N  12° 2' 22" W  View metadata report for BODC series reference number 125590
1256081978-08-07 10:42 58° 5' 45" N  12° 2' 22" W  View metadata report for BODC series reference number 125608
1256211978-08-07 10:44 58° 5' 45" N  12° 2' 22" W  View metadata report for BODC series reference number 125621
1256331978-08-07 10:46 58° 5' 45" N  12° 2' 22" W  View metadata report for BODC series reference number 125633
1256451978-08-07 10:48 58° 5' 45" N  12° 2' 22" W  View metadata report for BODC series reference number 125645
1256571978-08-07 10:50 58° 5' 45" N  12° 2' 22" W  View metadata report for BODC series reference number 125657
1256691978-08-07 10:52 58° 5' 45" N  12° 2' 22" W  View metadata report for BODC series reference number 125669
1256701978-08-07 10:54 58° 5' 45" N  12° 2' 22" W  View metadata report for BODC series reference number 125670
1256821978-08-07 10:56 58° 5' 45" N  12° 2' 22" W  View metadata report for BODC series reference number 125682
1256941978-08-07 10:58 58° 5' 45" N  12° 2' 22" W  View metadata report for BODC series reference number 125694
1257011978-08-07 11:00 58° 5' 45" N  12° 2' 22" W  View metadata report for BODC series reference number 125701
1257131978-08-07 11:02 58° 5' 45" N  12° 2' 22" W  View metadata report for BODC series reference number 125713
1257251978-08-07 11:04 58° 5' 45" N  12° 2' 22" W  View metadata report for BODC series reference number 125725
1257371978-08-07 11:06 58° 5' 45" N  12° 2' 22" W  View metadata report for BODC series reference number 125737
1257491978-08-07 11:08 58° 5' 45" N  12° 2' 22" W  View metadata report for BODC series reference number 125749
1257501978-08-07 11:10 58° 5' 45" N  12° 2' 22" W  View metadata report for BODC series reference number 125750
1257621978-08-07 11:12 58° 5' 45" N  12° 2' 22" W  View metadata report for BODC series reference number 125762
1257741978-08-07 11:14 58° 5' 45" N  12° 2' 22" W  View metadata report for BODC series reference number 125774
1257861978-08-07 11:16 58° 5' 45" N  12° 2' 22" W  View metadata report for BODC series reference number 125786
1534251978-08-27 22:18 58° 5' 52" N  12° 2' 47" W  View metadata report for BODC series reference number 153425
1534371978-08-27 22:20 58° 5' 52" N  12° 2' 47" W  View metadata report for BODC series reference number 153437
1526921978-08-27 11:36 58° 5' 43" N  12° 2' 48" W  View metadata report for BODC series reference number 152692
1527111978-08-27 11:38 58° 5' 43" N  12° 2' 48" W  View metadata report for BODC series reference number 152711
1527231978-08-27 11:40 58° 5' 43" N  12° 2' 48" W  View metadata report for BODC series reference number 152723
1527351978-08-27 11:42 58° 5' 43" N  12° 2' 48" W  View metadata report for BODC series reference number 152735
1527471978-08-27 11:44 58° 5' 43" N  12° 2' 48" W  View metadata report for BODC series reference number 152747
1527591978-08-27 11:46 58° 5' 43" N  12° 2' 48" W  View metadata report for BODC series reference number 152759
1527601978-08-27 11:48 58° 5' 43" N  12° 2' 48" W  View metadata report for BODC series reference number 152760
1527721978-08-27 11:50 58° 5' 43" N  12° 2' 48" W  View metadata report for BODC series reference number 152772
1527841978-08-27 11:52 58° 5' 43" N  12° 2' 48" W  View metadata report for BODC series reference number 152784
1527961978-08-27 11:54 58° 5' 43" N  12° 2' 48" W  View metadata report for BODC series reference number 152796
1528031978-08-27 11:56 58° 5' 43" N  12° 2' 48" W  View metadata report for BODC series reference number 152803
1528151978-08-27 11:58 58° 5' 43" N  12° 2' 48" W  View metadata report for BODC series reference number 152815
1528271978-08-27 12:00 58° 5' 43" N  12° 2' 48" W  View metadata report for BODC series reference number 152827
1528391978-08-27 12:30 58° 5' 43" N  12° 2' 48" W  View metadata report for BODC series reference number 152839
1528401978-08-27 12:32 58° 5' 43" N  12° 2' 48" W  View metadata report for BODC series reference number 152840
1528521978-08-27 12:34 58° 5' 43" N  12° 2' 48" W  View metadata report for BODC series reference number 152852
1528641978-08-27 12:36 58° 5' 43" N  12° 2' 48" W  View metadata report for BODC series reference number 152864
1528761978-08-27 12:38 58° 5' 43" N  12° 2' 48" W  View metadata report for BODC series reference number 152876
1528881978-08-27 12:40 58° 5' 43" N  12° 2' 48" W  View metadata report for BODC series reference number 152888
1529071978-08-27 12:42 58° 5' 43" N  12° 2' 48" W  View metadata report for BODC series reference number 152907
1529191978-08-27 12:44 58° 5' 43" N  12° 2' 48" W  View metadata report for BODC series reference number 152919
1529201978-08-27 12:46 58° 5' 43" N  12° 2' 48" W  View metadata report for BODC series reference number 152920
1529321978-08-27 12:48 58° 5' 43" N  12° 2' 48" W  View metadata report for BODC series reference number 152932
1529441978-08-27 12:50 58° 5' 43" N  12° 2' 48" W  View metadata report for BODC series reference number 152944
1529561978-08-27 12:52 58° 5' 43" N  12° 2' 48" W  View metadata report for BODC series reference number 152956
1529681978-08-27 12:54 58° 5' 43" N  12° 2' 48" W  View metadata report for BODC series reference number 152968
1529811978-08-27 12:56 58° 5' 43" N  12° 2' 48" W  View metadata report for BODC series reference number 152981
1529931978-08-27 12:58 58° 5' 43" N  12° 2' 48" W  View metadata report for BODC series reference number 152993
1530071978-08-27 13:00 58° 5' 43" N  12° 2' 48" W  View metadata report for BODC series reference number 153007
1530191978-08-27 13:28 58° 5' 43" N  12° 2' 48" W  View metadata report for BODC series reference number 153019
1530201978-08-27 13:39 58° 5' 43" N  12° 2' 48" W  View metadata report for BODC series reference number 153020
1530321978-08-27 14:35 58° 5' 56" N  12° 2' 48" W  View metadata report for BODC series reference number 153032
1530441978-08-27 14:40 58° 5' 56" N  12° 2' 48" W  View metadata report for BODC series reference number 153044
1530561978-08-27 14:45 58° 5' 56" N  12° 2' 48" W  View metadata report for BODC series reference number 153056
1523171978-08-27 09:36 58° 5' 49" N  12° 2' 54" W  View metadata report for BODC series reference number 152317
1523291978-08-27 09:38 58° 5' 49" N  12° 2' 54" W  View metadata report for BODC series reference number 152329
1523301978-08-27 09:40 58° 5' 49" N  12° 2' 54" W  View metadata report for BODC series reference number 152330
1523421978-08-27 09:42 58° 5' 49" N  12° 2' 54" W  View metadata report for BODC series reference number 152342
1523541978-08-27 09:44 58° 5' 49" N  12° 2' 54" W  View metadata report for BODC series reference number 152354
1523661978-08-27 09:46 58° 5' 49" N  12° 2' 54" W  View metadata report for BODC series reference number 152366
1523781978-08-27 09:48 58° 5' 49" N  12° 2' 54" W  View metadata report for BODC series reference number 152378
1523911978-08-27 09:50 58° 5' 49" N  12° 2' 54" W  View metadata report for BODC series reference number 152391
1524091978-08-27 09:52 58° 5' 49" N  12° 2' 54" W  View metadata report for BODC series reference number 152409
1524101978-08-27 09:54 58° 5' 49" N  12° 2' 54" W  View metadata report for BODC series reference number 152410
1524221978-08-27 09:56 58° 5' 49" N  12° 2' 54" W  View metadata report for BODC series reference number 152422
1524341978-08-27 09:58 58° 5' 49" N  12° 2' 54" W  View metadata report for BODC series reference number 152434
1524461978-08-27 10:00 58° 5' 49" N  12° 2' 54" W  View metadata report for BODC series reference number 152446
1524581978-08-27 10:02 58° 5' 49" N  12° 2' 54" W  View metadata report for BODC series reference number 152458
1524711978-08-27 10:04 58° 5' 49" N  12° 2' 54" W  View metadata report for BODC series reference number 152471
1524831978-08-27 10:28 58° 5' 49" N  12° 2' 54" W  View metadata report for BODC series reference number 152483
1524951978-08-27 10:30 58° 5' 49" N  12° 2' 54" W  View metadata report for BODC series reference number 152495
1525021978-08-27 10:32 58° 5' 49" N  12° 2' 54" W  View metadata report for BODC series reference number 152502
1525141978-08-27 10:34 58° 5' 49" N  12° 2' 54" W  View metadata report for BODC series reference number 152514
1525261978-08-27 10:36 58° 5' 49" N  12° 2' 54" W  View metadata report for BODC series reference number 152526
1525381978-08-27 10:38 58° 5' 49" N  12° 2' 54" W  View metadata report for BODC series reference number 152538
1257981978-08-07 11:18 58° 5' 45" N  12° 2' 22" W  View metadata report for BODC series reference number 125798
1258051978-08-07 11:20 58° 5' 45" N  12° 2' 22" W  View metadata report for BODC series reference number 125805
1258171978-08-07 11:22 58° 5' 45" N  12° 2' 22" W  View metadata report for BODC series reference number 125817
1258291978-08-07 11:24 58° 5' 45" N  12° 2' 22" W  View metadata report for BODC series reference number 125829
1258301978-08-07 11:26 58° 5' 45" N  12° 2' 22" W  View metadata report for BODC series reference number 125830
1258421978-08-07 12:18 58° 5' 35" N  12° 2' 34" W  View metadata report for BODC series reference number 125842
1258541978-08-07 15:00 58° 5' 30" N  12° 2' 57" W  View metadata report for BODC series reference number 125854
1258661978-08-07 15:20 58° 5' 29" N  12° 3' 4" W  View metadata report for BODC series reference number 125866
1258781978-08-07 15:22 58° 5' 29" N  12° 3' 4" W  View metadata report for BODC series reference number 125878
1258911978-08-07 15:24 58° 5' 29" N  12° 3' 4" W  View metadata report for BODC series reference number 125891
1259091978-08-07 15:26 58° 5' 29" N  12° 3' 4" W  View metadata report for BODC series reference number 125909
1259101978-08-07 15:28 58° 5' 29" N  12° 3' 4" W  View metadata report for BODC series reference number 125910
1259221978-08-07 15:30 58° 5' 29" N  12° 3' 4" W  View metadata report for BODC series reference number 125922
1259341978-08-07 15:30 58° 5' 29" N  12° 3' 4" W  View metadata report for BODC series reference number 125934
1259461978-08-07 15:34 58° 5' 29" N  12° 3' 4" W  View metadata report for BODC series reference number 125946
1259581978-08-07 15:36 58° 5' 29" N  12° 3' 4" W  View metadata report for BODC series reference number 125958
1259711978-08-07 15:38 58° 5' 29" N  12° 3' 4" W  View metadata report for BODC series reference number 125971
1259831978-08-07 15:40 58° 5' 29" N  12° 3' 4" W  View metadata report for BODC series reference number 125983
1259951978-08-07 15:42 58° 5' 29" N  12° 3' 4" W  View metadata report for BODC series reference number 125995
1260091978-08-07 15:44 58° 5' 29" N  12° 3' 4" W  View metadata report for BODC series reference number 126009
1260101978-08-07 15:46 58° 5' 29" N  12° 3' 4" W  View metadata report for BODC series reference number 126010
1260221978-08-07 15:48 58° 5' 29" N  12° 3' 4" W  View metadata report for BODC series reference number 126022
1260341978-08-07 15:50 58° 5' 29" N  12° 3' 4" W  View metadata report for BODC series reference number 126034
1260461978-08-07 15:52 58° 5' 29" N  12° 3' 4" W  View metadata report for BODC series reference number 126046
1260581978-08-07 15:54 58° 5' 29" N  12° 3' 4" W  View metadata report for BODC series reference number 126058
1260711978-08-07 15:56 58° 5' 29" N  12° 3' 4" W  View metadata report for BODC series reference number 126071
1260831978-08-07 15:58 58° 5' 29" N  12° 3' 4" W  View metadata report for BODC series reference number 126083
1260951978-08-07 16:00 58° 5' 29" N  12° 3' 4" W  View metadata report for BODC series reference number 126095
1261021978-08-07 16:02 58° 5' 29" N  12° 3' 4" W  View metadata report for BODC series reference number 126102
1261141978-08-07 16:04 58° 5' 29" N  12° 3' 4" W  View metadata report for BODC series reference number 126114
1261261978-08-07 16:06 58° 5' 29" N  12° 3' 4" W  View metadata report for BODC series reference number 126126
1261381978-08-07 16:08 58° 5' 29" N  12° 3' 4" W  View metadata report for BODC series reference number 126138
1261511978-08-07 16:10 58° 5' 29" N  12° 3' 4" W  View metadata report for BODC series reference number 126151
1261631978-08-07 15:12 58° 5' 29" N  12° 3' 4" W  View metadata report for BODC series reference number 126163
1261751978-08-07 16:14 58° 5' 29" N  12° 3' 4" W  View metadata report for BODC series reference number 126175
1261871978-08-07 16:16 58° 5' 29" N  12° 3' 4" W  View metadata report for BODC series reference number 126187
1261991978-08-07 16:18 58° 5' 29" N  12° 3' 4" W  View metadata report for BODC series reference number 126199
1262061978-08-07 16:20 58° 5' 29" N  12° 3' 4" W  View metadata report for BODC series reference number 126206
1262181978-08-07 16:22 58° 5' 29" N  12° 3' 4" W  View metadata report for BODC series reference number 126218
1262311978-08-07 16:24 58° 5' 29" N  12° 3' 4" W  View metadata report for BODC series reference number 126231
1262431978-08-07 16:26 58° 5' 29" N  12° 3' 4" W  View metadata report for BODC series reference number 126243
1262551978-08-07 16:28 58° 5' 29" N  12° 3' 4" W  View metadata report for BODC series reference number 126255
1262671978-08-07 16:30 58° 5' 29" N  12° 3' 4" W  View metadata report for BODC series reference number 126267
1262791978-08-07 16:32 58° 5' 29" N  12° 3' 4" W  View metadata report for BODC series reference number 126279
1262801978-08-07 16:34 58° 5' 29" N  12° 3' 4" W  View metadata report for BODC series reference number 126280
1262921978-08-07 16:36 58° 5' 29" N  12° 3' 4" W  View metadata report for BODC series reference number 126292
1263111978-08-07 16:38 58° 5' 29" N  12° 3' 4" W  View metadata report for BODC series reference number 126311
1263231978-08-07 16:40 58° 5' 29" N  12° 3' 4" W  View metadata report for BODC series reference number 126323
1263351978-08-07 16:42 58° 5' 29" N  12° 3' 4" W  View metadata report for BODC series reference number 126335
1263471978-08-07 16:44 58° 5' 29" N  12° 3' 4" W  View metadata report for BODC series reference number 126347
1263591978-08-07 16:46 58° 5' 29" N  12° 3' 4" W  View metadata report for BODC series reference number 126359
1263601978-08-07 16:48 58° 5' 29" N  12° 3' 4" W  View metadata report for BODC series reference number 126360
1263721978-08-07 16:50 58° 5' 29" N  12° 3' 4" W  View metadata report for BODC series reference number 126372
1263841978-08-07 16:52 58° 5' 29" N  12° 3' 4" W  View metadata report for BODC series reference number 126384
1263961978-08-07 16:54 58° 5' 29" N  12° 3' 4" W  View metadata report for BODC series reference number 126396
1264031978-08-07 16:56 58° 5' 29" N  12° 3' 4" W  View metadata report for BODC series reference number 126403
1264151978-08-07 16:58 58° 5' 29" N  12° 3' 4" W  View metadata report for BODC series reference number 126415
1264271978-08-07 17:00 58° 5' 29" N  12° 3' 4" W  View metadata report for BODC series reference number 126427
1525511978-08-27 10:40 58° 5' 49" N  12° 2' 54" W  View metadata report for BODC series reference number 152551
1525631978-08-27 10:42 58° 5' 49" N  12° 2' 54" W  View metadata report for BODC series reference number 152563
1525751978-08-27 10:44 58° 5' 49" N  12° 2' 54" W  View metadata report for BODC series reference number 152575
1525871978-08-27 10:46 58° 5' 49" N  12° 2' 54" W  View metadata report for BODC series reference number 152587
1525991978-08-27 10:48 58° 5' 49" N  12° 2' 54" W  View metadata report for BODC series reference number 152599
1526061978-08-27 10:50 58° 5' 49" N  12° 2' 54" W  View metadata report for BODC series reference number 152606
1526181978-08-27 10:52 58° 5' 49" N  12° 2' 54" W  View metadata report for BODC series reference number 152618
1526311978-08-27 10:54 58° 5' 49" N  12° 2' 54" W  View metadata report for BODC series reference number 152631
1526431978-08-27 10:56 58° 5' 49" N  12° 2' 54" W  View metadata report for BODC series reference number 152643
1526551978-08-27 10:58 58° 5' 49" N  12° 2' 54" W  View metadata report for BODC series reference number 152655
1526671978-08-27 11:30 58° 5' 43" N  12° 2' 48" W  View metadata report for BODC series reference number 152667
1526791978-08-27 11:32 58° 5' 43" N  12° 2' 48" W  View metadata report for BODC series reference number 152679
1526801978-08-27 11:34 58° 5' 43" N  12° 2' 48" W  View metadata report for BODC series reference number 152680
1519531978-08-27 08:30 58° 5' 49" N  12° 2' 54" W  View metadata report for BODC series reference number 151953
1519651978-08-27 08:32 58° 5' 49" N  12° 2' 54" W  View metadata report for BODC series reference number 151965
1519771978-08-27 08:34 58° 5' 49" N  12° 2' 54" W  View metadata report for BODC series reference number 151977
1519891978-08-27 08:36 58° 5' 49" N  12° 2' 54" W  View metadata report for BODC series reference number 151989
1519901978-08-27 08:38 58° 5' 49" N  12° 2' 54" W  View metadata report for BODC series reference number 151990
1520041978-08-27 08:40 58° 5' 49" N  12° 2' 54" W  View metadata report for BODC series reference number 152004
1520161978-08-27 08:42 58° 5' 49" N  12° 2' 54" W  View metadata report for BODC series reference number 152016
1520281978-08-27 08:44 58° 5' 49" N  12° 2' 54" W  View metadata report for BODC series reference number 152028
1520411978-08-27 08:46 58° 5' 49" N  12° 2' 54" W  View metadata report for BODC series reference number 152041
1520531978-08-27 08:48 58° 5' 49" N  12° 2' 54" W  View metadata report for BODC series reference number 152053
1520651978-08-27 08:50 58° 5' 49" N  12° 2' 54" W  View metadata report for BODC series reference number 152065
1520771978-08-27 08:52 58° 5' 49" N  12° 2' 54" W  View metadata report for BODC series reference number 152077
1520891978-08-27 08:54 58° 5' 49" N  12° 2' 54" W  View metadata report for BODC series reference number 152089
1520901978-08-27 08:54 58° 5' 49" N  12° 2' 54" W  View metadata report for BODC series reference number 152090
1521081978-08-27 08:56 58° 5' 49" N  12° 2' 54" W  View metadata report for BODC series reference number 152108
1521211978-08-27 08:58 58° 5' 49" N  12° 2' 54" W  View metadata report for BODC series reference number 152121
1521331978-08-27 09:00 58° 5' 49" N  12° 2' 54" W  View metadata report for BODC series reference number 152133
1521451978-08-27 09:02 58° 5' 49" N  12° 2' 54" W  View metadata report for BODC series reference number 152145
1521571978-08-27 09:04 58° 5' 49" N  12° 2' 54" W  View metadata report for BODC series reference number 152157
1521691978-08-27 09:06 58° 5' 49" N  12° 2' 54" W  View metadata report for BODC series reference number 152169
1521701978-08-27 09:08 58° 5' 49" N  12° 2' 54" W  View metadata report for BODC series reference number 152170
1521821978-08-27 09:10 58° 5' 49" N  12° 2' 54" W  View metadata report for BODC series reference number 152182
1521941978-08-27 09:12 58° 5' 49" N  12° 2' 54" W  View metadata report for BODC series reference number 152194
1522011978-08-27 09:14 58° 5' 49" N  12° 2' 54" W  View metadata report for BODC series reference number 152201
1522131978-08-27 09:16 58° 5' 49" N  12° 2' 54" W  View metadata report for BODC series reference number 152213
1522251978-08-27 09:18 58° 5' 49" N  12° 2' 54" W  View metadata report for BODC series reference number 152225
1522371978-08-27 09:20 58° 5' 49" N  12° 2' 54" W  View metadata report for BODC series reference number 152237
1522491978-08-27 09:22 58° 5' 49" N  12° 2' 54" W  View metadata report for BODC series reference number 152249
1522501978-08-27 09:24 58° 5' 49" N  12° 2' 54" W  View metadata report for BODC series reference number 152250
1522621978-08-27 09:26 58° 5' 49" N  12° 2' 54" W  View metadata report for BODC series reference number 152262
1522741978-08-27 09:28 58° 5' 49" N  12° 2' 54" W  View metadata report for BODC series reference number 152274
1522861978-08-27 09:30 58° 5' 49" N  12° 2' 54" W  View metadata report for BODC series reference number 152286
1522981978-08-27 09:32 58° 5' 49" N  12° 2' 54" W  View metadata report for BODC series reference number 152298
1523051978-08-27 09:34 58° 5' 49" N  12° 2' 54" W  View metadata report for BODC series reference number 152305
1515721978-08-27 02:48 58° 5' 57" N  12° 2' 52" W  View metadata report for BODC series reference number 151572
1515841978-08-27 02:50 58° 5' 57" N  12° 2' 52" W  View metadata report for BODC series reference number 151584
1515961978-08-27 02:52 58° 5' 57" N  12° 2' 52" W  View metadata report for BODC series reference number 151596
1516031978-08-27 02:54 58° 5' 57" N  12° 2' 52" W  View metadata report for BODC series reference number 151603
1516151978-08-27 02:56 58° 5' 57" N  12° 2' 52" W  View metadata report for BODC series reference number 151615
1516271978-08-27 02:58 58° 5' 57" N  12° 2' 52" W  View metadata report for BODC series reference number 151627
1516391978-08-27 03:00 58° 5' 57" N  12° 2' 52" W  View metadata report for BODC series reference number 151639
1516401978-08-27 03:02 58° 5' 57" N  12° 2' 52" W  View metadata report for BODC series reference number 151640
1516521978-08-27 03:04 58° 5' 57" N  12° 2' 52" W  View metadata report for BODC series reference number 151652
1516641978-08-27 03:06 58° 5' 57" N  12° 2' 52" W  View metadata report for BODC series reference number 151664
1264391978-08-07 17:02 58° 5' 29" N  12° 3' 4" W  View metadata report for BODC series reference number 126439
1264401978-08-07 17:04 58° 5' 29" N  12° 3' 4" W  View metadata report for BODC series reference number 126440
1264521978-08-07 17:06 58° 5' 29" N  12° 3' 4" W  View metadata report for BODC series reference number 126452
1264641978-08-07 17:08 58° 5' 29" N  12° 3' 4" W  View metadata report for BODC series reference number 126464
1264761978-08-07 17:10 58° 5' 29" N  12° 3' 4" W  View metadata report for BODC series reference number 126476
1264881978-08-07 17:12 58° 5' 29" N  12° 3' 4" W  View metadata report for BODC series reference number 126488
1265071978-08-07 17:14 58° 5' 29" N  12° 3' 4" W  View metadata report for BODC series reference number 126507
1265191978-08-07 17:16 58° 5' 29" N  12° 3' 4" W  View metadata report for BODC series reference number 126519
1265201978-08-07 17:18 58° 5' 29" N  12° 3' 4" W  View metadata report for BODC series reference number 126520
1265321978-08-07 17:20 58° 5' 29" N  12° 3' 4" W  View metadata report for BODC series reference number 126532
1265441978-08-07 17:22 58° 5' 29" N  12° 3' 4" W  View metadata report for BODC series reference number 126544
1265561978-08-07 17:24 58° 5' 29" N  12° 3' 4" W  View metadata report for BODC series reference number 126556
1265681978-08-07 17:26 58° 5' 29" N  12° 3' 4" W  View metadata report for BODC series reference number 126568
1265811978-08-07 18:13 58° 5' 42" N  12° 2' 50" W  View metadata report for BODC series reference number 126581
1265931978-08-07 21:00 58° 5' 46" N  12° 2' 42" W  View metadata report for BODC series reference number 126593
1266001978-08-08 00:05 58° 5' 47" N  12° 2' 47" W  View metadata report for BODC series reference number 126600
1266121978-08-08 03:02 58° 5' 44" N  12° 2' 43" W  View metadata report for BODC series reference number 126612
1266241978-08-08 06:30 58° 5' 50" N  12° 2' 38" W  View metadata report for BODC series reference number 126624
1266361978-08-08 09:01 59° 0' 7" N  12° 1' 40" W  View metadata report for BODC series reference number 126636
1266481978-08-08 12:04 59° 0' 4" N  12° 1' 47" W  View metadata report for BODC series reference number 126648
1266611978-08-08 14:59 58° 5' 58" N  12° 2' 14" W  View metadata report for BODC series reference number 126661
1266731978-08-08 17:59 58° 5' 54" N  12° 2' 36" W  View metadata report for BODC series reference number 126673
1266851978-08-17 20:12 58° 5' 55" N  12° 2' 23" W  View metadata report for BODC series reference number 126685
1266971978-08-17 20:18 58° 5' 55" N  12° 2' 23" W  View metadata report for BODC series reference number 126697
1267041978-08-17 20:23 58° 5' 55" N  12° 2' 23" W  View metadata report for BODC series reference number 126704
1267161978-08-17 20:28 58° 5' 55" N  12° 2' 23" W  View metadata report for BODC series reference number 126716
1267281978-08-17 20:46 58° 5' 55" N  12° 2' 23" W  View metadata report for BODC series reference number 126728
1267411978-08-17 20:48 58° 5' 55" N  12° 2' 23" W  View metadata report for BODC series reference number 126741
1267531978-08-17 20:50 58° 5' 55" N  12° 2' 23" W  View metadata report for BODC series reference number 126753
1267651978-08-17 20:52 58° 5' 55" N  12° 2' 23" W  View metadata report for BODC series reference number 126765
1267771978-08-17 20:54 58° 5' 55" N  12° 2' 23" W  View metadata report for BODC series reference number 126777
1267891978-08-17 20:56 58° 5' 55" N  12° 2' 23" W  View metadata report for BODC series reference number 126789
1267901978-08-17 20:58 58° 5' 55" N  12° 2' 23" W  View metadata report for BODC series reference number 126790
1268081978-08-17 21:00 58° 5' 55" N  12° 2' 23" W  View metadata report for BODC series reference number 126808
1268211978-08-17 21:02 58° 5' 55" N  12° 2' 23" W  View metadata report for BODC series reference number 126821
1268331978-08-17 21:04 58° 5' 55" N  12° 2' 23" W  View metadata report for BODC series reference number 126833
1268451978-08-17 21:06 58° 5' 55" N  12° 2' 23" W  View metadata report for BODC series reference number 126845
1268571978-08-17 21:10 58° 5' 55" N  12° 2' 23" W  View metadata report for BODC series reference number 126857
1268691978-08-17 21:12 58° 5' 55" N  12° 2' 23" W  View metadata report for BODC series reference number 126869
1268701978-08-17 21:14 58° 5' 55" N  12° 2' 23" W  View metadata report for BODC series reference number 126870
1268821978-08-17 21:16 58° 5' 55" N  12° 2' 23" W  View metadata report for BODC series reference number 126882
1268941978-08-17 21:46 58° 5' 53" N  12° 2' 35" W  View metadata report for BODC series reference number 126894
1269011978-08-17 21:48 58° 5' 53" N  12° 2' 35" W  View metadata report for BODC series reference number 126901
1269131978-08-17 21:50 58° 5' 53" N  12° 2' 35" W  View metadata report for BODC series reference number 126913
1269251978-08-17 21:52 58° 5' 53" N  12° 2' 35" W  View metadata report for BODC series reference number 126925
1269371978-08-17 21:54 58° 5' 53" N  12° 2' 35" W  View metadata report for BODC series reference number 126937
1269491978-08-17 21:56 58° 5' 53" N  12° 2' 35" W  View metadata report for BODC series reference number 126949
1269501978-08-17 21:58 58° 5' 53" N  12° 2' 35" W  View metadata report for BODC series reference number 126950
1269621978-08-17 22:00 58° 5' 53" N  12° 2' 35" W  View metadata report for BODC series reference number 126962
1269741978-08-17 22:02 58° 5' 53" N  12° 2' 35" W  View metadata report for BODC series reference number 126974
1269861978-08-17 22:04 58° 5' 53" N  12° 2' 35" W  View metadata report for BODC series reference number 126986
1269981978-08-17 22:06 58° 5' 53" N  12° 2' 35" W  View metadata report for BODC series reference number 126998
1270011978-08-17 22:08 58° 5' 53" N  12° 2' 35" W  View metadata report for BODC series reference number 127001
1270131978-08-17 22:10 58° 5' 53" N  12° 2' 35" W  View metadata report for BODC series reference number 127013
1270251978-08-17 22:12 58° 5' 53" N  12° 2' 35" W  View metadata report for BODC series reference number 127025
1270371978-08-17 22:14 58° 5' 53" N  12° 2' 35" W  View metadata report for BODC series reference number 127037
1270491978-08-17 22:16 58° 5' 53" N  12° 2' 35" W  View metadata report for BODC series reference number 127049
1516761978-08-27 03:32 58° 5' 52" N  12° 2' 44" W  View metadata report for BODC series reference number 151676
1516881978-08-27 03:34 58° 5' 52" N  12° 2' 44" W  View metadata report for BODC series reference number 151688
1517071978-08-27 03:36 58° 5' 52" N  12° 2' 44" W  View metadata report for BODC series reference number 151707
1517191978-08-27 03:38 58° 5' 52" N  12° 2' 44" W  View metadata report for BODC series reference number 151719
1517201978-08-27 03:40 58° 5' 52" N  12° 2' 44" W  View metadata report for BODC series reference number 151720
1517321978-08-27 03:42 58° 5' 52" N  12° 2' 44" W  View metadata report for BODC series reference number 151732
1517441978-08-27 03:44 58° 5' 52" N  12° 2' 44" W  View metadata report for BODC series reference number 151744
1517561978-08-27 03:46 58° 5' 52" N  12° 2' 44" W  View metadata report for BODC series reference number 151756
1517681978-08-27 03:48 58° 5' 52" N  12° 2' 44" W  View metadata report for BODC series reference number 151768
1517811978-08-27 03:50 58° 5' 52" N  12° 2' 44" W  View metadata report for BODC series reference number 151781
1517931978-08-27 03:52 58° 5' 52" N  12° 2' 44" W  View metadata report for BODC series reference number 151793
1518001978-08-27 03:54 58° 5' 52" N  12° 2' 44" W  View metadata report for BODC series reference number 151800
1518121978-08-27 03:56 58° 5' 52" N  12° 2' 44" W  View metadata report for BODC series reference number 151812
1518241978-08-27 03:58 58° 5' 52" N  12° 2' 44" W  View metadata report for BODC series reference number 151824
1518361978-08-27 04:00 58° 5' 52" N  12° 2' 44" W  View metadata report for BODC series reference number 151836
1518481978-08-27 04:02 58° 5' 52" N  12° 2' 44" W  View metadata report for BODC series reference number 151848
1518611978-08-27 04:26 58° 5' 48" N  12° 2' 33" W  View metadata report for BODC series reference number 151861
1518731978-08-27 04:28 58° 5' 48" N  12° 2' 33" W  View metadata report for BODC series reference number 151873
1518851978-08-27 04:30 58° 5' 48" N  12° 2' 33" W  View metadata report for BODC series reference number 151885
1518971978-08-27 04:32 58° 5' 48" N  12° 2' 33" W  View metadata report for BODC series reference number 151897
1519041978-08-27 04:34 58° 5' 48" N  12° 2' 33" W  View metadata report for BODC series reference number 151904
1519161978-08-27 04:36 58° 5' 48" N  12° 2' 33" W  View metadata report for BODC series reference number 151916
1519281978-08-27 04:38 58° 5' 48" N  12° 2' 33" W  View metadata report for BODC series reference number 151928
1519411978-08-27 04:40 58° 5' 48" N  12° 2' 33" W  View metadata report for BODC series reference number 151941
1511911978-08-27 00:38 58° 5' 50" N  12° 2' 40" W  View metadata report for BODC series reference number 151191
1512091978-08-27 00:40 58° 5' 50" N  12° 2' 40" W  View metadata report for BODC series reference number 151209
1512101978-08-27 00:42 58° 5' 50" N  12° 2' 40" W  View metadata report for BODC series reference number 151210
1512221978-08-27 00:44 58° 5' 50" N  12° 2' 40" W  View metadata report for BODC series reference number 151222
1512341978-08-27 00:46 58° 5' 50" N  12° 2' 40" W  View metadata report for BODC series reference number 151234
1512461978-08-27 00:48 58° 5' 50" N  12° 2' 40" W  View metadata report for BODC series reference number 151246
1512581978-08-27 00:50 58° 5' 50" N  12° 2' 40" W  View metadata report for BODC series reference number 151258
1512711978-08-27 00:52 58° 5' 50" N  12° 2' 40" W  View metadata report for BODC series reference number 151271
1512831978-08-27 00:54 58° 5' 50" N  12° 2' 40" W  View metadata report for BODC series reference number 151283
1512951978-08-27 00:56 58° 5' 50" N  12° 2' 40" W  View metadata report for BODC series reference number 151295
1513021978-08-27 00:58 58° 5' 50" N  12° 2' 40" W  View metadata report for BODC series reference number 151302
1513141978-08-27 01:00 58° 5' 50" N  12° 2' 40" W  View metadata report for BODC series reference number 151314
1513261978-08-27 01:30 58° 5' 57" N  12° 2' 52" W  View metadata report for BODC series reference number 151326
1513381978-08-27 01:32 58° 5' 57" N  12° 2' 52" W  View metadata report for BODC series reference number 151338
1513511978-08-27 01:34 58° 5' 57" N  12° 2' 52" W  View metadata report for BODC series reference number 151351
1513631978-08-27 01:36 58° 5' 57" N  12° 2' 52" W  View metadata report for BODC series reference number 151363
1513751978-08-27 01:38 58° 5' 57" N  12° 2' 52" W  View metadata report for BODC series reference number 151375
1513871978-08-27 01:40 58° 5' 57" N  12° 2' 52" W  View metadata report for BODC series reference number 151387
1513991978-08-27 01:42 58° 5' 57" N  12° 2' 52" W  View metadata report for BODC series reference number 151399
1514061978-08-27 01:44 58° 5' 57" N  12° 2' 52" W  View metadata report for BODC series reference number 151406
1514181978-08-27 01:46 58° 5' 57" N  12° 2' 52" W  View metadata report for BODC series reference number 151418
1514311978-08-27 01:48 58° 5' 57" N  12° 2' 52" W  View metadata report for BODC series reference number 151431
1514431978-08-27 01:50 58° 5' 57" N  12° 2' 52" W  View metadata report for BODC series reference number 151443
1514551978-08-27 01:52 58° 5' 57" N  12° 2' 52" W  View metadata report for BODC series reference number 151455
1514671978-08-27 01:54 58° 5' 57" N  12° 2' 52" W  View metadata report for BODC series reference number 151467
1514791978-08-27 01:56 58° 5' 57" N  12° 2' 52" W  View metadata report for BODC series reference number 151479
1514801978-08-27 01:58 58° 5' 57" N  12° 2' 52" W  View metadata report for BODC series reference number 151480
1514921978-08-27 02:00 58° 5' 57" N  12° 2' 52" W  View metadata report for BODC series reference number 151492
1515111978-08-27 02:36 58° 5' 57" N  12° 2' 52" W  View metadata report for BODC series reference number 151511
1515231978-08-27 02:38 58° 5' 57" N  12° 2' 52" W  View metadata report for BODC series reference number 151523
1515351978-08-27 02:40 58° 5' 57" N  12° 2' 52" W  View metadata report for BODC series reference number 151535
1515471978-08-27 02:42 58° 5' 57" N  12° 2' 52" W  View metadata report for BODC series reference number 151547
1515591978-08-27 02:44 58° 5' 57" N  12° 2' 52" W  View metadata report for BODC series reference number 151559
1270501978-08-17 22:18 58° 5' 53" N  12° 2' 35" W  View metadata report for BODC series reference number 127050
1270621978-08-17 22:46 58° 5' 53" N  12° 2' 35" W  View metadata report for BODC series reference number 127062
1270741978-08-17 22:48 58° 5' 53" N  12° 2' 35" W  View metadata report for BODC series reference number 127074
1270861978-08-17 22:50 58° 5' 53" N  12° 2' 35" W  View metadata report for BODC series reference number 127086
1270981978-08-17 22:52 58° 5' 53" N  12° 2' 35" W  View metadata report for BODC series reference number 127098
1271051978-08-17 22:54 58° 5' 53" N  12° 2' 35" W  View metadata report for BODC series reference number 127105
1271171978-08-17 22:56 58° 5' 53" N  12° 2' 35" W  View metadata report for BODC series reference number 127117
1271291978-08-17 22:58 58° 5' 53" N  12° 2' 35" W  View metadata report for BODC series reference number 127129
1271301978-08-17 23:00 58° 5' 53" N  12° 2' 35" W  View metadata report for BODC series reference number 127130
1271421978-08-17 23:02 58° 5' 53" N  12° 2' 35" W  View metadata report for BODC series reference number 127142
1271541978-08-17 23:04 58° 5' 53" N  12° 2' 35" W  View metadata report for BODC series reference number 127154
1271661978-08-17 23:06 58° 5' 53" N  12° 2' 35" W  View metadata report for BODC series reference number 127166
1271781978-08-17 23:08 58° 5' 53" N  12° 2' 35" W  View metadata report for BODC series reference number 127178
1271911978-08-17 23:10 58° 5' 53" N  12° 2' 35" W  View metadata report for BODC series reference number 127191
1272091978-08-17 23:12 58° 5' 53" N  12° 2' 35" W  View metadata report for BODC series reference number 127209
1272101978-08-17 23:14 58° 5' 53" N  12° 2' 35" W  View metadata report for BODC series reference number 127210
1272221978-08-17 23:16 58° 5' 53" N  12° 2' 35" W  View metadata report for BODC series reference number 127222
1272341978-08-17 23:44 58° 5' 53" N  12° 2' 35" W  View metadata report for BODC series reference number 127234
1272461978-08-17 23:46 58° 5' 53" N  12° 2' 35" W  View metadata report for BODC series reference number 127246
1272581978-08-17 23:48 58° 5' 53" N  12° 2' 35" W  View metadata report for BODC series reference number 127258
1568161978-08-29 02:34 58° 5' 50" N  12° 2' 49" W  View metadata report for BODC series reference number 156816
1568281978-08-29 02:39 58° 5' 50" N  12° 2' 49" W  View metadata report for BODC series reference number 156828
1568411978-08-29 02:44 58° 5' 50" N  12° 2' 49" W  View metadata report for BODC series reference number 156841
1568531978-08-29 02:49 58° 5' 50" N  12° 2' 49" W  View metadata report for BODC series reference number 156853
1568651978-08-29 02:54 58° 5' 50" N  12° 2' 49" W  View metadata report for BODC series reference number 156865
1568771978-08-29 02:59 58° 5' 50" N  12° 2' 49" W  View metadata report for BODC series reference number 156877
1568891978-08-29 03:04 58° 5' 50" N  12° 2' 49" W  View metadata report for BODC series reference number 156889
1568901978-08-29 03:09 58° 5' 50" N  12° 2' 49" W  View metadata report for BODC series reference number 156890
1569081978-08-29 03:14 58° 5' 50" N  12° 2' 49" W  View metadata report for BODC series reference number 156908
1569211978-08-29 03:19 58° 5' 50" N  12° 2' 49" W  View metadata report for BODC series reference number 156921
1569331978-08-29 03:24 58° 5' 50" N  12° 2' 49" W  View metadata report for BODC series reference number 156933
1569451978-08-29 03:29 58° 5' 50" N  12° 2' 49" W  View metadata report for BODC series reference number 156945
1569571978-08-29 03:34 58° 5' 50" N  12° 2' 49" W  View metadata report for BODC series reference number 156957
1569691978-08-29 03:39 58° 5' 50" N  12° 2' 49" W  View metadata report for BODC series reference number 156969
1564471978-08-28 23:09 58° 5' 45" N  12° 2' 36" W  View metadata report for BODC series reference number 156447
1564591978-08-28 23:14 58° 5' 45" N  12° 2' 36" W  View metadata report for BODC series reference number 156459
1564601978-08-28 23:19 58° 5' 45" N  12° 2' 36" W  View metadata report for BODC series reference number 156460
1564721978-08-28 23:24 58° 5' 45" N  12° 2' 36" W  View metadata report for BODC series reference number 156472
1564841978-08-28 23:29 58° 5' 45" N  12° 2' 36" W  View metadata report for BODC series reference number 156484
1564961978-08-29 00:09 58° 5' 50" N  12° 2' 49" W  View metadata report for BODC series reference number 156496
1565031978-08-29 00:14 58° 5' 50" N  12° 2' 49" W  View metadata report for BODC series reference number 156503
1565151978-08-29 00:19 58° 5' 50" N  12° 2' 49" W  View metadata report for BODC series reference number 156515
1565271978-08-29 00:24 58° 5' 50" N  12° 2' 49" W  View metadata report for BODC series reference number 156527
1565391978-08-29 00:29 58° 5' 50" N  12° 2' 49" W  View metadata report for BODC series reference number 156539
1565401978-08-29 00:35 58° 5' 50" N  12° 2' 49" W  View metadata report for BODC series reference number 156540
1565521978-08-29 00:39 58° 5' 50" N  12° 2' 49" W  View metadata report for BODC series reference number 156552
1565641978-08-29 00:44 58° 5' 50" N  12° 2' 49" W  View metadata report for BODC series reference number 156564
1565761978-08-29 00:49 58° 5' 50" N  12° 2' 49" W  View metadata report for BODC series reference number 156576
1565881978-08-29 00:54 58° 5' 50" N  12° 2' 49" W  View metadata report for BODC series reference number 156588
1566071978-08-29 00:59 58° 5' 50" N  12° 2' 49" W  View metadata report for BODC series reference number 156607
1566191978-08-29 01:04 58° 5' 50" N  12° 2' 49" W  View metadata report for BODC series reference number 156619
1566201978-08-29 01:09 58° 5' 50" N  12° 2' 49" W  View metadata report for BODC series reference number 156620
1566321978-08-29 01:14 58° 5' 50" N  12° 2' 49" W  View metadata report for BODC series reference number 156632
1566441978-08-29 01:19 58° 5' 50" N  12° 2' 49" W  View metadata report for BODC series reference number 156644
1566561978-08-29 01:24 58° 5' 50" N  12° 2' 49" W  View metadata report for BODC series reference number 156656
1566681978-08-29 01:29 58° 5' 50" N  12° 2' 49" W  View metadata report for BODC series reference number 156668
1566811978-08-29 01:34 58° 5' 50" N  12° 2' 49" W  View metadata report for BODC series reference number 156681
1515601978-08-27 02:46 58° 5' 57" N  12° 2' 52" W  View metadata report for BODC series reference number 151560
1508451978-08-26 21:48 58° 5' 53" N  12° 2' 50" W  View metadata report for BODC series reference number 150845
1508571978-08-26 21:50 58° 5' 53" N  12° 2' 50" W  View metadata report for BODC series reference number 150857
1508691978-08-26 21:52 58° 5' 53" N  12° 2' 50" W  View metadata report for BODC series reference number 150869
1508701978-08-26 21:54 58° 5' 53" N  12° 2' 50" W  View metadata report for BODC series reference number 150870
1508821978-08-26 21:56 58° 5' 53" N  12° 2' 50" W  View metadata report for BODC series reference number 150882
1508941978-08-26 21:58 58° 5' 53" N  12° 2' 50" W  View metadata report for BODC series reference number 150894
1509011978-08-26 22:00 58° 5' 53" N  12° 2' 50" W  View metadata report for BODC series reference number 150901
1586751978-08-29 18:39 58° 5' 44" N  12° 2' 52" W  View metadata report for BODC series reference number 158675
1579361978-08-29 12:49 58° 5' 52" N  12° 2' 52" W  View metadata report for BODC series reference number 157936
1579481978-08-29 12:54 58° 5' 52" N  12° 2' 52" W  View metadata report for BODC series reference number 157948
1579611978-08-29 12:59 58° 5' 52" N  12° 2' 52" W  View metadata report for BODC series reference number 157961
1579731978-08-29 13:04 58° 5' 52" N  12° 2' 52" W  View metadata report for BODC series reference number 157973
1579851978-08-29 13:09 58° 5' 52" N  12° 2' 52" W  View metadata report for BODC series reference number 157985
1579971978-08-29 13:14 58° 5' 52" N  12° 2' 52" W  View metadata report for BODC series reference number 157997
1580001978-08-29 13:19 58° 5' 52" N  12° 2' 52" W  View metadata report for BODC series reference number 158000
1580121978-08-29 13:24 58° 5' 52" N  12° 2' 52" W  View metadata report for BODC series reference number 158012
1580241978-08-29 13:29 58° 5' 52" N  12° 2' 52" W  View metadata report for BODC series reference number 158024
1580361978-08-29 13:34 58° 5' 52" N  12° 2' 52" W  View metadata report for BODC series reference number 158036
1580481978-08-29 13:39 58° 5' 52" N  12° 2' 52" W  View metadata report for BODC series reference number 158048
1580611978-08-29 13:44 58° 5' 52" N  12° 2' 52" W  View metadata report for BODC series reference number 158061
1580731978-08-29 13:49 58° 5' 52" N  12° 2' 52" W  View metadata report for BODC series reference number 158073
1580851978-08-29 13:54 58° 5' 52" N  12° 2' 52" W  View metadata report for BODC series reference number 158085
1580971978-08-29 13:59 58° 5' 52" N  12° 2' 52" W  View metadata report for BODC series reference number 158097
1581041978-08-29 14:04 58° 5' 52" N  12° 2' 52" W  View metadata report for BODC series reference number 158104
1581161978-08-29 14:09 58° 5' 52" N  12° 2' 52" W  View metadata report for BODC series reference number 158116
1581281978-08-29 14:14 58° 5' 52" N  12° 2' 52" W  View metadata report for BODC series reference number 158128
1581411978-08-29 14:19 58° 5' 52" N  12° 2' 52" W  View metadata report for BODC series reference number 158141
1581531978-08-29 14:24 58° 5' 52" N  12° 2' 52" W  View metadata report for BODC series reference number 158153
1581651978-08-29 14:29 58° 5' 44" N  12° 2' 52" W  View metadata report for BODC series reference number 158165
1581771978-08-29 14:34 58° 5' 44" N  12° 2' 52" W  View metadata report for BODC series reference number 158177
1581891978-08-29 14:39 58° 5' 44" N  12° 2' 52" W  View metadata report for BODC series reference number 158189
1581901978-08-29 14:44 58° 5' 44" N  12° 2' 52" W  View metadata report for BODC series reference number 158190
1582081978-08-29 14:49 58° 5' 44" N  12° 2' 52" W  View metadata report for BODC series reference number 158208
1582211978-08-29 14:54 58° 5' 44" N  12° 2' 52" W  View metadata report for BODC series reference number 158221
1582331978-08-29 15:01 58° 5' 44" N  12° 2' 52" W  View metadata report for BODC series reference number 158233
1582451978-08-29 15:14 58° 5' 44" N  12° 2' 52" W  View metadata report for BODC series reference number 158245
1582571978-08-29 15:19 58° 5' 44" N  12° 2' 52" W  View metadata report for BODC series reference number 158257
1582691978-08-29 15:24 58° 5' 44" N  12° 2' 52" W  View metadata report for BODC series reference number 158269
1582701978-08-29 15:29 58° 5' 44" N  12° 2' 52" W  View metadata report for BODC series reference number 158270
1582821978-08-29 15:34 58° 5' 44" N  12° 2' 52" W  View metadata report for BODC series reference number 158282
1582941978-08-29 15:39 58° 5' 44" N  12° 2' 52" W  View metadata report for BODC series reference number 158294
1583011978-08-29 15:45 58° 5' 44" N  12° 2' 52" W  View metadata report for BODC series reference number 158301
1575671978-08-29 09:59 58° 5' 52" N  12° 2' 52" W  View metadata report for BODC series reference number 157567
1575791978-08-29 10:05 58° 5' 52" N  12° 2' 52" W  View metadata report for BODC series reference number 157579
1575801978-08-29 10:09 58° 5' 52" N  12° 2' 52" W  View metadata report for BODC series reference number 157580
1575921978-08-29 10:14 58° 5' 52" N  12° 2' 52" W  View metadata report for BODC series reference number 157592
1576111978-08-29 10:19 58° 5' 52" N  12° 2' 52" W  View metadata report for BODC series reference number 157611
1576231978-08-29 10:24 58° 5' 52" N  12° 2' 52" W  View metadata report for BODC series reference number 157623
1576351978-08-29 10:29 58° 5' 52" N  12° 2' 52" W  View metadata report for BODC series reference number 157635
1576471978-08-29 10:34 58° 5' 52" N  12° 2' 52" W  View metadata report for BODC series reference number 157647
1576591978-08-29 10:39 58° 5' 52" N  12° 2' 52" W  View metadata report for BODC series reference number 157659
1576601978-08-29 10:44 58° 5' 52" N  12° 2' 52" W  View metadata report for BODC series reference number 157660
1576721978-08-29 10:49 58° 5' 52" N  12° 2' 52" W  View metadata report for BODC series reference number 157672
1576841978-08-29 10:54 58° 5' 52" N  12° 2' 52" W  View metadata report for BODC series reference number 157684
1576961978-08-29 10:59 58° 5' 52" N  12° 2' 52" W  View metadata report for BODC series reference number 157696
1577031978-08-29 11:04 58° 5' 52" N  12° 2' 52" W  View metadata report for BODC series reference number 157703
1566931978-08-29 01:39 58° 5' 50" N  12° 2' 49" W  View metadata report for BODC series reference number 156693
1567001978-08-29 01:44 58° 5' 50" N  12° 2' 49" W  View metadata report for BODC series reference number 156700
1567121978-08-29 01:49 58° 5' 50" N  12° 2' 49" W  View metadata report for BODC series reference number 156712
1567241978-08-29 01:54 58° 5' 50" N  12° 2' 49" W  View metadata report for BODC series reference number 156724
1567361978-08-29 01:59 58° 5' 50" N  12° 2' 49" W  View metadata report for BODC series reference number 156736
1567481978-08-29 02:04 58° 5' 50" N  12° 2' 49" W  View metadata report for BODC series reference number 156748
1567611978-08-29 02:09 58° 5' 50" N  12° 2' 49" W  View metadata report for BODC series reference number 156761
1567731978-08-29 02:14 58° 5' 50" N  12° 2' 49" W  View metadata report for BODC series reference number 156773
1567851978-08-29 02:19 58° 5' 50" N  12° 2' 49" W  View metadata report for BODC series reference number 156785
1567971978-08-29 02:24 58° 5' 50" N  12° 2' 49" W  View metadata report for BODC series reference number 156797
1568041978-08-29 02:29 58° 5' 50" N  12° 2' 49" W  View metadata report for BODC series reference number 156804
1560541978-08-28 19:44 58° 5' 51" N  12° 2' 44" W  View metadata report for BODC series reference number 156054
1560661978-08-28 19:46 58° 5' 51" N  12° 2' 44" W  View metadata report for BODC series reference number 156066
1560781978-08-28 19:48 58° 5' 51" N  12° 2' 44" W  View metadata report for BODC series reference number 156078
1560911978-08-28 19:50 58° 5' 51" N  12° 2' 44" W  View metadata report for BODC series reference number 156091
1561091978-08-28 19:52 58° 5' 51" N  12° 2' 44" W  View metadata report for BODC series reference number 156109
1561101978-08-28 19:54 58° 5' 51" N  12° 2' 44" W  View metadata report for BODC series reference number 156110
1561221978-08-28 19:56 58° 5' 51" N  12° 2' 44" W  View metadata report for BODC series reference number 156122
1561341978-08-28 19:58 58° 5' 51" N  12° 2' 44" W  View metadata report for BODC series reference number 156134
1561461978-08-28 20:59 58° 5' 50" N  12° 2' 44" W  View metadata report for BODC series reference number 156146
1561581978-08-28 21:04 58° 5' 50" N  12° 2' 44" W  View metadata report for BODC series reference number 156158
1561711978-08-28 21:09 58° 5' 50" N  12° 2' 44" W  View metadata report for BODC series reference number 156171
1561831978-08-28 21:15 58° 5' 50" N  12° 2' 44" W  View metadata report for BODC series reference number 156183
1561951978-08-28 21:19 58° 5' 50" N  12° 2' 44" W  View metadata report for BODC series reference number 156195
1562021978-08-28 21:24 58° 5' 50" N  12° 2' 44" W  View metadata report for BODC series reference number 156202
1562141978-08-28 21:29 58° 5' 50" N  12° 2' 44" W  View metadata report for BODC series reference number 156214
1562261978-08-28 21:34 58° 5' 50" N  12° 2' 44" W  View metadata report for BODC series reference number 156226
1562381978-08-28 21:39 58° 5' 50" N  12° 2' 44" W  View metadata report for BODC series reference number 156238
1562511978-08-28 21:44 58° 5' 50" N  12° 2' 44" W  View metadata report for BODC series reference number 156251
1562631978-08-28 21:49 58° 5' 50" N  12° 2' 44" W  View metadata report for BODC series reference number 156263
1562751978-08-28 21:54 58° 5' 50" N  12° 2' 44" W  View metadata report for BODC series reference number 156275
1562871978-08-28 21:59 58° 5' 50" N  12° 2' 44" W  View metadata report for BODC series reference number 156287
1562991978-08-28 22:04 58° 5' 50" N  12° 2' 44" W  View metadata report for BODC series reference number 156299
1563061978-08-28 22:09 58° 5' 50" N  12° 2' 44" W  View metadata report for BODC series reference number 156306
1563181978-08-28 22:14 58° 5' 50" N  12° 2' 44" W  View metadata report for BODC series reference number 156318
1563311978-08-28 22:19 58° 5' 45" N  12° 2' 36" W  View metadata report for BODC series reference number 156331
1563431978-08-28 22:24 58° 5' 45" N  12° 2' 36" W  View metadata report for BODC series reference number 156343
1563551978-08-28 22:29 58° 5' 45" N  12° 2' 36" W  View metadata report for BODC series reference number 156355
1563671978-08-28 22:34 58° 5' 45" N  12° 2' 36" W  View metadata report for BODC series reference number 156367
1563791978-08-28 22:39 58° 5' 45" N  12° 2' 36" W  View metadata report for BODC series reference number 156379
1594451978-08-30 00:24 58° 5' 44" N  12° 2' 52" W  View metadata report for BODC series reference number 159445
1594571978-08-30 00:29 58° 5' 44" N  12° 2' 52" W  View metadata report for BODC series reference number 159457
1594691978-08-30 00:34 58° 5' 44" N  12° 2' 52" W  View metadata report for BODC series reference number 159469
1594701978-08-30 00:39 58° 5' 44" N  12° 2' 52" W  View metadata report for BODC series reference number 159470
1594821978-08-30 00:44 58° 5' 44" N  12° 2' 52" W  View metadata report for BODC series reference number 159482
1594941978-08-30 00:49 58° 5' 44" N  12° 2' 52" W  View metadata report for BODC series reference number 159494
1595011978-08-30 00:54 58° 5' 44" N  12° 2' 52" W  View metadata report for BODC series reference number 159501
1595131978-08-30 00:59 58° 5' 44" N  12° 2' 52" W  View metadata report for BODC series reference number 159513
1595251978-08-30 01:04 58° 5' 44" N  12° 2' 52" W  View metadata report for BODC series reference number 159525
1595371978-08-30 01:09 58° 5' 44" N  12° 2' 52" W  View metadata report for BODC series reference number 159537
1595491978-08-30 01:14 58° 5' 44" N  12° 2' 52" W  View metadata report for BODC series reference number 159549
1595501978-08-30 01:19 58° 5' 44" N  12° 2' 52" W  View metadata report for BODC series reference number 159550
1595621978-08-30 01:24 58° 5' 44" N  12° 2' 52" W  View metadata report for BODC series reference number 159562
1595741978-08-30 01:29 58° 5' 44" N  12° 2' 52" W  View metadata report for BODC series reference number 159574
1595861978-08-30 01:34 58° 5' 44" N  12° 2' 52" W  View metadata report for BODC series reference number 159586
1595981978-08-30 01:39 58° 5' 44" N  12° 2' 52" W  View metadata report for BODC series reference number 159598
1596051978-08-30 01:44 58° 5' 44" N  12° 2' 52" W  View metadata report for BODC series reference number 159605
1577151978-08-29 11:09 58° 5' 52" N  12° 2' 52" W  View metadata report for BODC series reference number 157715
1577271978-08-29 11:14 58° 5' 52" N  12° 2' 52" W  View metadata report for BODC series reference number 157727
1577391978-08-29 11:19 58° 5' 52" N  12° 2' 52" W  View metadata report for BODC series reference number 157739
1577401978-08-29 11:24 58° 5' 52" N  12° 2' 52" W  View metadata report for BODC series reference number 157740
1577521978-08-29 11:29 58° 5' 52" N  12° 2' 52" W  View metadata report for BODC series reference number 157752
1577641978-08-29 11:34 58° 5' 52" N  12° 2' 52" W  View metadata report for BODC series reference number 157764
1577761978-08-29 11:39 58° 5' 52" N  12° 2' 52" W  View metadata report for BODC series reference number 157776
1577881978-08-29 11:44 58° 5' 52" N  12° 2' 52" W  View metadata report for BODC series reference number 157788
1578071978-08-29 11:49 58° 5' 52" N  12° 2' 52" W  View metadata report for BODC series reference number 157807
1578191978-08-29 11:54 58° 5' 52" N  12° 2' 52" W  View metadata report for BODC series reference number 157819
1578201978-08-29 11:59 58° 5' 52" N  12° 2' 52" W  View metadata report for BODC series reference number 157820
1578321978-08-29 12:04 58° 5' 52" N  12° 2' 52" W  View metadata report for BODC series reference number 157832
1578441978-08-29 12:09 58° 5' 52" N  12° 2' 52" W  View metadata report for BODC series reference number 157844
1578561978-08-29 12:14 58° 5' 52" N  12° 2' 52" W  View metadata report for BODC series reference number 157856
1578681978-08-29 12:19 58° 5' 52" N  12° 2' 52" W  View metadata report for BODC series reference number 157868
1578811978-08-29 12:24 58° 5' 52" N  12° 2' 52" W  View metadata report for BODC series reference number 157881
1578931978-08-29 12:29 58° 5' 52" N  12° 2' 52" W  View metadata report for BODC series reference number 157893
1579001978-08-29 12:34 58° 5' 52" N  12° 2' 52" W  View metadata report for BODC series reference number 157900
1579121978-08-29 12:39 58° 5' 52" N  12° 2' 52" W  View metadata report for BODC series reference number 157912
1579241978-08-29 12:44 58° 5' 52" N  12° 2' 52" W  View metadata report for BODC series reference number 157924
1571861978-08-29 05:24 58° 5' 50" N  12° 2' 49" W  View metadata report for BODC series reference number 157186
1571981978-08-29 05:29 58° 5' 50" N  12° 2' 49" W  View metadata report for BODC series reference number 157198
1572051978-08-29 05:34 58° 5' 50" N  12° 2' 49" W  View metadata report for BODC series reference number 157205
1572171978-08-29 05:38 58° 5' 50" N  12° 2' 49" W  View metadata report for BODC series reference number 157217
1572291978-08-29 05:44 58° 5' 50" N  12° 2' 49" W  View metadata report for BODC series reference number 157229
1572301978-08-29 05:49 58° 5' 50" N  12° 2' 49" W  View metadata report for BODC series reference number 157230
1572421978-08-29 05:54 58° 5' 50" N  12° 2' 49" W  View metadata report for BODC series reference number 157242
1572541978-08-29 05:59 58° 5' 50" N  12° 2' 49" W  View metadata report for BODC series reference number 157254
1572661978-08-29 06:04 58° 5' 50" N  12° 2' 49" W  View metadata report for BODC series reference number 157266
1572781978-08-29 06:09 58° 5' 50" N  12° 2' 49" W  View metadata report for BODC series reference number 157278
1572911978-08-29 07:29 58° 5' 52" N  12° 2' 52" W  View metadata report for BODC series reference number 157291
1573091978-08-29 07:35 58° 5' 52" N  12° 2' 52" W  View metadata report for BODC series reference number 157309
1573101978-08-29 07:39 58° 5' 52" N  12° 2' 52" W  View metadata report for BODC series reference number 157310
1573221978-08-29 07:44 58° 5' 52" N  12° 2' 52" W  View metadata report for BODC series reference number 157322
1573341978-08-29 07:49 58° 5' 52" N  12° 2' 52" W  View metadata report for BODC series reference number 157334
1573461978-08-29 07:54 58° 5' 52" N  12° 2' 52" W  View metadata report for BODC series reference number 157346
1573581978-08-29 07:59 58° 5' 52" N  12° 2' 52" W  View metadata report for BODC series reference number 157358
1573711978-08-29 08:04 58° 5' 52" N  12° 2' 52" W  View metadata report for BODC series reference number 157371
1573831978-08-29 08:09 58° 5' 52" N  12° 2' 52" W  View metadata report for BODC series reference number 157383
1573951978-08-29 08:14 58° 5' 52" N  12° 2' 52" W  View metadata report for BODC series reference number 157395
1574021978-08-29 08:19 58° 5' 52" N  12° 2' 52" W  View metadata report for BODC series reference number 157402
1574141978-08-29 08:24 58° 5' 52" N  12° 2' 52" W  View metadata report for BODC series reference number 157414
1574261978-08-29 08:29 58° 5' 52" N  12° 2' 52" W  View metadata report for BODC series reference number 157426
1574381978-08-29 08:59 58° 5' 52" N  12° 2' 52" W  View metadata report for BODC series reference number 157438
1574511978-08-29 09:04 58° 5' 52" N  12° 2' 52" W  View metadata report for BODC series reference number 157451
1574631978-08-29 09:09 58° 5' 52" N  12° 2' 52" W  View metadata report for BODC series reference number 157463
1574751978-08-29 09:19 58° 5' 52" N  12° 2' 52" W  View metadata report for BODC series reference number 157475
1574871978-08-29 09:24 58° 5' 52" N  12° 2' 52" W  View metadata report for BODC series reference number 157487
1574991978-08-29 09:29 58° 5' 52" N  12° 2' 52" W  View metadata report for BODC series reference number 157499
1575061978-08-29 09:34 58° 5' 52" N  12° 2' 52" W  View metadata report for BODC series reference number 157506
1575181978-08-29 09:39 58° 5' 52" N  12° 2' 52" W  View metadata report for BODC series reference number 157518
1575311978-08-29 09:44 58° 5' 52" N  12° 2' 52" W  View metadata report for BODC series reference number 157531
1575431978-08-29 09:49 58° 5' 52" N  12° 2' 52" W  View metadata report for BODC series reference number 157543
1575551978-08-29 09:54 58° 5' 52" N  12° 2' 52" W  View metadata report for BODC series reference number 157555
1569701978-08-29 03:44 58° 5' 50" N  12° 2' 49" W  View metadata report for BODC series reference number 156970
1569821978-08-29 03:49 58° 5' 50" N  12° 2' 49" W  View metadata report for BODC series reference number 156982
1569941978-08-29 03:54 58° 5' 50" N  12° 2' 49" W  View metadata report for BODC series reference number 156994
1596171978-08-30 01:49 58° 5' 44" N  12° 2' 52" W  View metadata report for BODC series reference number 159617
1596291978-08-30 01:54 58° 5' 44" N  12° 2' 52" W  View metadata report for BODC series reference number 159629
1596301978-08-30 01:59 58° 5' 44" N  12° 2' 52" W  View metadata report for BODC series reference number 159630
1596421978-08-30 02:04 58° 5' 44" N  12° 2' 52" W  View metadata report for BODC series reference number 159642
1596541978-08-30 02:09 58° 5' 44" N  12° 2' 52" W  View metadata report for BODC series reference number 159654
1596661978-08-30 02:14 58° 5' 44" N  12° 2' 52" W  View metadata report for BODC series reference number 159666
1596781978-08-30 02:19 58° 5' 44" N  12° 2' 52" W  View metadata report for BODC series reference number 159678
1596911978-08-30 02:24 58° 5' 44" N  12° 2' 52" W  View metadata report for BODC series reference number 159691
1597091978-08-30 02:28 58° 5' 44" N  12° 2' 52" W  View metadata report for BODC series reference number 159709
1597101978-08-30 02:34 58° 5' 44" N  12° 2' 52" W  View metadata report for BODC series reference number 159710
1597221978-08-30 02:39 58° 5' 44" N  12° 2' 52" W  View metadata report for BODC series reference number 159722
1597341978-08-30 02:44 58° 5' 44" N  12° 2' 52" W  View metadata report for BODC series reference number 159734
1597461978-08-30 02:49 58° 5' 44" N  12° 2' 52" W  View metadata report for BODC series reference number 159746
1597581978-08-30 02:54 58° 5' 44" N  12° 2' 52" W  View metadata report for BODC series reference number 159758
1597711978-08-30 02:59 58° 5' 44" N  12° 2' 52" W  View metadata report for BODC series reference number 159771
1597831978-08-30 03:04 58° 5' 44" N  12° 2' 52" W  View metadata report for BODC series reference number 159783
1597951978-08-30 03:09 58° 5' 44" N  12° 2' 52" W  View metadata report for BODC series reference number 159795
1590521978-08-29 21:34 58° 5' 44" N  12° 2' 52" W  View metadata report for BODC series reference number 159052
1590641978-08-29 21:39 58° 5' 44" N  12° 2' 52" W  View metadata report for BODC series reference number 159064
1590761978-08-29 21:44 58° 5' 44" N  12° 2' 52" W  View metadata report for BODC series reference number 159076
1590881978-08-29 21:49 58° 5' 44" N  12° 2' 52" W  View metadata report for BODC series reference number 159088
1591071978-08-29 21:54 58° 5' 44" N  12° 2' 52" W  View metadata report for BODC series reference number 159107
1591191978-08-29 21:59 58° 5' 44" N  12° 2' 52" W  View metadata report for BODC series reference number 159119
1591201978-08-29 22:04 58° 5' 44" N  12° 2' 52" W  View metadata report for BODC series reference number 159120
1591321978-08-29 22:09 58° 5' 44" N  12° 2' 52" W  View metadata report for BODC series reference number 159132
1591441978-08-29 22:14 58° 5' 44" N  12° 2' 52" W  View metadata report for BODC series reference number 159144
1591561978-08-29 22:19 58° 5' 44" N  12° 2' 52" W  View metadata report for BODC series reference number 159156
1591681978-08-29 22:24 58° 5' 44" N  12° 2' 52" W  View metadata report for BODC series reference number 159168
1591811978-08-29 22:29 58° 5' 44" N  12° 2' 52" W  View metadata report for BODC series reference number 159181
1591931978-08-29 22:34 58° 5' 44" N  12° 2' 52" W  View metadata report for BODC series reference number 159193
1592001978-08-29 22:39 58° 5' 44" N  12° 2' 52" W  View metadata report for BODC series reference number 159200
1592121978-08-29 22:44 58° 5' 44" N  12° 2' 52" W  View metadata report for BODC series reference number 159212
1592241978-08-29 22:49 58° 5' 44" N  12° 2' 52" W  View metadata report for BODC series reference number 159224
1592361978-08-29 22:54 58° 5' 44" N  12° 2' 52" W  View metadata report for BODC series reference number 159236
1592481978-08-29 22:59 58° 5' 44" N  12° 2' 52" W  View metadata report for BODC series reference number 159248
1592611978-08-29 23:05 58° 5' 44" N  12° 2' 52" W  View metadata report for BODC series reference number 159261
1592731978-08-29 23:09 58° 5' 44" N  12° 2' 52" W  View metadata report for BODC series reference number 159273
1592851978-08-29 23:14 58° 5' 44" N  12° 2' 52" W  View metadata report for BODC series reference number 159285
1592971978-08-29 23:19 58° 5' 44" N  12° 2' 52" W  View metadata report for BODC series reference number 159297
1593041978-08-29 23:24 58° 5' 44" N  12° 2' 52" W  View metadata report for BODC series reference number 159304
1593161978-08-29 23:29 58° 5' 44" N  12° 2' 52" W  View metadata report for BODC series reference number 159316
1593281978-08-29 23:34 58° 5' 44" N  12° 2' 52" W  View metadata report for BODC series reference number 159328
1593411978-08-29 23:39 58° 5' 44" N  12° 2' 52" W  View metadata report for BODC series reference number 159341
1593531978-08-29 23:44 58° 5' 44" N  12° 2' 52" W  View metadata report for BODC series reference number 159353
1593651978-08-29 23:49 58° 5' 44" N  12° 2' 52" W  View metadata report for BODC series reference number 159365
1593771978-08-29 23:54 58° 5' 44" N  12° 2' 52" W  View metadata report for BODC series reference number 159377
1593891978-08-29 23:59 58° 5' 44" N  12° 2' 52" W  View metadata report for BODC series reference number 159389
1593901978-08-30 00:04 58° 5' 44" N  12° 2' 52" W  View metadata report for BODC series reference number 159390
1594081978-08-30 00:09 58° 5' 44" N  12° 2' 52" W  View metadata report for BODC series reference number 159408
1594211978-08-30 00:14 58° 5' 44" N  12° 2' 52" W  View metadata report for BODC series reference number 159421
1594331978-08-30 00:19 58° 5' 44" N  12° 2' 52" W  View metadata report for BODC series reference number 159433
1586871978-08-29 18:44 58° 5' 44" N  12° 2' 52" W  View metadata report for BODC series reference number 158687
1586991978-08-29 18:49 58° 5' 44" N  12° 2' 52" W  View metadata report for BODC series reference number 158699
1587061978-08-29 18:54 58° 5' 44" N  12° 2' 52" W  View metadata report for BODC series reference number 158706
1587181978-08-29 18:59 58° 5' 44" N  12° 2' 52" W  View metadata report for BODC series reference number 158718
1587311978-08-29 19:04 58° 5' 44" N  12° 2' 52" W  View metadata report for BODC series reference number 158731
1587431978-08-29 19:09 58° 5' 44" N  12° 2' 52" W  View metadata report for BODC series reference number 158743
1570081978-08-29 03:59 58° 5' 50" N  12° 2' 49" W  View metadata report for BODC series reference number 157008
1570211978-08-29 04:05 58° 5' 50" N  12° 2' 49" W  View metadata report for BODC series reference number 157021
1570331978-08-29 04:10 58° 5' 50" N  12° 2' 49" W  View metadata report for BODC series reference number 157033
1570451978-08-29 04:15 58° 5' 50" N  12° 2' 49" W  View metadata report for BODC series reference number 157045
1570571978-08-29 04:19 58° 5' 50" N  12° 2' 49" W  View metadata report for BODC series reference number 157057
1570691978-08-29 04:24 58° 5' 50" N  12° 2' 49" W  View metadata report for BODC series reference number 157069
1570701978-08-29 04:29 58° 5' 50" N  12° 2' 49" W  View metadata report for BODC series reference number 157070
1570821978-08-29 04:34 58° 5' 50" N  12° 2' 49" W  View metadata report for BODC series reference number 157082
1570941978-08-29 04:39 58° 5' 50" N  12° 2' 49" W  View metadata report for BODC series reference number 157094
1571011978-08-29 04:44 58° 5' 50" N  12° 2' 49" W  View metadata report for BODC series reference number 157101
1571131978-08-29 04:49 58° 5' 50" N  12° 2' 49" W  View metadata report for BODC series reference number 157113
1571251978-08-29 04:54 58° 5' 50" N  12° 2' 49" W  View metadata report for BODC series reference number 157125
1571371978-08-29 04:59 58° 5' 50" N  12° 2' 49" W  View metadata report for BODC series reference number 157137
1571491978-08-29 05:04 58° 5' 50" N  12° 2' 49" W  View metadata report for BODC series reference number 157149
1571501978-08-29 05:09 58° 5' 50" N  12° 2' 49" W  View metadata report for BODC series reference number 157150
1571621978-08-29 05:14 58° 5' 50" N  12° 2' 49" W  View metadata report for BODC series reference number 157162
1571741978-08-29 05:19 58° 5' 50" N  12° 2' 49" W  View metadata report for BODC series reference number 157174
1598021978-08-30 03:14 58° 5' 44" N  12° 2' 52" W  View metadata report for BODC series reference number 159802
1598141978-08-30 03:19 58° 5' 44" N  12° 2' 52" W  View metadata report for BODC series reference number 159814
1598261978-08-30 03:24 58° 5' 44" N  12° 2' 52" W  View metadata report for BODC series reference number 159826
1598381978-08-30 03:29 58° 5' 44" N  12° 2' 52" W  View metadata report for BODC series reference number 159838
1598511978-08-30 03:34 58° 5' 44" N  12° 2' 52" W  View metadata report for BODC series reference number 159851
1598631978-08-30 03:39 58° 5' 44" N  12° 2' 52" W  View metadata report for BODC series reference number 159863
1598751978-08-30 03:44 58° 5' 44" N  12° 2' 52" W  View metadata report for BODC series reference number 159875
1598871978-08-30 03:49 58° 5' 44" N  12° 2' 52" W  View metadata report for BODC series reference number 159887
1598991978-08-30 03:54 58° 5' 44" N  12° 2' 52" W  View metadata report for BODC series reference number 159899
1599061978-08-30 03:59 58° 5' 44" N  12° 2' 52" W  View metadata report for BODC series reference number 159906
1599181978-08-30 04:04 58° 5' 44" N  12° 2' 52" W  View metadata report for BODC series reference number 159918
1599311978-08-30 04:09 58° 5' 44" N  12° 2' 52" W  View metadata report for BODC series reference number 159931
1599431978-08-30 04:14 58° 5' 44" N  12° 2' 52" W  View metadata report for BODC series reference number 159943
1599551978-08-30 04:19 58° 5' 44" N  12° 2' 52" W  View metadata report for BODC series reference number 159955
1599671978-08-30 04:24 58° 5' 44" N  12° 2' 52" W  View metadata report for BODC series reference number 159967
1599791978-08-30 04:29 58° 5' 44" N  12° 2' 52" W  View metadata report for BODC series reference number 159979
1599801978-08-30 04:34 58° 5' 44" N  12° 2' 52" W  View metadata report for BODC series reference number 159980
1599921978-08-30 04:40 58° 5' 44" N  12° 2' 52" W  View metadata report for BODC series reference number 159992
1600041978-08-30 04:45 58° 5' 44" N  12° 2' 52" W  View metadata report for BODC series reference number 160004
1600161978-08-30 04:50 58° 5' 44" N  12° 2' 52" W  View metadata report for BODC series reference number 160016
1600281978-08-30 04:54 58° 5' 44" N  12° 2' 52" W  View metadata report for BODC series reference number 160028
1600411978-08-30 05:00 58° 5' 44" N  12° 2' 52" W  View metadata report for BODC series reference number 160041
1600531978-08-30 05:04 58° 5' 44" N  12° 2' 52" W  View metadata report for BODC series reference number 160053
1600651978-08-30 05:09 58° 5' 44" N  12° 2' 52" W  View metadata report for BODC series reference number 160065
1600771978-08-30 05:14 58° 5' 44" N  12° 2' 52" W  View metadata report for BODC series reference number 160077
1600891978-08-30 05:19 58° 5' 44" N  12° 2' 52" W  View metadata report for BODC series reference number 160089
1600901978-08-30 05:24 58° 5' 44" N  12° 2' 52" W  View metadata report for BODC series reference number 160090
1601081978-08-30 05:29 58° 5' 44" N  12° 2' 52" W  View metadata report for BODC series reference number 160108
1601211978-08-30 05:34 58° 5' 44" N  12° 2' 52" W  View metadata report for BODC series reference number 160121
1601331978-08-30 05:39 58° 5' 44" N  12° 2' 52" W  View metadata report for BODC series reference number 160133
1601451978-08-30 05:44 58° 5' 44" N  12° 2' 52" W  View metadata report for BODC series reference number 160145
1601571978-08-30 05:54 58° 5' 44" N  12° 2' 52" W  View metadata report for BODC series reference number 160157
1601691978-08-30 05:59 58° 5' 44" N  12° 2' 52" W  View metadata report for BODC series reference number 160169
1601701978-08-30 06:05 58° 5' 44" N  12° 2' 52" W  View metadata report for BODC series reference number 160170
1601821978-08-30 06:09 58° 5' 44" N  12° 2' 52" W  View metadata report for BODC series reference number 160182
1601941978-08-30 06:14 58° 5' 44" N  12° 2' 52" W  View metadata report for BODC series reference number 160194
1602011978-08-30 06:19 58° 5' 44" N  12° 2' 52" W  View metadata report for BODC series reference number 160201
1602131978-08-30 06:29 58° 5' 44" N  12° 2' 52" W  View metadata report for BODC series reference number 160213
1602251978-08-30 06:34 58° 5' 44" N  12° 2' 52" W  View metadata report for BODC series reference number 160225
1602371978-08-30 06:39 58° 5' 44" N  12° 2' 52" W  View metadata report for BODC series reference number 160237
1587551978-08-29 19:14 58° 5' 44" N  12° 2' 52" W  View metadata report for BODC series reference number 158755
1587671978-08-29 19:19 58° 5' 44" N  12° 2' 52" W  View metadata report for BODC series reference number 158767
1587791978-08-29 19:25 58° 5' 44" N  12° 2' 52" W  View metadata report for BODC series reference number 158779
1587801978-08-29 19:29 58° 5' 44" N  12° 2' 52" W  View metadata report for BODC series reference number 158780
1587921978-08-29 19:34 58° 5' 44" N  12° 2' 52" W  View metadata report for BODC series reference number 158792
1588111978-08-29 19:39 58° 5' 44" N  12° 2' 52" W  View metadata report for BODC series reference number 158811
1588231978-08-29 19:44 58° 5' 44" N  12° 2' 52" W  View metadata report for BODC series reference number 158823
1588351978-08-29 19:49 58° 5' 44" N  12° 2' 52" W  View metadata report for BODC series reference number 158835
1588471978-08-29 19:54 58° 5' 44" N  12° 2' 52" W  View metadata report for BODC series reference number 158847
1588591978-08-29 19:59 58° 5' 44" N  12° 2' 52" W  View metadata report for BODC series reference number 158859
1588601978-08-29 20:04 58° 5' 44" N  12° 2' 52" W  View metadata report for BODC series reference number 158860
1588721978-08-29 20:09 58° 5' 44" N  12° 2' 52" W  View metadata report for BODC series reference number 158872
1588841978-08-29 20:14 58° 5' 44" N  12° 2' 52" W  View metadata report for BODC series reference number 158884
1588961978-08-29 20:19 58° 5' 44" N  12° 2' 52" W  View metadata report for BODC series reference number 158896
1589031978-08-29 20:24 58° 5' 44" N  12° 2' 52" W  View metadata report for BODC series reference number 158903
1589151978-08-29 20:29 58° 5' 44" N  12° 2' 52" W  View metadata report for BODC series reference number 158915
1589271978-08-29 20:34 58° 5' 44" N  12° 2' 52" W  View metadata report for BODC series reference number 158927
1589391978-08-29 20:39 58° 5' 44" N  12° 2' 52" W  View metadata report for BODC series reference number 158939
1589401978-08-29 20:44 58° 5' 44" N  12° 2' 52" W  View metadata report for BODC series reference number 158940
1589521978-08-29 20:49 58° 5' 44" N  12° 2' 52" W  View metadata report for BODC series reference number 158952
1589641978-08-29 20:54 58° 5' 44" N  12° 2' 52" W  View metadata report for BODC series reference number 158964
1589761978-08-29 20:59 58° 5' 44" N  12° 2' 52" W  View metadata report for BODC series reference number 158976
1589881978-08-29 21:04 58° 5' 44" N  12° 2' 52" W  View metadata report for BODC series reference number 158988
1590031978-08-29 21:09 58° 5' 44" N  12° 2' 52" W  View metadata report for BODC series reference number 159003
1590151978-08-29 21:14 58° 5' 44" N  12° 2' 52" W  View metadata report for BODC series reference number 159015
1590271978-08-29 21:19 58° 5' 44" N  12° 2' 52" W  View metadata report for BODC series reference number 159027
1590391978-08-29 21:24 58° 5' 44" N  12° 2' 52" W  View metadata report for BODC series reference number 159039
1590401978-08-29 21:29 58° 5' 44" N  12° 2' 52" W  View metadata report for BODC series reference number 159040
1583131978-08-29 15:49 58° 5' 44" N  12° 2' 52" W  View metadata report for BODC series reference number 158313
1583251978-08-29 15:54 58° 5' 44" N  12° 2' 52" W  View metadata report for BODC series reference number 158325
1583371978-08-29 15:59 58° 5' 44" N  12° 2' 52" W  View metadata report for BODC series reference number 158337
1583491978-08-29 16:04 58° 5' 44" N  12° 2' 52" W  View metadata report for BODC series reference number 158349
1583501978-08-29 16:10 58° 5' 44" N  12° 2' 52" W  View metadata report for BODC series reference number 158350
1583621978-08-29 16:14 58° 5' 44" N  12° 2' 52" W  View metadata report for BODC series reference number 158362
1583741978-08-29 16:19 58° 5' 44" N  12° 2' 52" W  View metadata report for BODC series reference number 158374
1583861978-08-29 16:24 58° 5' 44" N  12° 2' 52" W  View metadata report for BODC series reference number 158386
1583981978-08-29 16:29 58° 5' 44" N  12° 2' 52" W  View metadata report for BODC series reference number 158398
1584051978-08-29 16:34 58° 5' 44" N  12° 2' 52" W  View metadata report for BODC series reference number 158405
1584171978-08-29 16:39 58° 5' 44" N  12° 2' 52" W  View metadata report for BODC series reference number 158417
1584291978-08-29 16:44 58° 5' 44" N  12° 2' 52" W  View metadata report for BODC series reference number 158429
1584301978-08-29 16:49 58° 5' 44" N  12° 2' 52" W  View metadata report for BODC series reference number 158430
1584421978-08-29 16:59 58° 5' 44" N  12° 2' 52" W  View metadata report for BODC series reference number 158442
1584541978-08-29 17:04 58° 5' 44" N  12° 2' 52" W  View metadata report for BODC series reference number 158454
1584661978-08-29 17:09 58° 5' 44" N  12° 2' 52" W  View metadata report for BODC series reference number 158466
1584781978-08-29 17:14 58° 5' 44" N  12° 2' 52" W  View metadata report for BODC series reference number 158478
1584911978-08-29 17:19 58° 5' 44" N  12° 2' 52" W  View metadata report for BODC series reference number 158491
1585091978-08-29 17:24 58° 5' 44" N  12° 2' 52" W  View metadata report for BODC series reference number 158509
1585101978-08-29 17:29 58° 5' 44" N  12° 2' 52" W  View metadata report for BODC series reference number 158510
1585221978-08-29 17:34 58° 5' 44" N  12° 2' 52" W  View metadata report for BODC series reference number 158522
1585341978-08-29 17:39 58° 5' 44" N  12° 2' 52" W  View metadata report for BODC series reference number 158534
1585461978-08-29 17:45 58° 5' 44" N  12° 2' 52" W  View metadata report for BODC series reference number 158546
1585581978-08-29 17:49 58° 5' 44" N  12° 2' 52" W  View metadata report for BODC series reference number 158558
1585711978-08-29 17:54 58° 5' 44" N  12° 2' 52" W  View metadata report for BODC series reference number 158571
1585831978-08-29 17:59 58° 5' 44" N  12° 2' 52" W  View metadata report for BODC series reference number 158583
1585951978-08-29 18:05 58° 5' 44" N  12° 2' 52" W  View metadata report for BODC series reference number 158595
1586021978-08-29 18:10 58° 5' 44" N  12° 2' 52" W  View metadata report for BODC series reference number 158602
1586141978-08-29 18:14 58° 5' 44" N  12° 2' 52" W  View metadata report for BODC series reference number 158614
1602491978-08-30 06:45 58° 5' 44" N  12° 2' 52" W  View metadata report for BODC series reference number 160249
1602501978-08-30 06:49 58° 5' 44" N  12° 2' 52" W  View metadata report for BODC series reference number 160250
1602621978-08-30 06:54 58° 5' 44" N  12° 2' 52" W  View metadata report for BODC series reference number 160262
1602741978-08-30 06:59 58° 5' 44" N  12° 2' 52" W  View metadata report for BODC series reference number 160274
1602861978-08-30 07:04 58° 5' 44" N  12° 2' 52" W  View metadata report for BODC series reference number 160286
1602981978-08-30 07:09 58° 5' 44" N  12° 2' 52" W  View metadata report for BODC series reference number 160298
1603051978-08-30 07:14 58° 5' 44" N  12° 2' 52" W  View metadata report for BODC series reference number 160305
1603171978-08-30 07:20 58° 5' 44" N  12° 2' 52" W  View metadata report for BODC series reference number 160317
1603291978-08-30 07:25 58° 5' 44" N  12° 2' 52" W  View metadata report for BODC series reference number 160329
1603301978-08-30 07:29 58° 5' 44" N  12° 2' 52" W  View metadata report for BODC series reference number 160330
1603421978-08-30 07:35 58° 5' 44" N  12° 2' 52" W  View metadata report for BODC series reference number 160342
1603541978-08-30 07:39 58° 5' 44" N  12° 2' 52" W  View metadata report for BODC series reference number 160354
1603661978-08-30 07:44 58° 5' 44" N  12° 2' 52" W  View metadata report for BODC series reference number 160366
1603781978-08-30 07:49 58° 5' 44" N  12° 2' 52" W  View metadata report for BODC series reference number 160378
1603911978-08-30 07:55 58° 5' 44" N  12° 2' 52" W  View metadata report for BODC series reference number 160391
1604091978-08-30 07:59 58° 5' 44" N  12° 2' 52" W  View metadata report for BODC series reference number 160409
1604101978-08-30 08:04 58° 5' 44" N  12° 2' 52" W  View metadata report for BODC series reference number 160410
1604221978-08-30 08:09 58° 5' 44" N  12° 2' 52" W  View metadata report for BODC series reference number 160422
1604341978-08-30 08:14 58° 5' 44" N  12° 2' 52" W  View metadata report for BODC series reference number 160434
1604461978-08-30 08:19 58° 5' 44" N  12° 2' 52" W  View metadata report for BODC series reference number 160446
1604581978-08-30 08:24 58° 5' 44" N  12° 2' 52" W  View metadata report for BODC series reference number 160458
1604711978-08-30 08:29 58° 5' 44" N  12° 2' 52" W  View metadata report for BODC series reference number 160471
1604831978-08-30 08:34 58° 5' 44" N  12° 2' 52" W  View metadata report for BODC series reference number 160483
1604951978-08-30 08:39 58° 5' 44" N  12° 2' 52" W  View metadata report for BODC series reference number 160495
1605021978-08-30 08:44 58° 5' 44" N  12° 2' 52" W  View metadata report for BODC series reference number 160502
1605141978-08-30 08:49 58° 5' 44" N  12° 2' 52" W  View metadata report for BODC series reference number 160514
1605261978-08-30 08:54 58° 5' 44" N  12° 2' 52" W  View metadata report for BODC series reference number 160526
1605381978-08-30 08:59 58° 5' 44" N  12° 2' 52" W  View metadata report for BODC series reference number 160538
1605511978-08-30 09:04 58° 5' 44" N  12° 2' 52" W  View metadata report for BODC series reference number 160551
1605631978-08-30 09:09 58° 5' 44" N  12° 2' 52" W  View metadata report for BODC series reference number 160563
1605751978-08-30 09:14 58° 5' 44" N  12° 2' 52" W  View metadata report for BODC series reference number 160575
1605871978-08-30 09:19 58° 5' 44" N  12° 2' 52" W  View metadata report for BODC series reference number 160587
1605991978-08-30 09:24 58° 5' 44" N  12° 2' 52" W  View metadata report for BODC series reference number 160599
1606061978-08-30 09:29 58° 5' 44" N  12° 2' 52" W  View metadata report for BODC series reference number 160606
1606181978-08-30 09:34 58° 5' 44" N  12° 2' 52" W  View metadata report for BODC series reference number 160618
1606311978-08-30 09:39 58° 5' 44" N  12° 2' 52" W  View metadata report for BODC series reference number 160631
1606431978-08-30 09:44 58° 5' 44" N  12° 2' 52" W  View metadata report for BODC series reference number 160643
1606551978-08-30 09:49 58° 5' 44" N  12° 2' 52" W  View metadata report for BODC series reference number 160655
1606671978-08-30 09:54 58° 5' 44" N  12° 2' 52" W  View metadata report for BODC series reference number 160667
1606791978-08-30 09:59 58° 5' 44" N  12° 2' 52" W  View metadata report for BODC series reference number 160679
1606801978-08-30 10:04 58° 5' 44" N  12° 2' 52" W  View metadata report for BODC series reference number 160680
1606921978-08-30 10:09 58° 5' 44" N  12° 2' 52" W  View metadata report for BODC series reference number 160692
1607111978-08-30 10:14 58° 5' 44" N  12° 2' 52" W  View metadata report for BODC series reference number 160711
1607231978-08-30 10:19 58° 5' 44" N  12° 2' 52" W  View metadata report for BODC series reference number 160723
1607351978-08-30 10:24 58° 5' 44" N  12° 2' 52" W  View metadata report for BODC series reference number 160735
1607471978-08-30 10:29 58° 5' 44" N  12° 2' 52" W  View metadata report for BODC series reference number 160747
1607591978-08-30 10:34 58° 5' 44" N  12° 2' 52" W  View metadata report for BODC series reference number 160759
1607601978-08-30 10:44 58° 5' 44" N  12° 2' 52" W  View metadata report for BODC series reference number 160760
1607721978-08-30 10:49 58° 5' 44" N  12° 2' 52" W  View metadata report for BODC series reference number 160772
1607841978-08-30 10:54 58° 5' 44" N  12° 2' 52" W  View metadata report for BODC series reference number 160784
1607961978-08-30 11:04 58° 5' 44" N  12° 2' 52" W  View metadata report for BODC series reference number 160796
1608031978-08-30 11:09 58° 5' 44" N  12° 2' 52" W  View metadata report for BODC series reference number 160803
1608151978-08-30 11:14 58° 5' 44" N  12° 2' 52" W  View metadata report for BODC series reference number 160815
1608271978-08-30 11:19 58° 5' 44" N  12° 2' 52" W  View metadata report for BODC series reference number 160827
1608391978-08-30 11:24 58° 5' 44" N  12° 2' 52" W  View metadata report for BODC series reference number 160839
1608401978-08-30 11:29 58° 5' 44" N  12° 2' 52" W  View metadata report for BODC series reference number 160840
1608521978-08-30 11:35 58° 5' 44" N  12° 2' 52" W  View metadata report for BODC series reference number 160852
1586261978-08-29 18:19 58° 5' 44" N  12° 2' 52" W  View metadata report for BODC series reference number 158626
1586381978-08-29 18:24 58° 5' 44" N  12° 2' 52" W  View metadata report for BODC series reference number 158638
1586511978-08-29 18:29 58° 5' 44" N  12° 2' 52" W  View metadata report for BODC series reference number 158651
1586631978-08-29 18:34 58° 5' 44" N  12° 2' 52" W  View metadata report for BODC series reference number 158663
1563801978-08-28 22:44 58° 5' 45" N  12° 2' 36" W  View metadata report for BODC series reference number 156380
1563921978-08-28 22:49 58° 5' 45" N  12° 2' 36" W  View metadata report for BODC series reference number 156392
1564111978-08-28 22:54 58° 5' 45" N  12° 2' 36" W  View metadata report for BODC series reference number 156411
1564231978-08-28 22:59 58° 5' 45" N  12° 2' 36" W  View metadata report for BODC series reference number 156423
1564351978-08-28 23:04 58° 5' 45" N  12° 2' 36" W  View metadata report for BODC series reference number 156435
1556901978-08-28 16:39 58° 5' 50" N  12° 2' 40" W  View metadata report for BODC series reference number 155690
1557081978-08-28 16:41 58° 5' 50" N  12° 2' 40" W  View metadata report for BODC series reference number 155708
1557211978-08-28 16:43 58° 5' 50" N  12° 2' 40" W  View metadata report for BODC series reference number 155721
1557331978-08-28 16:45 58° 5' 50" N  12° 2' 40" W  View metadata report for BODC series reference number 155733
1557451978-08-28 16:47 58° 5' 50" N  12° 2' 40" W  View metadata report for BODC series reference number 155745
1557571978-08-28 16:49 58° 5' 50" N  12° 2' 40" W  View metadata report for BODC series reference number 155757
1557691978-08-28 16:51 58° 5' 50" N  12° 2' 40" W  View metadata report for BODC series reference number 155769
1557701978-08-28 16:53 58° 5' 50" N  12° 2' 40" W  View metadata report for BODC series reference number 155770
1557821978-08-28 16:55 58° 5' 50" N  12° 2' 40" W  View metadata report for BODC series reference number 155782
1557941978-08-28 16:57 58° 5' 50" N  12° 2' 40" W  View metadata report for BODC series reference number 155794
1558011978-08-28 18:23 58° 5' 51" N  12° 2' 44" W  View metadata report for BODC series reference number 155801
1558131978-08-28 18:25 58° 5' 51" N  12° 2' 44" W  View metadata report for BODC series reference number 155813
1558251978-08-28 18:27 58° 5' 51" N  12° 2' 44" W  View metadata report for BODC series reference number 155825
1558371978-08-28 18:29 58° 5' 51" N  12° 2' 44" W  View metadata report for BODC series reference number 155837
1558491978-08-28 18:31 58° 5' 51" N  12° 2' 44" W  View metadata report for BODC series reference number 155849
1558501978-08-28 18:33 58° 5' 51" N  12° 2' 44" W  View metadata report for BODC series reference number 155850
1558621978-08-28 18:35 58° 5' 51" N  12° 2' 44" W  View metadata report for BODC series reference number 155862
1558741978-08-28 18:37 58° 5' 51" N  12° 2' 44" W  View metadata report for BODC series reference number 155874
1558861978-08-28 18:39 58° 5' 51" N  12° 2' 44" W  View metadata report for BODC series reference number 155886
1558981978-08-28 18:41 58° 5' 51" N  12° 2' 44" W  View metadata report for BODC series reference number 155898
1559051978-08-28 18:43 58° 5' 51" N  12° 2' 44" W  View metadata report for BODC series reference number 155905
1559171978-08-28 18:45 58° 5' 51" N  12° 2' 44" W  View metadata report for BODC series reference number 155917
1559291978-08-28 18:47 58° 5' 51" N  12° 2' 44" W  View metadata report for BODC series reference number 155929
1559301978-08-28 18:49 58° 5' 51" N  12° 2' 44" W  View metadata report for BODC series reference number 155930
1559421978-08-28 18:51 58° 5' 51" N  12° 2' 44" W  View metadata report for BODC series reference number 155942
1559541978-08-28 18:53 58° 5' 51" N  12° 2' 44" W  View metadata report for BODC series reference number 155954
1559661978-08-28 19:28 58° 5' 51" N  12° 2' 44" W  View metadata report for BODC series reference number 155966
1559781978-08-28 19:30 58° 5' 51" N  12° 2' 44" W  View metadata report for BODC series reference number 155978
1559911978-08-28 19:32 58° 5' 51" N  12° 2' 44" W  View metadata report for BODC series reference number 155991
1560051978-08-28 19:34 58° 5' 51" N  12° 2' 44" W  View metadata report for BODC series reference number 156005
1560171978-08-28 19:36 58° 5' 51" N  12° 2' 44" W  View metadata report for BODC series reference number 156017
1560291978-08-28 19:38 58° 5' 51" N  12° 2' 44" W  View metadata report for BODC series reference number 156029
1560301978-08-28 19:40 58° 5' 51" N  12° 2' 44" W  View metadata report for BODC series reference number 156030
1560421978-08-28 19:42 58° 5' 51" N  12° 2' 44" W  View metadata report for BODC series reference number 156042
1553151978-08-28 13:50 58° 5' 53" N  12° 2' 51" W  View metadata report for BODC series reference number 155315
1553271978-08-28 13:52 58° 5' 53" N  12° 2' 51" W  View metadata report for BODC series reference number 155327
1553391978-08-28 13:54 58° 5' 53" N  12° 2' 51" W  View metadata report for BODC series reference number 155339
1553401978-08-28 13:56 58° 5' 53" N  12° 2' 51" W  View metadata report for BODC series reference number 155340
1553521978-08-28 13:58 58° 5' 53" N  12° 2' 51" W  View metadata report for BODC series reference number 155352
1553641978-08-28 14:00 58° 5' 53" N  12° 2' 51" W  View metadata report for BODC series reference number 155364
1553761978-08-28 14:02 58° 5' 53" N  12° 2' 51" W  View metadata report for BODC series reference number 155376
1553881978-08-28 14:04 58° 5' 53" N  12° 2' 51" W  View metadata report for BODC series reference number 155388
1554071978-08-28 14:06 58° 5' 53" N  12° 2' 51" W  View metadata report for BODC series reference number 155407
1554191978-08-28 14:08 58° 5' 53" N  12° 2' 51" W  View metadata report for BODC series reference number 155419
1554201978-08-28 14:10 58° 5' 53" N  12° 2' 51" W  View metadata report for BODC series reference number 155420
1554321978-08-28 14:12 58° 5' 53" N  12° 2' 51" W  View metadata report for BODC series reference number 155432
1554441978-08-28 14:14 58° 5' 52" N  12° 2' 47" W  View metadata report for BODC series reference number 155444
1554561978-08-28 14:30 58° 5' 52" N  12° 2' 47" W  View metadata report for BODC series reference number 155456
1608641978-08-30 11:39 58° 5' 44" N  12° 2' 52" W  View metadata report for BODC series reference number 160864
1608761978-08-30 11:44 58° 5' 44" N  12° 2' 52" W  View metadata report for BODC series reference number 160876
1608881978-08-30 11:49 58° 5' 44" N  12° 2' 52" W  View metadata report for BODC series reference number 160888
1609071978-08-30 11:54 58° 5' 44" N  12° 2' 52" W  View metadata report for BODC series reference number 160907
1609191978-08-30 11:59 58° 5' 44" N  12° 2' 52" W  View metadata report for BODC series reference number 160919
1609201978-08-30 15:16 58° 5' 44" N  12° 2' 41" W  View metadata report for BODC series reference number 160920
1609321978-08-30 19:07 58° 5' 44" N  12° 2' 41" W  View metadata report for BODC series reference number 160932
1417981978-08-24 07:30 58° 5' 49" N  12° 2' 48" W  View metadata report for BODC series reference number 141798
1418051978-08-24 07:32 58° 5' 49" N  12° 2' 48" W  View metadata report for BODC series reference number 141805
1418171978-08-24 07:52 58° 5' 49" N  12° 2' 48" W  View metadata report for BODC series reference number 141817
1418291978-08-24 07:54 58° 5' 49" N  12° 2' 48" W  View metadata report for BODC series reference number 141829
1418301978-08-24 07:56 58° 5' 49" N  12° 2' 48" W  View metadata report for BODC series reference number 141830
1411111978-08-24 03:48 58° 5' 48" N  12° 2' 51" W  View metadata report for BODC series reference number 141111
1411231978-08-24 03:50 58° 5' 48" N  12° 2' 51" W  View metadata report for BODC series reference number 141123
1411351978-08-24 03:52 58° 5' 48" N  12° 2' 51" W  View metadata report for BODC series reference number 141135
1411471978-08-24 03:54 58° 5' 48" N  12° 2' 51" W  View metadata report for BODC series reference number 141147
1411591978-08-24 03:56 58° 5' 48" N  12° 2' 51" W  View metadata report for BODC series reference number 141159
1411601978-08-24 03:58 58° 5' 48" N  12° 2' 51" W  View metadata report for BODC series reference number 141160
1411721978-08-24 04:00 58° 5' 48" N  12° 2' 51" W  View metadata report for BODC series reference number 141172
1411841978-08-24 04:02 58° 5' 48" N  12° 2' 51" W  View metadata report for BODC series reference number 141184
1411961978-08-24 04:04 58° 5' 48" N  12° 2' 51" W  View metadata report for BODC series reference number 141196
1412031978-08-24 04:06 58° 5' 48" N  12° 2' 51" W  View metadata report for BODC series reference number 141203
1412151978-08-24 04:08 58° 5' 48" N  12° 2' 51" W  View metadata report for BODC series reference number 141215
1412271978-08-24 04:10 58° 5' 48" N  12° 2' 51" W  View metadata report for BODC series reference number 141227
1412391978-08-24 04:12 58° 5' 48" N  12° 2' 51" W  View metadata report for BODC series reference number 141239
1412401978-08-24 04:14 58° 5' 48" N  12° 2' 51" W  View metadata report for BODC series reference number 141240
1412521978-08-24 04:16 58° 5' 48" N  12° 2' 51" W  View metadata report for BODC series reference number 141252
1412641978-08-24 04:18 58° 5' 48" N  12° 2' 51" W  View metadata report for BODC series reference number 141264
1412761978-08-24 04:46 58° 5' 44" N  12° 2' 44" W  View metadata report for BODC series reference number 141276
1412881978-08-24 04:48 58° 5' 44" N  12° 2' 44" W  View metadata report for BODC series reference number 141288
1413071978-08-24 04:50 58° 5' 44" N  12° 2' 44" W  View metadata report for BODC series reference number 141307
1413191978-08-24 04:52 58° 5' 44" N  12° 2' 44" W  View metadata report for BODC series reference number 141319
1413201978-08-24 04:54 58° 5' 44" N  12° 2' 44" W  View metadata report for BODC series reference number 141320
1413321978-08-24 04:56 58° 5' 44" N  12° 2' 44" W  View metadata report for BODC series reference number 141332
1413441978-08-24 04:58 58° 5' 44" N  12° 2' 44" W  View metadata report for BODC series reference number 141344
1413561978-08-24 05:00 58° 5' 44" N  12° 2' 44" W  View metadata report for BODC series reference number 141356
1413681978-08-24 05:02 58° 5' 44" N  12° 2' 44" W  View metadata report for BODC series reference number 141368
1413811978-08-24 05:04 58° 5' 44" N  12° 2' 44" W  View metadata report for BODC series reference number 141381
1413931978-08-24 05:06 58° 5' 44" N  12° 2' 44" W  View metadata report for BODC series reference number 141393
1414001978-08-24 05:08 58° 5' 44" N  12° 2' 44" W  View metadata report for BODC series reference number 141400
1414121978-08-24 05:10 58° 5' 44" N  12° 2' 44" W  View metadata report for BODC series reference number 141412
1414241978-08-24 05:12 58° 5' 44" N  12° 2' 44" W  View metadata report for BODC series reference number 141424
1414361978-08-24 05:14 58° 5' 44" N  12° 2' 44" W  View metadata report for BODC series reference number 141436
1414481978-08-24 05:16 58° 5' 44" N  12° 2' 44" W  View metadata report for BODC series reference number 141448
1414611978-08-24 05:46 58° 5' 44" N  12° 2' 44" W  View metadata report for BODC series reference number 141461
1414731978-08-24 05:48 58° 5' 44" N  12° 2' 44" W  View metadata report for BODC series reference number 141473
1407221978-08-24 01:14 58° 5' 48" N  12° 2' 50" W  View metadata report for BODC series reference number 140722
1407341978-08-24 01:16 58° 5' 48" N  12° 2' 50" W  View metadata report for BODC series reference number 140734
1407461978-08-24 01:46 58° 5' 51" N  12° 2' 57" W  View metadata report for BODC series reference number 140746
1407581978-08-24 01:48 58° 5' 51" N  12° 2' 57" W  View metadata report for BODC series reference number 140758
1407711978-08-24 01:50 58° 5' 51" N  12° 2' 57" W  View metadata report for BODC series reference number 140771
1407831978-08-24 01:52 58° 5' 51" N  12° 2' 57" W  View metadata report for BODC series reference number 140783
1407951978-08-24 01:54 58° 5' 51" N  12° 2' 57" W  View metadata report for BODC series reference number 140795
1408021978-08-24 01:56 58° 5' 51" N  12° 2' 57" W  View metadata report for BODC series reference number 140802
1408141978-08-24 01:58 58° 5' 51" N  12° 2' 57" W  View metadata report for BODC series reference number 140814
1408261978-08-24 02:00 58° 5' 51" N  12° 2' 57" W  View metadata report for BODC series reference number 140826
1408381978-08-24 02:02 58° 5' 51" N  12° 2' 57" W  View metadata report for BODC series reference number 140838
1554681978-08-28 14:31 58° 5' 52" N  12° 2' 47" W  View metadata report for BODC series reference number 155468
1554811978-08-28 14:32 58° 5' 52" N  12° 2' 47" W  View metadata report for BODC series reference number 155481
1554931978-08-28 14:33 58° 5' 52" N  12° 2' 47" W  View metadata report for BODC series reference number 155493
1555001978-08-28 14:34 58° 5' 52" N  12° 2' 47" W  View metadata report for BODC series reference number 155500
1555121978-08-28 14:35 58° 5' 52" N  12° 2' 47" W  View metadata report for BODC series reference number 155512
1555241978-08-28 14:36 58° 5' 52" N  12° 2' 47" W  View metadata report for BODC series reference number 155524
1555361978-08-28 14:37 58° 5' 52" N  12° 2' 47" W  View metadata report for BODC series reference number 155536
1555481978-08-28 14:38 58° 5' 52" N  12° 2' 47" W  View metadata report for BODC series reference number 155548
1555611978-08-28 14:39 58° 5' 52" N  12° 2' 47" W  View metadata report for BODC series reference number 155561
1555731978-08-28 14:40 58° 5' 52" N  12° 2' 47" W  View metadata report for BODC series reference number 155573
1555851978-08-28 14:41 58° 5' 52" N  12° 2' 47" W  View metadata report for BODC series reference number 155585
1555971978-08-28 14:42 58° 5' 52" N  12° 2' 47" W  View metadata report for BODC series reference number 155597
1556041978-08-28 14:43 58° 5' 52" N  12° 2' 47" W  View metadata report for BODC series reference number 155604
1556161978-08-28 14:44 58° 5' 52" N  12° 2' 47" W  View metadata report for BODC series reference number 155616
1556281978-08-28 16:27 58° 5' 50" N  12° 2' 40" W  View metadata report for BODC series reference number 155628
1556411978-08-28 16:29 58° 5' 50" N  12° 2' 40" W  View metadata report for BODC series reference number 155641
1556531978-08-28 16:31 58° 5' 50" N  12° 2' 40" W  View metadata report for BODC series reference number 155653
1556651978-08-28 16:33 58° 5' 50" N  12° 2' 40" W  View metadata report for BODC series reference number 155665
1556771978-08-28 16:35 58° 5' 50" N  12° 2' 40" W  View metadata report for BODC series reference number 155677
1556891978-08-28 16:37 58° 5' 50" N  12° 2' 40" W  View metadata report for BODC series reference number 155689
1549381978-08-28 11:42 58° 5' 52" N  12° 2' 48" W  View metadata report for BODC series reference number 154938
1549511978-08-28 11:44 58° 5' 52" N  12° 2' 48" W  View metadata report for BODC series reference number 154951
1549631978-08-28 11:46 58° 5' 52" N  12° 2' 48" W  View metadata report for BODC series reference number 154963
1549751978-08-28 11:48 58° 5' 52" N  12° 2' 48" W  View metadata report for BODC series reference number 154975
1549871978-08-28 11:50 58° 5' 52" N  12° 2' 48" W  View metadata report for BODC series reference number 154987
1549991978-08-28 11:52 58° 5' 52" N  12° 2' 48" W  View metadata report for BODC series reference number 154999
1550021978-08-28 11:54 58° 5' 52" N  12° 2' 48" W  View metadata report for BODC series reference number 155002
1550141978-08-28 11:56 58° 5' 52" N  12° 2' 48" W  View metadata report for BODC series reference number 155014
1550261978-08-28 11:58 58° 5' 52" N  12° 2' 48" W  View metadata report for BODC series reference number 155026
1550381978-08-28 12:00 58° 5' 52" N  12° 2' 48" W  View metadata report for BODC series reference number 155038
1550511978-08-28 12:02 58° 5' 52" N  12° 2' 48" W  View metadata report for BODC series reference number 155051
1550631978-08-28 12:04 58° 5' 52" N  12° 2' 48" W  View metadata report for BODC series reference number 155063
1550751978-08-28 12:06 58° 5' 52" N  12° 2' 48" W  View metadata report for BODC series reference number 155075
1550871978-08-28 12:08 58° 5' 52" N  12° 2' 48" W  View metadata report for BODC series reference number 155087
1550991978-08-28 12:30 58° 5' 48" N  12° 2' 34" W  View metadata report for BODC series reference number 155099
1551061978-08-28 12:32 58° 5' 48" N  12° 2' 34" W  View metadata report for BODC series reference number 155106
1551181978-08-28 12:34 58° 5' 48" N  12° 2' 34" W  View metadata report for BODC series reference number 155118
1551311978-08-28 12:36 58° 5' 48" N  12° 2' 34" W  View metadata report for BODC series reference number 155131
1551431978-08-28 12:38 58° 5' 48" N  12° 2' 34" W  View metadata report for BODC series reference number 155143
1551551978-08-28 12:40 58° 5' 48" N  12° 2' 34" W  View metadata report for BODC series reference number 155155
1551671978-08-28 12:42 58° 5' 48" N  12° 2' 34" W  View metadata report for BODC series reference number 155167
1551791978-08-28 12:44 58° 5' 48" N  12° 2' 34" W  View metadata report for BODC series reference number 155179
1551801978-08-28 12:46 58° 5' 48" N  12° 2' 34" W  View metadata report for BODC series reference number 155180
1551921978-08-28 12:48 58° 5' 48" N  12° 2' 34" W  View metadata report for BODC series reference number 155192
1552111978-08-28 12:50 58° 5' 48" N  12° 2' 34" W  View metadata report for BODC series reference number 155211
1552231978-08-28 12:52 58° 5' 48" N  12° 2' 34" W  View metadata report for BODC series reference number 155223
1552351978-08-28 12:54 58° 5' 48" N  12° 2' 34" W  View metadata report for BODC series reference number 155235
1552471978-08-28 12:56 58° 5' 48" N  12° 2' 34" W  View metadata report for BODC series reference number 155247
1552591978-08-28 12:58 58° 5' 48" N  12° 2' 34" W  View metadata report for BODC series reference number 155259
1552601978-08-28 13:00 58° 5' 48" N  12° 2' 34" W  View metadata report for BODC series reference number 155260
1552721978-08-28 13:42 58° 5' 53" N  12° 2' 51" W  View metadata report for BODC series reference number 155272
1552841978-08-28 13:44 58° 5' 53" N  12° 2' 51" W  View metadata report for BODC series reference number 155284
1552961978-08-28 13:46 58° 5' 53" N  12° 2' 51" W  View metadata report for BODC series reference number 155296
1553031978-08-28 13:48 58° 5' 53" N  12° 2' 51" W  View metadata report for BODC series reference number 155303
1545701978-08-28 09:28 58° 5' 49" N  12° 2' 45" W  View metadata report for BODC series reference number 154570
1545821978-08-28 09:30 58° 5' 49" N  12° 2' 45" W  View metadata report for BODC series reference number 154582
1545941978-08-28 09:32 58° 5' 49" N  12° 2' 45" W  View metadata report for BODC series reference number 154594
1408511978-08-24 02:04 58° 5' 51" N  12° 2' 57" W  View metadata report for BODC series reference number 140851
1408631978-08-24 02:06 58° 5' 51" N  12° 2' 57" W  View metadata report for BODC series reference number 140863
1408751978-08-24 02:08 58° 5' 51" N  12° 2' 57" W  View metadata report for BODC series reference number 140875
1408871978-08-24 02:10 58° 5' 51" N  12° 2' 57" W  View metadata report for BODC series reference number 140887
1408991978-08-24 02:12 58° 5' 51" N  12° 2' 57" W  View metadata report for BODC series reference number 140899
1409061978-08-24 02:14 58° 5' 51" N  12° 2' 57" W  View metadata report for BODC series reference number 140906
1409181978-08-24 02:16 58° 5' 51" N  12° 2' 57" W  View metadata report for BODC series reference number 140918
1409311978-08-24 02:50 58° 5' 51" N  12° 2' 57" W  View metadata report for BODC series reference number 140931
1409431978-08-24 02:52 58° 5' 51" N  12° 2' 57" W  View metadata report for BODC series reference number 140943
1409551978-08-24 02:54 58° 5' 51" N  12° 2' 57" W  View metadata report for BODC series reference number 140955
1409671978-08-24 02:56 58° 5' 51" N  12° 2' 57" W  View metadata report for BODC series reference number 140967
1409791978-08-24 02:58 58° 5' 51" N  12° 2' 57" W  View metadata report for BODC series reference number 140979
1409801978-08-24 03:00 58° 5' 51" N  12° 2' 57" W  View metadata report for BODC series reference number 140980
1409921978-08-24 03:02 58° 5' 51" N  12° 2' 57" W  View metadata report for BODC series reference number 140992
1410061978-08-24 03:04 58° 5' 51" N  12° 2' 57" W  View metadata report for BODC series reference number 141006
1410181978-08-24 03:06 58° 5' 51" N  12° 2' 57" W  View metadata report for BODC series reference number 141018
1410311978-08-24 03:08 58° 5' 51" N  12° 2' 57" W  View metadata report for BODC series reference number 141031
1410431978-08-24 03:10 58° 5' 51" N  12° 2' 57" W  View metadata report for BODC series reference number 141043
1410551978-08-24 03:12 58° 5' 51" N  12° 2' 57" W  View metadata report for BODC series reference number 141055
1410671978-08-24 03:14 58° 5' 51" N  12° 2' 57" W  View metadata report for BODC series reference number 141067
1410791978-08-24 03:16 58° 5' 51" N  12° 2' 57" W  View metadata report for BODC series reference number 141079
1410801978-08-24 03:18 58° 5' 51" N  12° 2' 57" W  View metadata report for BODC series reference number 141080
1410921978-08-24 03:20 58° 5' 51" N  12° 2' 57" W  View metadata report for BODC series reference number 141092
1403651978-08-23 23:06 58° 5' 48" N  12° 2' 50" W  View metadata report for BODC series reference number 140365
1403771978-08-23 23:08 58° 5' 48" N  12° 2' 50" W  View metadata report for BODC series reference number 140377
1403891978-08-23 23:10 58° 5' 48" N  12° 2' 50" W  View metadata report for BODC series reference number 140389
1403901978-08-23 23:12 58° 5' 48" N  12° 2' 50" W  View metadata report for BODC series reference number 140390
1404081978-08-23 23:14 58° 5' 48" N  12° 2' 50" W  View metadata report for BODC series reference number 140408
1404211978-08-23 23:44 58° 5' 48" N  12° 2' 50" W  View metadata report for BODC series reference number 140421
1404331978-08-23 23:46 58° 5' 48" N  12° 2' 50" W  View metadata report for BODC series reference number 140433
1404451978-08-23 23:48 58° 5' 48" N  12° 2' 50" W  View metadata report for BODC series reference number 140445
1404571978-08-23 23:50 58° 5' 48" N  12° 2' 50" W  View metadata report for BODC series reference number 140457
1404691978-08-23 23:52 58° 5' 48" N  12° 2' 50" W  View metadata report for BODC series reference number 140469
1404701978-08-23 23:54 58° 5' 48" N  12° 2' 50" W  View metadata report for BODC series reference number 140470
1404821978-08-23 23:56 58° 5' 48" N  12° 2' 50" W  View metadata report for BODC series reference number 140482
1404941978-08-23 23:58 58° 5' 48" N  12° 2' 50" W  View metadata report for BODC series reference number 140494
1405011978-08-24 00:00 58° 5' 48" N  12° 2' 50" W  View metadata report for BODC series reference number 140501
1405131978-08-24 00:02 58° 5' 48" N  12° 2' 50" W  View metadata report for BODC series reference number 140513
1405251978-08-24 00:04 58° 5' 48" N  12° 2' 50" W  View metadata report for BODC series reference number 140525
1405371978-08-24 00:06 58° 5' 48" N  12° 2' 50" W  View metadata report for BODC series reference number 140537
1405491978-08-24 00:08 58° 5' 48" N  12° 2' 50" W  View metadata report for BODC series reference number 140549
1405501978-08-24 00:10 58° 5' 48" N  12° 2' 50" W  View metadata report for BODC series reference number 140550
1405621978-08-24 00:12 58° 5' 48" N  12° 2' 50" W  View metadata report for BODC series reference number 140562
1405741978-08-24 00:14 58° 5' 48" N  12° 2' 50" W  View metadata report for BODC series reference number 140574
1405861978-08-24 00:46 58° 5' 48" N  12° 2' 50" W  View metadata report for BODC series reference number 140586
1405981978-08-24 00:48 58° 5' 48" N  12° 2' 50" W  View metadata report for BODC series reference number 140598
1406051978-08-24 00:50 58° 5' 48" N  12° 2' 50" W  View metadata report for BODC series reference number 140605
1406171978-08-24 00:52 58° 5' 48" N  12° 2' 50" W  View metadata report for BODC series reference number 140617
1406291978-08-24 00:54 58° 5' 48" N  12° 2' 50" W  View metadata report for BODC series reference number 140629
1406301978-08-24 00:56 58° 5' 48" N  12° 2' 50" W  View metadata report for BODC series reference number 140630
1406421978-08-24 00:58 58° 5' 48" N  12° 2' 50" W  View metadata report for BODC series reference number 140642
1406541978-08-24 01:00 58° 5' 48" N  12° 2' 50" W  View metadata report for BODC series reference number 140654
1406661978-08-24 01:02 58° 5' 48" N  12° 2' 50" W  View metadata report for BODC series reference number 140666
1406781978-08-24 01:06 58° 5' 48" N  12° 2' 50" W  View metadata report for BODC series reference number 140678
1406911978-08-24 01:08 58° 5' 48" N  12° 2' 50" W  View metadata report for BODC series reference number 140691
1407091978-08-24 01:10 58° 5' 48" N  12° 2' 50" W  View metadata report for BODC series reference number 140709
1407101978-08-24 01:12 58° 5' 48" N  12° 2' 50" W  View metadata report for BODC series reference number 140710
1546011978-08-28 09:34 58° 5' 49" N  12° 2' 45" W  View metadata report for BODC series reference number 154601
1546131978-08-28 09:36 58° 5' 49" N  12° 2' 45" W  View metadata report for BODC series reference number 154613
1546251978-08-28 09:38 58° 5' 49" N  12° 2' 45" W  View metadata report for BODC series reference number 154625
1546371978-08-28 09:40 58° 5' 49" N  12° 2' 45" W  View metadata report for BODC series reference number 154637
1546491978-08-28 09:42 58° 5' 49" N  12° 2' 45" W  View metadata report for BODC series reference number 154649
1546501978-08-28 09:44 58° 5' 49" N  12° 2' 45" W  View metadata report for BODC series reference number 154650
1546621978-08-28 09:46 58° 5' 49" N  12° 2' 45" W  View metadata report for BODC series reference number 154662
1546741978-08-28 09:48 58° 5' 49" N  12° 2' 45" W  View metadata report for BODC series reference number 154674
1546861978-08-28 09:50 58° 5' 49" N  12° 2' 45" W  View metadata report for BODC series reference number 154686
1546981978-08-28 09:52 58° 5' 49" N  12° 2' 45" W  View metadata report for BODC series reference number 154698
1547051978-08-28 09:54 58° 5' 49" N  12° 2' 45" W  View metadata report for BODC series reference number 154705
1547171978-08-28 09:56 58° 5' 49" N  12° 2' 45" W  View metadata report for BODC series reference number 154717
1547291978-08-28 09:58 58° 5' 49" N  12° 2' 45" W  View metadata report for BODC series reference number 154729
1547301978-08-28 10:28 58° 5' 47" N  12° 2' 39" W  View metadata report for BODC series reference number 154730
1547421978-08-28 10:30 58° 5' 47" N  12° 2' 39" W  View metadata report for BODC series reference number 154742
1547541978-08-28 10:32 58° 5' 47" N  12° 2' 39" W  View metadata report for BODC series reference number 154754
1547661978-08-28 10:34 58° 5' 47" N  12° 2' 39" W  View metadata report for BODC series reference number 154766
1547781978-08-28 10:36 58° 5' 47" N  12° 2' 39" W  View metadata report for BODC series reference number 154778
1547911978-08-28 10:38 58° 5' 47" N  12° 2' 39" W  View metadata report for BODC series reference number 154791
1548091978-08-28 10:40 58° 5' 47" N  12° 2' 39" W  View metadata report for BODC series reference number 154809
1548101978-08-28 10:42 58° 5' 47" N  12° 2' 39" W  View metadata report for BODC series reference number 154810
1548221978-08-28 10:44 58° 5' 47" N  12° 2' 39" W  View metadata report for BODC series reference number 154822
1548341978-08-28 10:46 58° 5' 47" N  12° 2' 39" W  View metadata report for BODC series reference number 154834
1548461978-08-28 10:48 58° 5' 47" N  12° 2' 39" W  View metadata report for BODC series reference number 154846
1548581978-08-28 10:50 58° 5' 47" N  12° 2' 39" W  View metadata report for BODC series reference number 154858
1548711978-08-28 10:52 58° 5' 47" N  12° 2' 39" W  View metadata report for BODC series reference number 154871
1548831978-08-28 10:54 58° 5' 47" N  12° 2' 39" W  View metadata report for BODC series reference number 154883
1548951978-08-28 10:56 58° 5' 47" N  12° 2' 39" W  View metadata report for BODC series reference number 154895
1549021978-08-28 10:58 58° 5' 47" N  12° 2' 39" W  View metadata report for BODC series reference number 154902
1549141978-08-28 11:38 58° 5' 52" N  12° 2' 48" W  View metadata report for BODC series reference number 154914
1549261978-08-28 11:40 58° 5' 52" N  12° 2' 48" W  View metadata report for BODC series reference number 154926
1541881978-08-28 07:03 58° 5' 53" N  12° 2' 49" W  View metadata report for BODC series reference number 154188
1542071978-08-28 07:05 58° 5' 53" N  12° 2' 49" W  View metadata report for BODC series reference number 154207
1542191978-08-28 07:28 58° 5' 51" N  12° 2' 45" W  View metadata report for BODC series reference number 154219
1542201978-08-28 07:30 58° 5' 51" N  12° 2' 45" W  View metadata report for BODC series reference number 154220
1542321978-08-28 07:32 58° 5' 51" N  12° 2' 45" W  View metadata report for BODC series reference number 154232
1542441978-08-28 07:34 58° 5' 51" N  12° 2' 45" W  View metadata report for BODC series reference number 154244
1542561978-08-28 07:36 58° 5' 51" N  12° 2' 45" W  View metadata report for BODC series reference number 154256
1542681978-08-28 07:38 58° 5' 51" N  12° 2' 45" W  View metadata report for BODC series reference number 154268
1542811978-08-28 07:40 58° 5' 51" N  12° 2' 45" W  View metadata report for BODC series reference number 154281
1542931978-08-28 07:42 58° 5' 51" N  12° 2' 45" W  View metadata report for BODC series reference number 154293
1543001978-08-28 07:44 58° 5' 51" N  12° 2' 45" W  View metadata report for BODC series reference number 154300
1543121978-08-28 07:46 58° 5' 51" N  12° 2' 45" W  View metadata report for BODC series reference number 154312
1543241978-08-28 07:48 58° 5' 51" N  12° 2' 45" W  View metadata report for BODC series reference number 154324
1543361978-08-28 07:50 58° 5' 51" N  12° 2' 45" W  View metadata report for BODC series reference number 154336
1543481978-08-28 07:52 58° 5' 51" N  12° 2' 45" W  View metadata report for BODC series reference number 154348
1543611978-08-28 07:54 58° 5' 51" N  12° 2' 45" W  View metadata report for BODC series reference number 154361
1543731978-08-28 07:56 58° 5' 51" N  12° 2' 45" W  View metadata report for BODC series reference number 154373
1543851978-08-28 07:58 58° 5' 51" N  12° 2' 45" W  View metadata report for BODC series reference number 154385
1543971978-08-28 08:36 58° 5' 53" N  12° 2' 50" W  View metadata report for BODC series reference number 154397
1544041978-08-28 08:38 58° 5' 53" N  12° 2' 50" W  View metadata report for BODC series reference number 154404
1544161978-08-28 08:40 58° 5' 53" N  12° 2' 50" W  View metadata report for BODC series reference number 154416
1544281978-08-28 08:42 58° 5' 53" N  12° 2' 50" W  View metadata report for BODC series reference number 154428
1544411978-08-28 08:44 58° 5' 53" N  12° 2' 50" W  View metadata report for BODC series reference number 154441
1544531978-08-28 08:46 58° 5' 53" N  12° 2' 50" W  View metadata report for BODC series reference number 154453
1544651978-08-28 08:48 58° 5' 53" N  12° 2' 50" W  View metadata report for BODC series reference number 154465
1544771978-08-28 08:50 58° 5' 53" N  12° 2' 50" W  View metadata report for BODC series reference number 154477
1399781978-08-23 12:07 59° 0' 16" N  12° 2' 55" W  View metadata report for BODC series reference number 139978
1399911978-08-23 12:09 59° 0' 16" N  12° 2' 55" W  View metadata report for BODC series reference number 139991
1400031978-08-23 12:12 59° 0' 16" N  12° 2' 55" W  View metadata report for BODC series reference number 140003
1400151978-08-23 12:14 59° 0' 16" N  12° 2' 55" W  View metadata report for BODC series reference number 140015
1400271978-08-23 12:17 59° 0' 16" N  12° 2' 55" W  View metadata report for BODC series reference number 140027
1400391978-08-23 12:19 59° 0' 16" N  12° 2' 55" W  View metadata report for BODC series reference number 140039
1400401978-08-23 12:22 59° 0' 16" N  12° 2' 55" W  View metadata report for BODC series reference number 140040
1400521978-08-23 21:42 58° 5' 48" N  12° 2' 50" W  View metadata report for BODC series reference number 140052
1400641978-08-23 21:44 58° 5' 48" N  12° 2' 50" W  View metadata report for BODC series reference number 140064
1400761978-08-23 21:46 58° 5' 48" N  12° 2' 50" W  View metadata report for BODC series reference number 140076
1400881978-08-23 21:48 58° 5' 48" N  12° 2' 50" W  View metadata report for BODC series reference number 140088
1401071978-08-23 21:50 58° 5' 48" N  12° 2' 50" W  View metadata report for BODC series reference number 140107
1401191978-08-23 21:52 58° 5' 48" N  12° 2' 50" W  View metadata report for BODC series reference number 140119
1401201978-08-23 21:54 58° 5' 48" N  12° 2' 50" W  View metadata report for BODC series reference number 140120
1401321978-08-23 21:56 58° 5' 48" N  12° 2' 50" W  View metadata report for BODC series reference number 140132
1401441978-08-23 21:58 58° 5' 48" N  12° 2' 50" W  View metadata report for BODC series reference number 140144
1401561978-08-23 22:00 58° 5' 48" N  12° 2' 50" W  View metadata report for BODC series reference number 140156
1401681978-08-23 22:02 58° 5' 48" N  12° 2' 50" W  View metadata report for BODC series reference number 140168
1401811978-08-23 22:04 58° 5' 48" N  12° 2' 50" W  View metadata report for BODC series reference number 140181
1401931978-08-23 22:06 58° 5' 48" N  12° 2' 50" W  View metadata report for BODC series reference number 140193
1402001978-08-23 22:08 58° 5' 48" N  12° 2' 50" W  View metadata report for BODC series reference number 140200
1402121978-08-23 22:10 58° 5' 48" N  12° 2' 50" W  View metadata report for BODC series reference number 140212
1402241978-08-23 22:12 58° 5' 48" N  12° 2' 50" W  View metadata report for BODC series reference number 140224
1402361978-08-23 22:44 58° 5' 48" N  12° 2' 50" W  View metadata report for BODC series reference number 140236
1402481978-08-23 22:46 58° 5' 48" N  12° 2' 50" W  View metadata report for BODC series reference number 140248
1402611978-08-23 22:48 58° 5' 48" N  12° 2' 50" W  View metadata report for BODC series reference number 140261
1402731978-08-23 22:50 58° 5' 48" N  12° 2' 50" W  View metadata report for BODC series reference number 140273
1402851978-08-23 22:52 58° 5' 48" N  12° 2' 50" W  View metadata report for BODC series reference number 140285
1402971978-08-23 22:54 58° 5' 48" N  12° 2' 50" W  View metadata report for BODC series reference number 140297
1403041978-08-23 22:56 58° 5' 48" N  12° 2' 50" W  View metadata report for BODC series reference number 140304
1403161978-08-23 22:58 58° 5' 48" N  12° 2' 50" W  View metadata report for BODC series reference number 140316
1403281978-08-23 23:00 58° 5' 48" N  12° 2' 50" W  View metadata report for BODC series reference number 140328
1403411978-08-23 23:02 58° 5' 48" N  12° 2' 50" W  View metadata report for BODC series reference number 140341
1403531978-08-23 23:04 58° 5' 48" N  12° 2' 50" W  View metadata report for BODC series reference number 140353
1396161978-08-23 09:54 59° 0' 17" N  12° 3' 1" W  View metadata report for BODC series reference number 139616
1396281978-08-23 09:56 59° 0' 17" N  12° 3' 1" W  View metadata report for BODC series reference number 139628
1396411978-08-23 09:58 59° 0' 17" N  12° 3' 1" W  View metadata report for BODC series reference number 139641
1396531978-08-23 10:00 59° 0' 17" N  12° 3' 1" W  View metadata report for BODC series reference number 139653
1396651978-08-23 10:02 59° 0' 17" N  12° 3' 1" W  View metadata report for BODC series reference number 139665
1396771978-08-23 10:04 59° 0' 17" N  12° 3' 1" W  View metadata report for BODC series reference number 139677
1396891978-08-23 10:06 59° 0' 17" N  12° 3' 1" W  View metadata report for BODC series reference number 139689
1396901978-08-23 10:08 59° 0' 17" N  12° 3' 1" W  View metadata report for BODC series reference number 139690
1397081978-08-23 10:10 59° 0' 17" N  12° 3' 1" W  View metadata report for BODC series reference number 139708
1397211978-08-23 10:12 59° 0' 17" N  12° 3' 1" W  View metadata report for BODC series reference number 139721
1397331978-08-23 10:14 59° 0' 17" N  12° 3' 1" W  View metadata report for BODC series reference number 139733
1397451978-08-23 10:16 59° 0' 17" N  12° 3' 1" W  View metadata report for BODC series reference number 139745
1397571978-08-23 10:44 59° 0' 17" N  12° 3' 1" W  View metadata report for BODC series reference number 139757
1397691978-08-23 10:46 59° 0' 17" N  12° 3' 1" W  View metadata report for BODC series reference number 139769
1397701978-08-23 10:48 59° 0' 17" N  12° 3' 1" W  View metadata report for BODC series reference number 139770
1397821978-08-23 10:50 59° 0' 17" N  12° 3' 1" W  View metadata report for BODC series reference number 139782
1397941978-08-23 10:52 59° 0' 17" N  12° 3' 1" W  View metadata report for BODC series reference number 139794
1398011978-08-23 10:54 59° 0' 17" N  12° 3' 1" W  View metadata report for BODC series reference number 139801
1398131978-08-23 10:56 59° 0' 17" N  12° 3' 1" W  View metadata report for BODC series reference number 139813
1398251978-08-23 10:58 59° 0' 17" N  12° 3' 1" W  View metadata report for BODC series reference number 139825
1398371978-08-23 11:00 59° 0' 17" N  12° 3' 1" W  View metadata report for BODC series reference number 139837
1398491978-08-23 11:02 59° 0' 17" N  12° 3' 1" W  View metadata report for BODC series reference number 139849
1398501978-08-23 11:04 59° 0' 17" N  12° 3' 1" W  View metadata report for BODC series reference number 139850
1544891978-08-28 08:52 58° 5' 53" N  12° 2' 50" W  View metadata report for BODC series reference number 154489
1544901978-08-28 08:54 58° 5' 53" N  12° 2' 50" W  View metadata report for BODC series reference number 154490
1545081978-08-28 08:56 58° 5' 53" N  12° 2' 50" W  View metadata report for BODC series reference number 154508
1545211978-08-28 08:58 58° 5' 53" N  12° 2' 50" W  View metadata report for BODC series reference number 154521
1545331978-08-28 09:00 58° 5' 53" N  12° 2' 50" W  View metadata report for BODC series reference number 154533
1545451978-08-28 09:02 58° 5' 53" N  12° 2' 50" W  View metadata report for BODC series reference number 154545
1545571978-08-28 09:04 58° 5' 53" N  12° 2' 50" W  View metadata report for BODC series reference number 154557
1545691978-08-28 09:06 58° 5' 53" N  12° 2' 50" W  View metadata report for BODC series reference number 154569
1538181978-08-28 02:15 58° 5' 52" N  12° 2' 44" W  View metadata report for BODC series reference number 153818
1538311978-08-28 02:20 58° 5' 52" N  12° 2' 44" W  View metadata report for BODC series reference number 153831
1538431978-08-28 02:25 58° 5' 52" N  12° 2' 44" W  View metadata report for BODC series reference number 153843
1538551978-08-28 02:30 58° 5' 52" N  12° 2' 44" W  View metadata report for BODC series reference number 153855
1538671978-08-28 05:30 58° 5' 47" N  12° 2' 30" W  View metadata report for BODC series reference number 153867
1538791978-08-28 05:32 58° 5' 47" N  12° 2' 30" W  View metadata report for BODC series reference number 153879
1538801978-08-28 05:34 58° 5' 47" N  12° 2' 30" W  View metadata report for BODC series reference number 153880
1538921978-08-28 05:36 58° 5' 47" N  12° 2' 30" W  View metadata report for BODC series reference number 153892
1539111978-08-28 05:38 58° 5' 47" N  12° 2' 30" W  View metadata report for BODC series reference number 153911
1539231978-08-28 05:40 58° 5' 47" N  12° 2' 30" W  View metadata report for BODC series reference number 153923
1539351978-08-28 05:42 58° 5' 47" N  12° 2' 30" W  View metadata report for BODC series reference number 153935
1539471978-08-28 05:44 58° 5' 47" N  12° 2' 30" W  View metadata report for BODC series reference number 153947
1539591978-08-28 05:46 58° 5' 47" N  12° 2' 30" W  View metadata report for BODC series reference number 153959
1539601978-08-28 05:48 58° 5' 47" N  12° 2' 30" W  View metadata report for BODC series reference number 153960
1539721978-08-28 05:50 58° 5' 47" N  12° 2' 30" W  View metadata report for BODC series reference number 153972
1539841978-08-28 05:52 58° 5' 47" N  12° 2' 30" W  View metadata report for BODC series reference number 153984
1539961978-08-28 05:54 58° 5' 47" N  12° 2' 30" W  View metadata report for BODC series reference number 153996
1540111978-08-28 05:56 58° 5' 47" N  12° 2' 30" W  View metadata report for BODC series reference number 154011
1540231978-08-28 05:58 58° 5' 47" N  12° 2' 30" W  View metadata report for BODC series reference number 154023
1540351978-08-28 06:00 58° 5' 47" N  12° 2' 30" W  View metadata report for BODC series reference number 154035
1540471978-08-28 06:35 58° 5' 53" N  12° 2' 49" W  View metadata report for BODC series reference number 154047
1540591978-08-28 06:37 58° 5' 53" N  12° 2' 49" W  View metadata report for BODC series reference number 154059
1540601978-08-28 06:39 58° 5' 53" N  12° 2' 49" W  View metadata report for BODC series reference number 154060
1540721978-08-28 06:41 58° 5' 53" N  12° 2' 49" W  View metadata report for BODC series reference number 154072
1540841978-08-28 06:43 58° 5' 53" N  12° 2' 49" W  View metadata report for BODC series reference number 154084
1540961978-08-28 06:45 58° 5' 53" N  12° 2' 49" W  View metadata report for BODC series reference number 154096
1541031978-08-28 06:47 58° 5' 53" N  12° 2' 49" W  View metadata report for BODC series reference number 154103
1541151978-08-28 06:49 58° 5' 53" N  12° 2' 49" W  View metadata report for BODC series reference number 154115
1541271978-08-28 06:51 58° 5' 53" N  12° 2' 49" W  View metadata report for BODC series reference number 154127
1541391978-08-28 06:53 58° 5' 53" N  12° 2' 49" W  View metadata report for BODC series reference number 154139
1541401978-08-28 06:55 58° 5' 53" N  12° 2' 49" W  View metadata report for BODC series reference number 154140
1541521978-08-28 06:57 58° 5' 53" N  12° 2' 49" W  View metadata report for BODC series reference number 154152
1541641978-08-28 06:59 58° 5' 53" N  12° 2' 49" W  View metadata report for BODC series reference number 154164
1541761978-08-28 07:01 58° 5' 53" N  12° 2' 49" W  View metadata report for BODC series reference number 154176
1534491978-08-27 22:22 58° 5' 52" N  12° 2' 47" W  View metadata report for BODC series reference number 153449
1534501978-08-27 22:24 58° 5' 52" N  12° 2' 47" W  View metadata report for BODC series reference number 153450
1534621978-08-27 22:26 58° 5' 52" N  12° 2' 47" W  View metadata report for BODC series reference number 153462
1534741978-08-27 22:28 58° 5' 52" N  12° 2' 47" W  View metadata report for BODC series reference number 153474
1534861978-08-27 22:30 58° 5' 52" N  12° 2' 47" W  View metadata report for BODC series reference number 153486
1534981978-08-27 22:35 58° 5' 52" N  12° 2' 47" W  View metadata report for BODC series reference number 153498
1535051978-08-27 22:40 58° 5' 52" N  12° 2' 47" W  View metadata report for BODC series reference number 153505
1535171978-08-27 22:45 58° 5' 52" N  12° 2' 47" W  View metadata report for BODC series reference number 153517
1535291978-08-27 22:50 58° 5' 52" N  12° 2' 47" W  View metadata report for BODC series reference number 153529
1535301978-08-27 22:55 58° 5' 52" N  12° 2' 47" W  View metadata report for BODC series reference number 153530
1535421978-08-27 23:00 58° 5' 52" N  12° 2' 47" W  View metadata report for BODC series reference number 153542
1535541978-08-27 23:05 58° 5' 52" N  12° 2' 47" W  View metadata report for BODC series reference number 153554
1535661978-08-27 23:10 58° 5' 52" N  12° 2' 47" W  View metadata report for BODC series reference number 153566
1535781978-08-28 00:30 58° 5' 56" N  12° 2' 54" W  View metadata report for BODC series reference number 153578
1535911978-08-28 00:35 58° 5' 56" N  12° 2' 54" W  View metadata report for BODC series reference number 153591
1398621978-08-23 11:06 59° 0' 17" N  12° 3' 1" W  View metadata report for BODC series reference number 139862
1398741978-08-23 11:08 59° 0' 17" N  12° 3' 1" W  View metadata report for BODC series reference number 139874
1398861978-08-23 11:10 59° 0' 17" N  12° 3' 1" W  View metadata report for BODC series reference number 139886
1398981978-08-23 11:12 59° 0' 17" N  12° 3' 1" W  View metadata report for BODC series reference number 139898
1399051978-08-23 11:14 59° 0' 17" N  12° 3' 1" W  View metadata report for BODC series reference number 139905
1399171978-08-23 11:52 59° 0' 16" N  12° 2' 55" W  View metadata report for BODC series reference number 139917
1399291978-08-23 11:54 59° 0' 16" N  12° 2' 55" W  View metadata report for BODC series reference number 139929
1399301978-08-23 11:57 59° 0' 16" N  12° 2' 55" W  View metadata report for BODC series reference number 139930
1399421978-08-23 11:59 59° 0' 16" N  12° 2' 55" W  View metadata report for BODC series reference number 139942
1399541978-08-23 12:02 59° 0' 16" N  12° 2' 55" W  View metadata report for BODC series reference number 139954
1399661978-08-23 12:04 59° 0' 16" N  12° 2' 55" W  View metadata report for BODC series reference number 139966
1392471978-08-23 05:50 58° 5' 51" N  12° 2' 51" W  View metadata report for BODC series reference number 139247
1392591978-08-23 05:52 58° 5' 51" N  12° 2' 51" W  View metadata report for BODC series reference number 139259
1392601978-08-23 05:54 58° 5' 51" N  12° 2' 51" W  View metadata report for BODC series reference number 139260
1392721978-08-23 05:56 58° 5' 51" N  12° 2' 51" W  View metadata report for BODC series reference number 139272
1392841978-08-23 05:58 58° 5' 51" N  12° 2' 51" W  View metadata report for BODC series reference number 139284
1392961978-08-23 06:00 58° 5' 51" N  12° 2' 51" W  View metadata report for BODC series reference number 139296
1393031978-08-23 06:02 58° 5' 51" N  12° 2' 51" W  View metadata report for BODC series reference number 139303
1393151978-08-23 06:04 58° 5' 51" N  12° 2' 51" W  View metadata report for BODC series reference number 139315
1393271978-08-23 06:06 58° 5' 51" N  12° 2' 51" W  View metadata report for BODC series reference number 139327
1393391978-08-23 06:08 58° 5' 51" N  12° 2' 51" W  View metadata report for BODC series reference number 139339
1393401978-08-23 06:10 58° 5' 51" N  12° 2' 51" W  View metadata report for BODC series reference number 139340
1393521978-08-23 06:12 58° 5' 51" N  12° 2' 51" W  View metadata report for BODC series reference number 139352
1393641978-08-23 06:14 58° 5' 51" N  12° 2' 51" W  View metadata report for BODC series reference number 139364
1393761978-08-23 06:16 58° 5' 51" N  12° 2' 51" W  View metadata report for BODC series reference number 139376
1393881978-08-23 06:58 58° 5' 51" N  12° 2' 44" W  View metadata report for BODC series reference number 139388
1394071978-08-23 07:00 58° 5' 51" N  12° 2' 44" W  View metadata report for BODC series reference number 139407
1394191978-08-23 07:02 58° 5' 51" N  12° 2' 44" W  View metadata report for BODC series reference number 139419
1394201978-08-23 07:04 58° 5' 51" N  12° 2' 44" W  View metadata report for BODC series reference number 139420
1394321978-08-23 07:06 58° 5' 51" N  12° 2' 44" W  View metadata report for BODC series reference number 139432
1394441978-08-23 07:08 58° 5' 51" N  12° 2' 44" W  View metadata report for BODC series reference number 139444
1394561978-08-23 07:10 58° 5' 51" N  12° 2' 44" W  View metadata report for BODC series reference number 139456
1394681978-08-23 07:12 58° 5' 51" N  12° 2' 44" W  View metadata report for BODC series reference number 139468
1394811978-08-23 07:14 58° 5' 51" N  12° 2' 44" W  View metadata report for BODC series reference number 139481
1394931978-08-23 07:16 58° 5' 51" N  12° 2' 44" W  View metadata report for BODC series reference number 139493
1395001978-08-23 07:18 58° 5' 51" N  12° 2' 44" W  View metadata report for BODC series reference number 139500
1395121978-08-23 07:20 58° 5' 51" N  12° 2' 44" W  View metadata report for BODC series reference number 139512
1395241978-08-23 07:22 58° 5' 51" N  12° 2' 44" W  View metadata report for BODC series reference number 139524
1395361978-08-23 07:24 58° 5' 51" N  12° 2' 44" W  View metadata report for BODC series reference number 139536
1395481978-08-23 07:26 58° 5' 51" N  12° 2' 44" W  View metadata report for BODC series reference number 139548
1395611978-08-23 07:28 58° 5' 51" N  12° 2' 44" W  View metadata report for BODC series reference number 139561
1395731978-08-23 09:46 59° 0' 17" N  12° 3' 1" W  View metadata report for BODC series reference number 139573
1395851978-08-23 09:48 59° 0' 17" N  12° 3' 1" W  View metadata report for BODC series reference number 139585
1395971978-08-23 09:50 59° 0' 17" N  12° 3' 1" W  View metadata report for BODC series reference number 139597
1396041978-08-23 09:52 59° 0' 17" N  12° 3' 1" W  View metadata report for BODC series reference number 139604
1388581978-08-23 03:48 58° 5' 49" N  12° 2' 49" W  View metadata report for BODC series reference number 138858
1388711978-08-23 03:50 58° 5' 49" N  12° 2' 49" W  View metadata report for BODC series reference number 138871
1388831978-08-23 03:52 58° 5' 49" N  12° 2' 49" W  View metadata report for BODC series reference number 138883
1388951978-08-23 03:54 58° 5' 49" N  12° 2' 49" W  View metadata report for BODC series reference number 138895
1389021978-08-23 03:56 58° 5' 49" N  12° 2' 49" W  View metadata report for BODC series reference number 138902
1389141978-08-23 03:58 58° 5' 49" N  12° 2' 49" W  View metadata report for BODC series reference number 138914
1389261978-08-23 04:00 58° 5' 49" N  12° 2' 49" W  View metadata report for BODC series reference number 138926
1389381978-08-23 04:02 58° 5' 49" N  12° 2' 49" W  View metadata report for BODC series reference number 138938
1389511978-08-23 04:04 58° 5' 49" N  12° 2' 49" W  View metadata report for BODC series reference number 138951
1389631978-08-23 04:06 58° 5' 49" N  12° 2' 49" W  View metadata report for BODC series reference number 138963
1389751978-08-23 04:08 58° 5' 49" N  12° 2' 49" W  View metadata report for BODC series reference number 138975
1389871978-08-23 04:10 58° 5' 49" N  12° 2' 49" W  View metadata report for BODC series reference number 138987
1536091978-08-28 00:40 58° 5' 56" N  12° 2' 54" W  View metadata report for BODC series reference number 153609
1536101978-08-28 00:45 58° 5' 56" N  12° 2' 54" W  View metadata report for BODC series reference number 153610
1536221978-08-28 00:50 58° 5' 56" N  12° 2' 54" W  View metadata report for BODC series reference number 153622
1609441978-08-30 21:12 58° 5' 44" N  12° 2' 41" W  View metadata report for BODC series reference number 160944
1609561978-08-30 23:07 58° 5' 46" N  12° 2' 40" W  View metadata report for BODC series reference number 160956
1609681978-08-31 01:15 58° 5' 46" N  12° 2' 40" W  View metadata report for BODC series reference number 160968
1609811978-08-31 03:09 58° 5' 46" N  12° 2' 40" W  View metadata report for BODC series reference number 160981
1609931978-08-31 05:00 58° 5' 48" N  12° 2' 43" W  View metadata report for BODC series reference number 160993
1610071978-08-31 06:59 58° 5' 48" N  12° 2' 43" W  View metadata report for BODC series reference number 161007
1610191978-08-31 08:59 58° 5' 50" N  12° 2' 49" W  View metadata report for BODC series reference number 161019
1610201978-08-31 10:59 58° 5' 50" N  12° 2' 49" W  View metadata report for BODC series reference number 161020
1610321978-08-31 12:57 58° 5' 46" N  12° 2' 52" W  View metadata report for BODC series reference number 161032
1610441978-08-31 14:59 58° 5' 46" N  12° 2' 52" W  View metadata report for BODC series reference number 161044
1610561978-08-31 16:59 58° 5' 46" N  12° 2' 52" W  View metadata report for BODC series reference number 161056
1610681978-08-31 18:56 58° 5' 46" N  12° 2' 52" W  View metadata report for BODC series reference number 161068
1610811978-08-31 21:00 58° 5' 46" N  12° 2' 52" W  View metadata report for BODC series reference number 161081
1610931978-08-31 22:59 58° 5' 46" N  12° 2' 52" W  View metadata report for BODC series reference number 161093
1611001978-09-01 00:59 58° 5' 46" N  12° 2' 52" W  View metadata report for BODC series reference number 161100
1611121978-09-01 02:59 58° 5' 46" N  12° 2' 52" W  View metadata report for BODC series reference number 161112
1611241978-09-01 04:59 58° 5' 46" N  12° 2' 52" W  View metadata report for BODC series reference number 161124
1611361978-09-01 04:59 58° 5' 46" N  12° 2' 52" W  View metadata report for BODC series reference number 161136
1611481978-09-01 06:59 58° 5' 46" N  12° 2' 52" W  View metadata report for BODC series reference number 161148
1611611978-09-01 08:59 58° 5' 46" N  12° 2' 52" W  View metadata report for BODC series reference number 161161
1611731978-09-01 10:59 58° 5' 46" N  12° 2' 52" W  View metadata report for BODC series reference number 161173
1611851978-09-01 13:01 58° 5' 46" N  12° 2' 52" W  View metadata report for BODC series reference number 161185
1611971978-09-01 15:00 58° 5' 46" N  12° 2' 52" W  View metadata report for BODC series reference number 161197
1612041978-09-01 17:00 58° 5' 46" N  12° 2' 52" W  View metadata report for BODC series reference number 161204
1612161978-09-01 19:05 58° 5' 46" N  12° 2' 52" W  View metadata report for BODC series reference number 161216
1612281978-09-01 20:59 58° 5' 46" N  12° 2' 52" W  View metadata report for BODC series reference number 161228
1612411978-09-01 23:00 58° 5' 46" N  12° 2' 52" W  View metadata report for BODC series reference number 161241
1612531978-09-02 01:08 58° 5' 47" N  12° 2' 40" W  View metadata report for BODC series reference number 161253
1612651978-09-02 02:59 58° 5' 47" N  12° 2' 40" W  View metadata report for BODC series reference number 161265
1612771978-09-02 10:15 59° 2' 36" N  12° 2' 43" W  View metadata report for BODC series reference number 161277
1612891978-09-02 10:44 59° 2' 36" N  12° 2' 43" W  View metadata report for BODC series reference number 161289
1612901978-09-02 10:49 59° 2' 36" N  12° 2' 43" W  View metadata report for BODC series reference number 161290
1613081978-09-02 10:54 59° 2' 36" N  12° 2' 43" W  View metadata report for BODC series reference number 161308
1613211978-09-02 10:59 59° 2' 36" N  12° 2' 43" W  View metadata report for BODC series reference number 161321
1613331978-09-02 11:04 59° 2' 36" N  12° 2' 43" W  View metadata report for BODC series reference number 161333
1613451978-09-02 11:09 59° 2' 36" N  12° 2' 43" W  View metadata report for BODC series reference number 161345
1613571978-09-02 11:14 59° 2' 36" N  12° 2' 43" W  View metadata report for BODC series reference number 161357
1613691978-09-02 11:19 59° 2' 36" N  12° 2' 43" W  View metadata report for BODC series reference number 161369
1613701978-09-02 11:24 59° 2' 36" N  12° 2' 43" W  View metadata report for BODC series reference number 161370
1613821978-09-02 11:29 59° 2' 36" N  12° 2' 43" W  View metadata report for BODC series reference number 161382
1613941978-09-02 11:34 59° 2' 36" N  12° 2' 43" W  View metadata report for BODC series reference number 161394
1614011978-09-02 11:40 59° 2' 36" N  12° 2' 43" W  View metadata report for BODC series reference number 161401
1614131978-09-02 11:44 59° 2' 36" N  12° 2' 43" W  View metadata report for BODC series reference number 161413
1614251978-09-02 12:30 59° 2' 36" N  12° 2' 43" W  View metadata report for BODC series reference number 161425
1614371978-09-02 12:34 59° 2' 36" N  12° 2' 43" W  View metadata report for BODC series reference number 161437
1614491978-09-02 12:40 59° 2' 36" N  12° 2' 43" W  View metadata report for BODC series reference number 161449
1614501978-09-02 12:44 59° 2' 36" N  12° 2' 43" W  View metadata report for BODC series reference number 161450
1614621978-09-02 12:49 59° 2' 36" N  12° 2' 43" W  View metadata report for BODC series reference number 161462
1614741978-09-02 12:54 59° 2' 36" N  12° 2' 43" W  View metadata report for BODC series reference number 161474
1614861978-09-02 12:59 59° 2' 36" N  12° 2' 43" W  View metadata report for BODC series reference number 161486
1614981978-09-02 13:04 59° 2' 36" N  12° 2' 43" W  View metadata report for BODC series reference number 161498
1615051978-09-02 13:09 59° 2' 36" N  12° 2' 43" W  View metadata report for BODC series reference number 161505
1615171978-09-02 13:14 59° 2' 36" N  12° 2' 43" W  View metadata report for BODC series reference number 161517
1615291978-09-02 13:19 59° 2' 37" N  12° 2' 41" W  View metadata report for BODC series reference number 161529
1223341978-08-04 10:19 58° 5' 57" N  12° 2' 27" W  View metadata report for BODC series reference number 122334
1223461978-08-04 10:21 58° 5' 57" N  12° 2' 27" W  View metadata report for BODC series reference number 122346
1223581978-08-04 10:23 58° 5' 57" N  12° 2' 27" W  View metadata report for BODC series reference number 122358
1223711978-08-04 10:25 58° 5' 57" N  12° 2' 27" W  View metadata report for BODC series reference number 122371
1223831978-08-04 10:27 58° 5' 57" N  12° 2' 27" W  View metadata report for BODC series reference number 122383
1223951978-08-04 10:29 58° 5' 57" N  12° 2' 27" W  View metadata report for BODC series reference number 122395
1224021978-08-04 10:31 58° 5' 57" N  12° 2' 27" W  View metadata report for BODC series reference number 122402
1224141978-08-04 10:33 58° 5' 57" N  12° 2' 27" W  View metadata report for BODC series reference number 122414
1224261978-08-04 10:35 58° 5' 57" N  12° 2' 27" W  View metadata report for BODC series reference number 122426
1224381978-08-04 10:37 58° 5' 57" N  12° 2' 27" W  View metadata report for BODC series reference number 122438
1224511978-08-04 10:39 58° 5' 57" N  12° 2' 27" W  View metadata report for BODC series reference number 122451
1224631978-08-04 10:41 58° 5' 57" N  12° 2' 27" W  View metadata report for BODC series reference number 122463
1224751978-08-04 10:43 58° 5' 57" N  12° 2' 27" W  View metadata report for BODC series reference number 122475
1224871978-08-04 10:45 58° 5' 57" N  12° 2' 27" W  View metadata report for BODC series reference number 122487
1224991978-08-04 10:47 58° 5' 57" N  12° 2' 27" W  View metadata report for BODC series reference number 122499
1225061978-08-04 10:49 58° 5' 57" N  12° 2' 27" W  View metadata report for BODC series reference number 122506
1225181978-08-04 10:51 58° 5' 57" N  12° 2' 27" W  View metadata report for BODC series reference number 122518
1225311978-08-04 10:53 58° 5' 57" N  12° 2' 27" W  View metadata report for BODC series reference number 122531
1225431978-08-04 10:55 58° 5' 57" N  12° 2' 27" W  View metadata report for BODC series reference number 122543
1225551978-08-04 10:57 58° 5' 57" N  12° 2' 27" W  View metadata report for BODC series reference number 122555
1225671978-08-04 10:59 58° 5' 57" N  12° 2' 27" W  View metadata report for BODC series reference number 122567
1225791978-08-04 11:01 58° 5' 57" N  12° 2' 27" W  View metadata report for BODC series reference number 122579
1225801978-08-04 11:03 58° 5' 57" N  12° 2' 27" W  View metadata report for BODC series reference number 122580
1225921978-08-04 11:05 58° 5' 57" N  12° 2' 27" W  View metadata report for BODC series reference number 122592
1226111978-08-04 11:07 58° 5' 57" N  12° 2' 27" W  View metadata report for BODC series reference number 122611
1226231978-08-04 11:09 58° 5' 57" N  12° 2' 27" W  View metadata report for BODC series reference number 122623
1226351978-08-04 11:11 58° 5' 57" N  12° 2' 27" W  View metadata report for BODC series reference number 122635
1226471978-08-04 11:13 58° 5' 57" N  12° 2' 27" W  View metadata report for BODC series reference number 122647
1226591978-08-04 11:15 58° 5' 57" N  12° 2' 27" W  View metadata report for BODC series reference number 122659
1389991978-08-23 04:12 58° 5' 49" N  12° 2' 49" W  View metadata report for BODC series reference number 138999
1390021978-08-23 04:14 58° 5' 49" N  12° 2' 49" W  View metadata report for BODC series reference number 139002
1390141978-08-23 04:16 58° 5' 49" N  12° 2' 49" W  View metadata report for BODC series reference number 139014
1390261978-08-23 04:18 58° 5' 49" N  12° 2' 49" W  View metadata report for BODC series reference number 139026
1390381978-08-23 04:48 58° 5' 51" N  12° 2' 51" W  View metadata report for BODC series reference number 139038
1390511978-08-23 04:50 58° 5' 51" N  12° 2' 51" W  View metadata report for BODC series reference number 139051
1509131978-08-26 22:02 58° 5' 53" N  12° 2' 50" W  View metadata report for BODC series reference number 150913
1509251978-08-26 22:04 58° 5' 53" N  12° 2' 50" W  View metadata report for BODC series reference number 150925
1509371978-08-26 22:06 58° 5' 53" N  12° 2' 50" W  View metadata report for BODC series reference number 150937
1509491978-08-26 22:08 58° 5' 53" N  12° 2' 50" W  View metadata report for BODC series reference number 150949
1509501978-08-26 22:10 58° 5' 53" N  12° 2' 50" W  View metadata report for BODC series reference number 150950
1509621978-08-26 22:12 58° 5' 53" N  12° 2' 50" W  View metadata report for BODC series reference number 150962
1509741978-08-26 22:14 58° 5' 53" N  12° 2' 50" W  View metadata report for BODC series reference number 150974
1509861978-08-26 22:16 58° 5' 53" N  12° 2' 50" W  View metadata report for BODC series reference number 150986
1509981978-08-26 22:18 58° 5' 53" N  12° 2' 50" W  View metadata report for BODC series reference number 150998
1510011978-08-26 22:20 58° 5' 53" N  12° 2' 50" W  View metadata report for BODC series reference number 151001
1510131978-08-26 22:22 58° 5' 53" N  12° 2' 50" W  View metadata report for BODC series reference number 151013
1510251978-08-26 22:24 58° 5' 53" N  12° 2' 50" W  View metadata report for BODC series reference number 151025
1510371978-08-26 22:26 58° 5' 53" N  12° 2' 50" W  View metadata report for BODC series reference number 151037
1510491978-08-26 22:28 58° 5' 53" N  12° 2' 50" W  View metadata report for BODC series reference number 151049
1510501978-08-26 22:30 58° 5' 53" N  12° 2' 50" W  View metadata report for BODC series reference number 151050
1510621978-08-26 22:52 58° 5' 53" N  12° 2' 50" W  View metadata report for BODC series reference number 151062
1510741978-08-26 22:54 58° 5' 53" N  12° 2' 50" W  View metadata report for BODC series reference number 151074
1510861978-08-26 22:56 58° 5' 53" N  12° 2' 50" W  View metadata report for BODC series reference number 151086
1510981978-08-26 22:58 58° 5' 53" N  12° 2' 50" W  View metadata report for BODC series reference number 151098
1511051978-08-26 23:00 58° 5' 53" N  12° 2' 50" W  View metadata report for BODC series reference number 151105
1511171978-08-26 23:02 58° 5' 53" N  12° 2' 50" W  View metadata report for BODC series reference number 151117
1511291978-08-26 23:04 58° 5' 53" N  12° 2' 50" W  View metadata report for BODC series reference number 151129
1511301978-08-26 23:06 58° 5' 53" N  12° 2' 50" W  View metadata report for BODC series reference number 151130
1511421978-08-27 00:30 58° 5' 50" N  12° 2' 40" W  View metadata report for BODC series reference number 151142
1511541978-08-27 00:32 58° 5' 50" N  12° 2' 40" W  View metadata report for BODC series reference number 151154
1511661978-08-27 00:34 58° 5' 50" N  12° 2' 40" W  View metadata report for BODC series reference number 151166
1511781978-08-27 00:36 58° 5' 50" N  12° 2' 40" W  View metadata report for BODC series reference number 151178
1504521978-08-26 19:42 58° 5' 48" N  12° 2' 50" W  View metadata report for BODC series reference number 150452
1504641978-08-26 19:44 58° 5' 48" N  12° 2' 50" W  View metadata report for BODC series reference number 150464
1504761978-08-26 19:46 58° 5' 48" N  12° 2' 50" W  View metadata report for BODC series reference number 150476
1504881978-08-26 19:48 58° 5' 48" N  12° 2' 50" W  View metadata report for BODC series reference number 150488
1505071978-08-26 19:50 58° 5' 48" N  12° 2' 50" W  View metadata report for BODC series reference number 150507
1505191978-08-26 19:52 58° 5' 48" N  12° 2' 50" W  View metadata report for BODC series reference number 150519
1505201978-08-26 19:54 58° 5' 48" N  12° 2' 50" W  View metadata report for BODC series reference number 150520
1505321978-08-26 19:56 58° 5' 48" N  12° 2' 50" W  View metadata report for BODC series reference number 150532
1505441978-08-26 19:58 58° 5' 48" N  12° 2' 50" W  View metadata report for BODC series reference number 150544
1505561978-08-26 20:32 58° 5' 53" N  12° 2' 50" W  View metadata report for BODC series reference number 150556
1505681978-08-26 20:36 58° 5' 53" N  12° 2' 50" W  View metadata report for BODC series reference number 150568
1505811978-08-26 20:38 58° 5' 53" N  12° 2' 50" W  View metadata report for BODC series reference number 150581
1505931978-08-26 20:40 58° 5' 53" N  12° 2' 50" W  View metadata report for BODC series reference number 150593
1506001978-08-26 20:42 58° 5' 53" N  12° 2' 50" W  View metadata report for BODC series reference number 150600
1506121978-08-26 20:44 58° 5' 53" N  12° 2' 50" W  View metadata report for BODC series reference number 150612
1506241978-08-26 20:46 58° 5' 53" N  12° 2' 50" W  View metadata report for BODC series reference number 150624
1506361978-08-26 20:48 58° 5' 53" N  12° 2' 50" W  View metadata report for BODC series reference number 150636
1506481978-08-26 20:50 58° 5' 53" N  12° 2' 50" W  View metadata report for BODC series reference number 150648
1506611978-08-26 20:52 58° 5' 53" N  12° 2' 50" W  View metadata report for BODC series reference number 150661
1506731978-08-26 20:54 58° 5' 53" N  12° 2' 50" W  View metadata report for BODC series reference number 150673
1506851978-08-26 20:56 58° 5' 53" N  12° 2' 50" W  View metadata report for BODC series reference number 150685
1506971978-08-26 20:58 58° 5' 53" N  12° 2' 50" W  View metadata report for BODC series reference number 150697
1507041978-08-26 21:00 58° 5' 53" N  12° 2' 50" W  View metadata report for BODC series reference number 150704
1507161978-08-26 21:02 58° 5' 53" N  12° 2' 50" W  View metadata report for BODC series reference number 150716
1615301978-09-02 13:24 59° 2' 37" N  12° 2' 41" W  View metadata report for BODC series reference number 161530
1615421978-09-02 13:29 59° 2' 37" N  12° 2' 41" W  View metadata report for BODC series reference number 161542
1615541978-09-02 13:34 59° 2' 37" N  12° 2' 41" W  View metadata report for BODC series reference number 161554
1615661978-09-02 13:39 59° 2' 37" N  12° 2' 41" W  View metadata report for BODC series reference number 161566
1615781978-09-02 13:44 59° 2' 37" N  12° 2' 41" W  View metadata report for BODC series reference number 161578
1615911978-09-02 13:49 59° 2' 37" N  12° 2' 41" W  View metadata report for BODC series reference number 161591
1616091978-09-02 13:54 59° 2' 37" N  12° 2' 41" W  View metadata report for BODC series reference number 161609
1616101978-09-02 13:59 59° 2' 37" N  12° 2' 41" W  View metadata report for BODC series reference number 161610
1616221978-09-02 14:04 59° 2' 37" N  12° 2' 41" W  View metadata report for BODC series reference number 161622
1616341978-09-02 14:09 59° 2' 37" N  12° 2' 41" W  View metadata report for BODC series reference number 161634
1616461978-09-02 14:14 59° 2' 37" N  12° 2' 41" W  View metadata report for BODC series reference number 161646
1616581978-09-02 14:19 59° 2' 37" N  12° 2' 41" W  View metadata report for BODC series reference number 161658
1616711978-09-02 14:24 59° 2' 37" N  12° 2' 41" W  View metadata report for BODC series reference number 161671
1616831978-09-02 14:29 59° 2' 37" N  12° 2' 41" W  View metadata report for BODC series reference number 161683
1616951978-09-02 14:34 59° 2' 37" N  12° 2' 41" W  View metadata report for BODC series reference number 161695
1617021978-09-02 14:39 59° 2' 37" N  12° 2' 41" W  View metadata report for BODC series reference number 161702
1617141978-09-02 14:44 59° 2' 37" N  12° 2' 41" W  View metadata report for BODC series reference number 161714
1617261978-09-02 14:49 59° 2' 37" N  12° 2' 41" W  View metadata report for BODC series reference number 161726
1617381978-09-02 14:54 59° 2' 37" N  12° 2' 41" W  View metadata report for BODC series reference number 161738
1617511978-09-02 14:59 59° 2' 37" N  12° 2' 41" W  View metadata report for BODC series reference number 161751
1617631978-09-02 15:04 59° 2' 37" N  12° 2' 41" W  View metadata report for BODC series reference number 161763
1617751978-09-02 15:09 59° 2' 37" N  12° 2' 41" W  View metadata report for BODC series reference number 161775
1617871978-09-02 15:14 59° 2' 37" N  12° 2' 41" W  View metadata report for BODC series reference number 161787
1617991978-09-02 15:19 59° 2' 37" N  12° 2' 41" W  View metadata report for BODC series reference number 161799
1618061978-09-02 15:24 59° 2' 37" N  12° 2' 41" W  View metadata report for BODC series reference number 161806
1618181978-09-02 15:29 59° 2' 37" N  12° 2' 41" W  View metadata report for BODC series reference number 161818
1618311978-09-02 15:34 59° 2' 37" N  12° 2' 41" W  View metadata report for BODC series reference number 161831
1618431978-09-02 15:39 59° 2' 37" N  12° 2' 41" W  View metadata report for BODC series reference number 161843
1618551978-09-02 15:44 59° 2' 37" N  12° 2' 41" W  View metadata report for BODC series reference number 161855
1618671978-09-02 15:49 59° 2' 37" N  12° 2' 41" W  View metadata report for BODC series reference number 161867
1618791978-09-02 15:55 59° 2' 37" N  12° 2' 41" W  View metadata report for BODC series reference number 161879
1618801978-09-02 15:59 59° 2' 37" N  12° 2' 41" W  View metadata report for BODC series reference number 161880
1618921978-09-02 16:05 59° 2' 37" N  12° 2' 41" W  View metadata report for BODC series reference number 161892
1619111978-09-02 16:09 59° 2' 37" N  12° 2' 41" W  View metadata report for BODC series reference number 161911
1619231978-09-02 16:15 59° 2' 37" N  12° 2' 41" W  View metadata report for BODC series reference number 161923
1619351978-09-02 16:20 59° 2' 37" N  12° 2' 41" W  View metadata report for BODC series reference number 161935
1619471978-09-02 16:25 59° 2' 37" N  12° 2' 41" W  View metadata report for BODC series reference number 161947
1619591978-09-02 16:30 59° 2' 37" N  12° 2' 41" W  View metadata report for BODC series reference number 161959
1619601978-09-02 16:35 59° 2' 37" N  12° 2' 41" W  View metadata report for BODC series reference number 161960
1619721978-09-02 16:40 59° 2' 37" N  12° 2' 41" W  View metadata report for BODC series reference number 161972
1619841978-09-02 16:45 59° 2' 37" N  12° 2' 41" W  View metadata report for BODC series reference number 161984
1619961978-09-02 16:50 59° 2' 37" N  12° 2' 41" W  View metadata report for BODC series reference number 161996
1620111978-09-02 16:55 59° 2' 37" N  12° 2' 41" W  View metadata report for BODC series reference number 162011
1620231978-09-02 17:00 59° 2' 37" N  12° 2' 41" W  View metadata report for BODC series reference number 162023
1620351978-09-02 17:05 59° 2' 37" N  12° 2' 41" W  View metadata report for BODC series reference number 162035
1620471978-09-02 17:10 59° 2' 37" N  12° 2' 41" W  View metadata report for BODC series reference number 162047
1620591978-09-02 17:14 59° 2' 37" N  12° 2' 41" W  View metadata report for BODC series reference number 162059
1620601978-09-02 17:19 59° 2' 37" N  12° 2' 41" W  View metadata report for BODC series reference number 162060
1620721978-09-02 17:25 59° 2' 37" N  12° 2' 41" W  View metadata report for BODC series reference number 162072
1620841978-09-02 17:30 59° 2' 37" N  12° 2' 41" W  View metadata report for BODC series reference number 162084
1620961978-09-02 17:34 59° 2' 37" N  12° 2' 41" W  View metadata report for BODC series reference number 162096
1621031978-09-02 17:39 59° 2' 37" N  12° 2' 41" W  View metadata report for BODC series reference number 162103
1621151978-09-02 17:44 59° 2' 37" N  12° 2' 41" W  View metadata report for BODC series reference number 162115
1621271978-09-02 17:49 59° 2' 37" N  12° 2' 41" W  View metadata report for BODC series reference number 162127
1621391978-09-02 17:54 59° 2' 37" N  12° 2' 41" W  View metadata report for BODC series reference number 162139
1621401978-09-02 18:00 59° 2' 37" N  12° 2' 41" W  View metadata report for BODC series reference number 162140
1621521978-09-02 18:05 59° 2' 37" N  12° 2' 41" W  View metadata report for BODC series reference number 162152
1226601978-08-04 11:17 58° 5' 57" N  12° 2' 27" W  View metadata report for BODC series reference number 122660
1226721978-08-04 11:19 58° 5' 57" N  12° 2' 27" W  View metadata report for BODC series reference number 122672
1226841978-08-04 11:21 58° 5' 57" N  12° 2' 27" W  View metadata report for BODC series reference number 122684
1226961978-08-04 11:23 58° 5' 57" N  12° 2' 27" W  View metadata report for BODC series reference number 122696
1227031978-08-04 11:25 58° 5' 57" N  12° 2' 27" W  View metadata report for BODC series reference number 122703
1227151978-08-04 11:27 58° 5' 57" N  12° 2' 27" W  View metadata report for BODC series reference number 122715
1227271978-08-04 11:29 58° 5' 57" N  12° 2' 27" W  View metadata report for BODC series reference number 122727
1227391978-08-04 11:31 58° 5' 57" N  12° 2' 27" W  View metadata report for BODC series reference number 122739
1227401978-08-04 11:33 58° 5' 57" N  12° 2' 27" W  View metadata report for BODC series reference number 122740
1227521978-08-04 11:35 58° 5' 57" N  12° 2' 27" W  View metadata report for BODC series reference number 122752
1227641978-08-05 12:03 58° 5' 57" N  12° 2' 53" W  View metadata report for BODC series reference number 122764
1227761978-08-05 15:00 58° 5' 46" N  12° 3' 13" W  View metadata report for BODC series reference number 122776
1227881978-08-05 15:19 58° 5' 46" N  12° 3' 13" W  View metadata report for BODC series reference number 122788
1228071978-08-05 15:21 58° 5' 46" N  12° 3' 13" W  View metadata report for BODC series reference number 122807
1228191978-08-05 15:23 58° 5' 46" N  12° 3' 13" W  View metadata report for BODC series reference number 122819
1228201978-08-05 15:25 58° 5' 46" N  12° 3' 13" W  View metadata report for BODC series reference number 122820
1228321978-08-05 15:27 58° 5' 46" N  12° 3' 13" W  View metadata report for BODC series reference number 122832
1228441978-08-05 15:29 58° 5' 46" N  12° 3' 13" W  View metadata report for BODC series reference number 122844
1228561978-08-05 15:31 58° 5' 46" N  12° 3' 13" W  View metadata report for BODC series reference number 122856
1228681978-08-05 15:33 58° 5' 46" N  12° 3' 13" W  View metadata report for BODC series reference number 122868
1228811978-08-05 15:35 58° 5' 46" N  12° 3' 13" W  View metadata report for BODC series reference number 122881
1228931978-08-05 15:37 58° 5' 46" N  12° 3' 13" W  View metadata report for BODC series reference number 122893
1229001978-08-05 15:39 58° 5' 46" N  12° 3' 13" W  View metadata report for BODC series reference number 122900
1229121978-08-05 15:41 58° 5' 46" N  12° 3' 13" W  View metadata report for BODC series reference number 122912
1229241978-08-05 15:43 58° 5' 46" N  12° 3' 13" W  View metadata report for BODC series reference number 122924
1229361978-08-05 15:45 58° 5' 46" N  12° 3' 13" W  View metadata report for BODC series reference number 122936
1229481978-08-05 15:47 58° 5' 46" N  12° 3' 13" W  View metadata report for BODC series reference number 122948
1229611978-08-05 15:49 58° 5' 46" N  12° 3' 13" W  View metadata report for BODC series reference number 122961
1229731978-08-05 15:51 58° 5' 46" N  12° 3' 13" W  View metadata report for BODC series reference number 122973
1229851978-08-05 15:53 58° 5' 46" N  12° 3' 13" W  View metadata report for BODC series reference number 122985
1229971978-08-05 15:55 58° 5' 46" N  12° 3' 13" W  View metadata report for BODC series reference number 122997
1230001978-08-05 15:57 58° 5' 46" N  12° 3' 13" W  View metadata report for BODC series reference number 123000
1230121978-08-05 15:59 58° 5' 46" N  12° 3' 13" W  View metadata report for BODC series reference number 123012
1230241978-08-05 16:01 58° 5' 46" N  12° 3' 13" W  View metadata report for BODC series reference number 123024
1230361978-08-05 16:03 58° 5' 46" N  12° 3' 13" W  View metadata report for BODC series reference number 123036
1230481978-08-05 16:05 58° 5' 46" N  12° 3' 13" W  View metadata report for BODC series reference number 123048
1230611978-08-05 16:07 58° 5' 46" N  12° 3' 13" W  View metadata report for BODC series reference number 123061
1230731978-08-05 16:09 58° 5' 46" N  12° 3' 13" W  View metadata report for BODC series reference number 123073
1230851978-08-05 16:11 58° 5' 46" N  12° 3' 13" W  View metadata report for BODC series reference number 123085
1230971978-08-05 16:13 58° 5' 46" N  12° 3' 13" W  View metadata report for BODC series reference number 123097
1231041978-08-05 16:15 58° 5' 46" N  12° 3' 13" W  View metadata report for BODC series reference number 123104
1231161978-08-05 16:17 58° 5' 46" N  12° 3' 13" W  View metadata report for BODC series reference number 123116
1231281978-08-05 16:19 58° 5' 46" N  12° 3' 13" W  View metadata report for BODC series reference number 123128
1231411978-08-05 16:21 58° 5' 46" N  12° 3' 13" W  View metadata report for BODC series reference number 123141
1231531978-08-05 16:23 58° 5' 46" N  12° 3' 13" W  View metadata report for BODC series reference number 123153
1231651978-08-05 16:25 58° 5' 46" N  12° 3' 13" W  View metadata report for BODC series reference number 123165
1231771978-08-05 16:27 58° 5' 46" N  12° 3' 13" W  View metadata report for BODC series reference number 123177
1231891978-08-05 16:29 58° 5' 46" N  12° 3' 13" W  View metadata report for BODC series reference number 123189
1231901978-08-05 16:31 58° 5' 46" N  12° 3' 13" W  View metadata report for BODC series reference number 123190
1232081978-08-05 16:33 58° 5' 46" N  12° 3' 13" W  View metadata report for BODC series reference number 123208
1232211978-08-05 16:35 58° 5' 46" N  12° 3' 13" W  View metadata report for BODC series reference number 123221
1232331978-08-05 16:37 58° 5' 46" N  12° 3' 13" W  View metadata report for BODC series reference number 123233
1232451978-08-05 16:39 58° 5' 46" N  12° 3' 13" W  View metadata report for BODC series reference number 123245
1232571978-08-05 16:41 58° 5' 46" N  12° 3' 13" W  View metadata report for BODC series reference number 123257
1232691978-08-05 16:43 58° 5' 46" N  12° 3' 13" W  View metadata report for BODC series reference number 123269
1232701978-08-05 16:45 58° 5' 46" N  12° 3' 13" W  View metadata report for BODC series reference number 123270
1232821978-08-05 16:47 58° 5' 46" N  12° 3' 13" W  View metadata report for BODC series reference number 123282
1507281978-08-26 21:28 58° 5' 53" N  12° 2' 50" W  View metadata report for BODC series reference number 150728
1507411978-08-26 21:30 58° 5' 53" N  12° 2' 50" W  View metadata report for BODC series reference number 150741
1507531978-08-26 21:32 58° 5' 53" N  12° 2' 50" W  View metadata report for BODC series reference number 150753
1507651978-08-26 21:34 58° 5' 53" N  12° 2' 50" W  View metadata report for BODC series reference number 150765
1507771978-08-26 21:36 58° 5' 53" N  12° 2' 50" W  View metadata report for BODC series reference number 150777
1507891978-08-26 21:38 58° 5' 53" N  12° 2' 50" W  View metadata report for BODC series reference number 150789
1507901978-08-26 21:40 58° 5' 53" N  12° 2' 50" W  View metadata report for BODC series reference number 150790
1508081978-08-26 21:42 58° 5' 53" N  12° 2' 50" W  View metadata report for BODC series reference number 150808
1508211978-08-26 21:44 58° 5' 53" N  12° 2' 50" W  View metadata report for BODC series reference number 150821
1508331978-08-26 21:46 58° 5' 53" N  12° 2' 50" W  View metadata report for BODC series reference number 150833
1500831978-08-26 17:34 58° 5' 48" N  12° 2' 50" W  View metadata report for BODC series reference number 150083
1500951978-08-26 17:36 58° 5' 48" N  12° 2' 50" W  View metadata report for BODC series reference number 150095
1501021978-08-26 12:00 58° 5' 48" N  12° 2' 50" W  View metadata report for BODC series reference number 150102
1501141978-08-26 12:00 58° 5' 48" N  12° 2' 50" W  View metadata report for BODC series reference number 150114
1501261978-08-26 12:00 58° 5' 48" N  12° 2' 50" W  View metadata report for BODC series reference number 150126
1501381978-08-26 17:44 58° 5' 48" N  12° 2' 50" W  View metadata report for BODC series reference number 150138
1501511978-08-26 12:00 58° 5' 48" N  12° 2' 50" W  View metadata report for BODC series reference number 150151
1501631978-08-26 12:00 58° 5' 48" N  12° 2' 50" W  View metadata report for BODC series reference number 150163
1501751978-08-26 12:00 58° 5' 48" N  12° 2' 50" W  View metadata report for BODC series reference number 150175
1501871978-08-26 12:00 58° 5' 48" N  12° 2' 50" W  View metadata report for BODC series reference number 150187
1501991978-08-26 12:00 58° 5' 48" N  12° 2' 50" W  View metadata report for BODC series reference number 150199
1502061978-08-26 12:00 58° 5' 48" N  12° 2' 50" W  View metadata report for BODC series reference number 150206
1502181978-08-26 12:00 58° 5' 48" N  12° 2' 50" W  View metadata report for BODC series reference number 150218
1502311978-08-26 18:00 58° 5' 48" N  12° 2' 50" W  View metadata report for BODC series reference number 150231
1502431978-08-26 18:38 58° 5' 48" N  12° 2' 50" W  View metadata report for BODC series reference number 150243
1502551978-08-26 18:40 58° 5' 48" N  12° 2' 50" W  View metadata report for BODC series reference number 150255
1502671978-08-26 18:42 58° 5' 48" N  12° 2' 50" W  View metadata report for BODC series reference number 150267
1502791978-08-26 18:44 58° 5' 48" N  12° 2' 50" W  View metadata report for BODC series reference number 150279
1502801978-08-26 18:46 58° 5' 48" N  12° 2' 50" W  View metadata report for BODC series reference number 150280
1502921978-08-26 18:48 58° 5' 48" N  12° 2' 50" W  View metadata report for BODC series reference number 150292
1503111978-08-26 18:50 58° 5' 48" N  12° 2' 50" W  View metadata report for BODC series reference number 150311
1503231978-08-26 18:52 58° 5' 48" N  12° 2' 50" W  View metadata report for BODC series reference number 150323
1503351978-08-26 18:54 58° 5' 48" N  12° 2' 50" W  View metadata report for BODC series reference number 150335
1503471978-08-26 18:56 58° 5' 48" N  12° 2' 50" W  View metadata report for BODC series reference number 150347
1503591978-08-26 18:58 58° 5' 48" N  12° 2' 50" W  View metadata report for BODC series reference number 150359
1503601978-08-26 19:00 58° 5' 48" N  12° 2' 50" W  View metadata report for BODC series reference number 150360
1503721978-08-26 19:02 58° 5' 48" N  12° 2' 50" W  View metadata report for BODC series reference number 150372
1503841978-08-26 19:04 58° 5' 48" N  12° 2' 50" W  View metadata report for BODC series reference number 150384
1503961978-08-26 19:30 58° 5' 48" N  12° 2' 50" W  View metadata report for BODC series reference number 150396
1504031978-08-26 19:32 58° 5' 48" N  12° 2' 50" W  View metadata report for BODC series reference number 150403
1504151978-08-26 19:34 58° 5' 48" N  12° 2' 50" W  View metadata report for BODC series reference number 150415
1504271978-08-26 19:36 58° 5' 48" N  12° 2' 50" W  View metadata report for BODC series reference number 150427
1504391978-08-26 19:38 58° 5' 48" N  12° 2' 50" W  View metadata report for BODC series reference number 150439
1504401978-08-26 19:40 58° 5' 48" N  12° 2' 50" W  View metadata report for BODC series reference number 150440
1497031978-08-26 14:48 58° 5' 57" N  12° 2' 55" W  View metadata report for BODC series reference number 149703
1497151978-08-26 14:50 58° 5' 57" N  12° 2' 55" W  View metadata report for BODC series reference number 149715
1497271978-08-26 14:52 58° 5' 57" N  12° 2' 55" W  View metadata report for BODC series reference number 149727
1497391978-08-26 14:54 58° 5' 57" N  12° 2' 55" W  View metadata report for BODC series reference number 149739
1497401978-08-26 14:56 58° 5' 57" N  12° 2' 55" W  View metadata report for BODC series reference number 149740
1497521978-08-26 14:58 58° 5' 57" N  12° 2' 55" W  View metadata report for BODC series reference number 149752
1497641978-08-26 15:00 58° 5' 57" N  12° 2' 55" W  View metadata report for BODC series reference number 149764
1497761978-08-26 15:34 58° 5' 52" N  12° 2' 50" W  View metadata report for BODC series reference number 149776
1497881978-08-26 15:36 58° 5' 52" N  12° 2' 50" W  View metadata report for BODC series reference number 149788
1498071978-08-26 15:38 58° 5' 52" N  12° 2' 50" W  View metadata report for BODC series reference number 149807
1498191978-08-26 15:40 58° 5' 52" N  12° 2' 50" W  View metadata report for BODC series reference number 149819
1498201978-08-26 15:42 58° 5' 52" N  12° 2' 50" W  View metadata report for BODC series reference number 149820
1498321978-08-26 15:44 58° 5' 52" N  12° 2' 50" W  View metadata report for BODC series reference number 149832
1621641978-09-02 18:10 59° 2' 37" N  12° 2' 41" W  View metadata report for BODC series reference number 162164
1621761978-09-02 18:14 59° 2' 37" N  12° 2' 41" W  View metadata report for BODC series reference number 162176
1621881978-09-02 18:19 59° 2' 37" N  12° 2' 41" W  View metadata report for BODC series reference number 162188
1622071978-09-02 18:24 59° 2' 37" N  12° 2' 41" W  View metadata report for BODC series reference number 162207
1622191978-09-02 18:29 59° 2' 37" N  12° 2' 41" W  View metadata report for BODC series reference number 162219
1622201978-09-02 18:34 59° 2' 37" N  12° 2' 41" W  View metadata report for BODC series reference number 162220
1622321978-09-02 18:40 59° 2' 37" N  12° 2' 41" W  View metadata report for BODC series reference number 162232
1622441978-09-02 18:45 59° 2' 37" N  12° 2' 41" W  View metadata report for BODC series reference number 162244
1622561978-09-02 18:49 59° 2' 37" N  12° 2' 41" W  View metadata report for BODC series reference number 162256
1622681978-09-02 18:54 59° 2' 37" N  12° 2' 41" W  View metadata report for BODC series reference number 162268
1622811978-09-02 19:00 59° 2' 37" N  12° 2' 41" W  View metadata report for BODC series reference number 162281
1622931978-09-02 19:05 59° 2' 37" N  12° 2' 41" W  View metadata report for BODC series reference number 162293
1623001978-09-02 19:09 59° 2' 37" N  12° 2' 41" W  View metadata report for BODC series reference number 162300
1623121978-09-02 19:14 59° 2' 37" N  12° 2' 41" W  View metadata report for BODC series reference number 162312
1623241978-09-02 19:19 59° 2' 37" N  12° 2' 41" W  View metadata report for BODC series reference number 162324
1623361978-09-02 19:24 59° 2' 37" N  12° 2' 41" W  View metadata report for BODC series reference number 162336
1623481978-09-02 19:30 59° 2' 37" N  12° 2' 41" W  View metadata report for BODC series reference number 162348
1623611978-09-02 19:35 59° 2' 37" N  12° 2' 41" W  View metadata report for BODC series reference number 162361
1623731978-09-02 19:40 59° 2' 37" N  12° 2' 41" W  View metadata report for BODC series reference number 162373
1623851978-09-02 19:45 59° 2' 37" N  12° 2' 41" W  View metadata report for BODC series reference number 162385
1623971978-09-02 19:50 59° 2' 37" N  12° 2' 41" W  View metadata report for BODC series reference number 162397
1624041978-09-02 19:55 59° 2' 37" N  12° 2' 41" W  View metadata report for BODC series reference number 162404
1624161978-09-02 19:59 59° 2' 37" N  12° 2' 41" W  View metadata report for BODC series reference number 162416
1624281978-09-02 20:04 59° 2' 37" N  12° 2' 41" W  View metadata report for BODC series reference number 162428
1624411978-09-02 20:09 59° 2' 37" N  12° 2' 41" W  View metadata report for BODC series reference number 162441
1624531978-09-02 20:14 59° 2' 37" N  12° 2' 41" W  View metadata report for BODC series reference number 162453
1624651978-09-02 20:19 59° 2' 37" N  12° 2' 41" W  View metadata report for BODC series reference number 162465
1624771978-09-02 20:24 59° 2' 37" N  12° 2' 41" W  View metadata report for BODC series reference number 162477
1624891978-09-02 20:29 59° 2' 37" N  12° 2' 41" W  View metadata report for BODC series reference number 162489
1624901978-09-02 20:34 59° 2' 37" N  12° 2' 41" W  View metadata report for BODC series reference number 162490
1625081978-09-02 20:39 59° 2' 37" N  12° 2' 41" W  View metadata report for BODC series reference number 162508
1625211978-09-02 20:44 59° 2' 37" N  12° 2' 41" W  View metadata report for BODC series reference number 162521
1625331978-09-02 20:49 59° 2' 37" N  12° 2' 41" W  View metadata report for BODC series reference number 162533
1625451978-09-02 20:54 59° 2' 37" N  12° 2' 41" W  View metadata report for BODC series reference number 162545
1625571978-09-02 20:59 59° 2' 37" N  12° 2' 41" W  View metadata report for BODC series reference number 162557
1625691978-09-02 21:06 59° 2' 37" N  12° 2' 41" W  View metadata report for BODC series reference number 162569
1625701978-09-02 21:09 59° 2' 37" N  12° 2' 41" W  View metadata report for BODC series reference number 162570
1625821978-09-02 21:14 59° 2' 37" N  12° 2' 41" W  View metadata report for BODC series reference number 162582
1625941978-09-02 21:19 59° 2' 37" N  12° 2' 41" W  View metadata report for BODC series reference number 162594
1626011978-09-02 21:24 59° 2' 37" N  12° 2' 41" W  View metadata report for BODC series reference number 162601
1626131978-09-02 21:30 59° 2' 37" N  12° 2' 41" W  View metadata report for BODC series reference number 162613
1626251978-09-02 21:35 59° 2' 37" N  12° 2' 41" W  View metadata report for BODC series reference number 162625
1626371978-09-02 21:39 59° 2' 37" N  12° 2' 41" W  View metadata report for BODC series reference number 162637
1626491978-09-02 21:44 59° 2' 37" N  12° 2' 41" W  View metadata report for BODC series reference number 162649
1626501978-09-02 21:49 59° 2' 37" N  12° 2' 41" W  View metadata report for BODC series reference number 162650
1626621978-09-02 21:54 59° 2' 37" N  12° 2' 41" W  View metadata report for BODC series reference number 162662
1626741978-09-02 21:59 59° 2' 37" N  12° 2' 41" W  View metadata report for BODC series reference number 162674
1626861978-09-02 22:04 59° 2' 37" N  12° 2' 41" W  View metadata report for BODC series reference number 162686
1626981978-09-02 22:09 59° 2' 37" N  12° 2' 41" W  View metadata report for BODC series reference number 162698
1627051978-09-02 22:14 59° 2' 37" N  12° 2' 41" W  View metadata report for BODC series reference number 162705
1627171978-09-02 22:19 59° 2' 37" N  12° 2' 41" W  View metadata report for BODC series reference number 162717
1627291978-09-02 22:24 59° 2' 37" N  12° 2' 41" W  View metadata report for BODC series reference number 162729
1627301978-09-02 22:29 59° 2' 37" N  12° 2' 41" W  View metadata report for BODC series reference number 162730
1627421978-09-02 22:34 59° 2' 37" N  12° 2' 41" W  View metadata report for BODC series reference number 162742
1627541978-09-02 22:39 59° 2' 37" N  12° 2' 41" W  View metadata report for BODC series reference number 162754
1627661978-09-02 22:44 59° 2' 37" N  12° 2' 41" W  View metadata report for BODC series reference number 162766
1627781978-09-02 22:49 59° 2' 37" N  12° 2' 41" W  View metadata report for BODC series reference number 162778
1232941978-08-05 16:49 58° 5' 46" N  12° 3' 13" W  View metadata report for BODC series reference number 123294
1233011978-08-05 16:51 58° 5' 46" N  12° 3' 13" W  View metadata report for BODC series reference number 123301
1233131978-08-05 16:53 58° 5' 46" N  12° 3' 13" W  View metadata report for BODC series reference number 123313
1233251978-08-05 16:55 58° 5' 46" N  12° 3' 13" W  View metadata report for BODC series reference number 123325
1233371978-08-05 16:57 58° 5' 46" N  12° 3' 13" W  View metadata report for BODC series reference number 123337
1233491978-08-05 16:59 58° 5' 46" N  12° 3' 13" W  View metadata report for BODC series reference number 123349
1233501978-08-05 17:01 58° 5' 46" N  12° 3' 13" W  View metadata report for BODC series reference number 123350
1233621978-08-05 17:03 58° 5' 46" N  12° 3' 13" W  View metadata report for BODC series reference number 123362
1233741978-08-05 17:05 58° 5' 46" N  12° 3' 13" W  View metadata report for BODC series reference number 123374
1233861978-08-05 17:07 58° 5' 46" N  12° 3' 13" W  View metadata report for BODC series reference number 123386
1233981978-08-05 17:09 58° 5' 46" N  12° 3' 13" W  View metadata report for BODC series reference number 123398
1234051978-08-05 17:11 58° 5' 46" N  12° 3' 13" W  View metadata report for BODC series reference number 123405
1234171978-08-05 17:15 58° 5' 46" N  12° 3' 13" W  View metadata report for BODC series reference number 123417
1234291978-08-05 17:17 58° 5' 46" N  12° 3' 13" W  View metadata report for BODC series reference number 123429
1234301978-08-05 17:19 58° 5' 46" N  12° 3' 13" W  View metadata report for BODC series reference number 123430
1234421978-08-05 17:21 58° 5' 46" N  12° 3' 13" W  View metadata report for BODC series reference number 123442
1234541978-08-05 17:23 58° 5' 46" N  12° 3' 13" W  View metadata report for BODC series reference number 123454
1234661978-08-05 17:25 58° 5' 46" N  12° 3' 13" W  View metadata report for BODC series reference number 123466
1234781978-08-05 17:27 58° 5' 46" N  12° 3' 13" W  View metadata report for BODC series reference number 123478
1234911978-08-05 18:32 58° 5' 50" N  12° 2' 31" W  View metadata report for BODC series reference number 123491
1235091978-08-05 20:59 58° 5' 50" N  12° 2' 32" W  View metadata report for BODC series reference number 123509
1235101978-08-06 00:03 58° 5' 50" N  12° 2' 46" W  View metadata report for BODC series reference number 123510
1235221978-08-06 03:04 58° 5' 46" N  12° 2' 35" W  View metadata report for BODC series reference number 123522
1235341978-08-06 06:29 58° 5' 48" N  12° 1' 47" W  View metadata report for BODC series reference number 123534
1235461978-08-06 07:29 58° 5' 43" N  12° 2' 3" W  View metadata report for BODC series reference number 123546
1235581978-08-06 07:34 58° 5' 43" N  12° 2' 3" W  View metadata report for BODC series reference number 123558
1235711978-08-06 07:39 58° 5' 43" N  12° 2' 3" W  View metadata report for BODC series reference number 123571
1235831978-08-06 07:44 58° 5' 43" N  12° 2' 3" W  View metadata report for BODC series reference number 123583
1235951978-08-06 07:49 58° 5' 43" N  12° 2' 3" W  View metadata report for BODC series reference number 123595
1236021978-08-06 07:54 58° 5' 43" N  12° 2' 3" W  View metadata report for BODC series reference number 123602
1236141978-08-06 07:59 58° 5' 43" N  12° 2' 3" W  View metadata report for BODC series reference number 123614
1236261978-08-06 08:05 58° 5' 43" N  12° 2' 3" W  View metadata report for BODC series reference number 123626
1236381978-08-06 08:09 58° 5' 43" N  12° 2' 3" W  View metadata report for BODC series reference number 123638
1236511978-08-06 08:14 58° 5' 43" N  12° 2' 3" W  View metadata report for BODC series reference number 123651
1236631978-08-06 08:19 58° 5' 43" N  12° 2' 3" W  View metadata report for BODC series reference number 123663
1236751978-08-06 08:24 58° 5' 43" N  12° 2' 3" W  View metadata report for BODC series reference number 123675
1236871978-08-06 08:29 58° 5' 43" N  12° 2' 3" W  View metadata report for BODC series reference number 123687
1236991978-08-06 08:34 58° 5' 43" N  12° 2' 3" W  View metadata report for BODC series reference number 123699
1237061978-08-06 08:39 58° 5' 43" N  12° 2' 3" W  View metadata report for BODC series reference number 123706
1237181978-08-06 08:44 58° 5' 43" N  12° 2' 3" W  View metadata report for BODC series reference number 123718
1237311978-08-06 08:49 58° 5' 43" N  12° 2' 3" W  View metadata report for BODC series reference number 123731
1237431978-08-06 08:54 58° 5' 43" N  12° 2' 3" W  View metadata report for BODC series reference number 123743
1237551978-08-06 08:59 58° 5' 39" N  12° 2' 17" W  View metadata report for BODC series reference number 123755
1237671978-08-06 09:04 58° 5' 39" N  12° 2' 17" W  View metadata report for BODC series reference number 123767
1237791978-08-06 09:09 58° 5' 39" N  12° 2' 17" W  View metadata report for BODC series reference number 123779
1237801978-08-06 09:14 58° 5' 39" N  12° 2' 17" W  View metadata report for BODC series reference number 123780
1237921978-08-06 09:19 58° 5' 39" N  12° 2' 17" W  View metadata report for BODC series reference number 123792
1238111978-08-06 09:24 58° 5' 39" N  12° 2' 17" W  View metadata report for BODC series reference number 123811
1238231978-08-06 09:29 58° 5' 39" N  12° 2' 17" W  View metadata report for BODC series reference number 123823
1238351978-08-06 09:34 58° 5' 39" N  12° 2' 17" W  View metadata report for BODC series reference number 123835
1238471978-08-06 09:39 58° 5' 39" N  12° 2' 17" W  View metadata report for BODC series reference number 123847
1238591978-08-06 09:44 58° 5' 39" N  12° 2' 17" W  View metadata report for BODC series reference number 123859
1238601978-08-06 09:50 58° 5' 39" N  12° 2' 17" W  View metadata report for BODC series reference number 123860
1238721978-08-06 09:54 58° 5' 39" N  12° 2' 17" W  View metadata report for BODC series reference number 123872
1238841978-08-06 09:59 58° 5' 39" N  12° 2' 17" W  View metadata report for BODC series reference number 123884
1238961978-08-06 10:04 58° 5' 39" N  12° 2' 17" W  View metadata report for BODC series reference number 123896
1239031978-08-06 10:09 58° 5' 39" N  12° 2' 17" W  View metadata report for BODC series reference number 123903
1302781978-08-18 20:58 58° 5' 49" N  12° 2' 55" W  View metadata report for BODC series reference number 130278
1302911978-08-18 21:00 58° 5' 49" N  12° 2' 55" W  View metadata report for BODC series reference number 130291
1303091978-08-18 21:02 58° 5' 49" N  12° 2' 55" W  View metadata report for BODC series reference number 130309
1303101978-08-18 21:04 58° 5' 49" N  12° 2' 55" W  View metadata report for BODC series reference number 130310
1303221978-08-18 21:06 58° 5' 49" N  12° 2' 55" W  View metadata report for BODC series reference number 130322
1303341978-08-18 21:08 58° 5' 49" N  12° 2' 55" W  View metadata report for BODC series reference number 130334
1303461978-08-18 21:10 58° 5' 49" N  12° 2' 55" W  View metadata report for BODC series reference number 130346
1303581978-08-18 21:12 58° 5' 49" N  12° 2' 55" W  View metadata report for BODC series reference number 130358
1303711978-08-18 21:14 58° 5' 49" N  12° 2' 55" W  View metadata report for BODC series reference number 130371
1303831978-08-18 21:46 58° 5' 49" N  12° 2' 55" W  View metadata report for BODC series reference number 130383
1303951978-08-18 21:48 58° 5' 49" N  12° 2' 55" W  View metadata report for BODC series reference number 130395
1304021978-08-18 21:50 58° 5' 49" N  12° 2' 55" W  View metadata report for BODC series reference number 130402
1304141978-08-18 21:52 58° 5' 49" N  12° 2' 55" W  View metadata report for BODC series reference number 130414
1304261978-08-18 21:54 58° 5' 49" N  12° 2' 55" W  View metadata report for BODC series reference number 130426
1304381978-08-18 21:56 58° 5' 49" N  12° 2' 55" W  View metadata report for BODC series reference number 130438
1304511978-08-18 21:58 58° 5' 49" N  12° 2' 55" W  View metadata report for BODC series reference number 130451
1304631978-08-18 22:00 58° 5' 49" N  12° 2' 55" W  View metadata report for BODC series reference number 130463
1304751978-08-18 22:02 58° 5' 49" N  12° 2' 55" W  View metadata report for BODC series reference number 130475
1304871978-08-18 22:04 58° 5' 49" N  12° 2' 55" W  View metadata report for BODC series reference number 130487
1304991978-08-18 22:06 58° 5' 49" N  12° 2' 55" W  View metadata report for BODC series reference number 130499
1305061978-08-18 22:08 58° 5' 49" N  12° 2' 55" W  View metadata report for BODC series reference number 130506
1305181978-08-18 22:10 58° 5' 49" N  12° 2' 55" W  View metadata report for BODC series reference number 130518
1305311978-08-18 22:12 58° 5' 49" N  12° 2' 55" W  View metadata report for BODC series reference number 130531
1305431978-08-18 22:14 58° 5' 49" N  12° 2' 55" W  View metadata report for BODC series reference number 130543
1305551978-08-18 22:16 58° 5' 49" N  12° 2' 55" W  View metadata report for BODC series reference number 130555
1305671978-08-18 22:44 58° 5' 49" N  12° 2' 55" W  View metadata report for BODC series reference number 130567
1305791978-08-18 22:46 58° 5' 49" N  12° 2' 55" W  View metadata report for BODC series reference number 130579
1305801978-08-18 22:48 58° 5' 49" N  12° 2' 55" W  View metadata report for BODC series reference number 130580
1305921978-08-18 22:50 58° 5' 49" N  12° 2' 55" W  View metadata report for BODC series reference number 130592
1306111978-08-18 22:52 58° 5' 49" N  12° 2' 55" W  View metadata report for BODC series reference number 130611
1306231978-08-18 22:54 58° 5' 49" N  12° 2' 55" W  View metadata report for BODC series reference number 130623
1306351978-08-18 22:56 58° 5' 49" N  12° 2' 55" W  View metadata report for BODC series reference number 130635
1298921978-08-18 16:48 58° 5' 50" N  12° 2' 36" W  View metadata report for BODC series reference number 129892
1299111978-08-18 16:50 58° 5' 50" N  12° 2' 36" W  View metadata report for BODC series reference number 129911
1299231978-08-18 16:52 58° 5' 50" N  12° 2' 36" W  View metadata report for BODC series reference number 129923
1299351978-08-18 16:54 58° 5' 50" N  12° 2' 36" W  View metadata report for BODC series reference number 129935
1299471978-08-18 16:56 58° 5' 50" N  12° 2' 36" W  View metadata report for BODC series reference number 129947
1299591978-08-18 16:58 58° 5' 50" N  12° 2' 36" W  View metadata report for BODC series reference number 129959
1299601978-08-18 17:00 58° 5' 50" N  12° 2' 36" W  View metadata report for BODC series reference number 129960
1299721978-08-18 17:02 58° 5' 50" N  12° 2' 36" W  View metadata report for BODC series reference number 129972
1299841978-08-18 17:04 58° 5' 50" N  12° 2' 36" W  View metadata report for BODC series reference number 129984
1299961978-08-18 17:06 58° 5' 50" N  12° 2' 36" W  View metadata report for BODC series reference number 129996
1300081978-08-18 17:08 58° 5' 50" N  12° 2' 36" W  View metadata report for BODC series reference number 130008
1300211978-08-18 17:10 58° 5' 50" N  12° 2' 36" W  View metadata report for BODC series reference number 130021
1300331978-08-18 17:12 58° 5' 50" N  12° 2' 36" W  View metadata report for BODC series reference number 130033
1300451978-08-18 19:54 58° 5' 48" N  12° 2' 43" W  View metadata report for BODC series reference number 130045
1300571978-08-18 19:56 58° 5' 48" N  12° 2' 43" W  View metadata report for BODC series reference number 130057
1300691978-08-18 19:58 58° 5' 48" N  12° 2' 43" W  View metadata report for BODC series reference number 130069
1300701978-08-18 20:00 58° 5' 48" N  12° 2' 43" W  View metadata report for BODC series reference number 130070
1300821978-08-18 20:02 58° 5' 48" N  12° 2' 43" W  View metadata report for BODC series reference number 130082
1300941978-08-18 20:04 58° 5' 48" N  12° 2' 43" W  View metadata report for BODC series reference number 130094
1301011978-08-18 20:06 58° 5' 48" N  12° 2' 43" W  View metadata report for BODC series reference number 130101
1301131978-08-18 20:08 58° 5' 48" N  12° 2' 43" W  View metadata report for BODC series reference number 130113
1301251978-08-18 20:10 58° 5' 48" N  12° 2' 43" W  View metadata report for BODC series reference number 130125
1301371978-08-18 20:12 58° 5' 48" N  12° 2' 43" W  View metadata report for BODC series reference number 130137
1301491978-08-18 20:14 58° 5' 48" N  12° 2' 43" W  View metadata report for BODC series reference number 130149
1301501978-08-18 20:16 58° 5' 48" N  12° 2' 43" W  View metadata report for BODC series reference number 130150
1489821978-08-26 09:48 58° 5' 47" N  12° 2' 44" W  View metadata report for BODC series reference number 148982
1489941978-08-26 09:50 58° 5' 47" N  12° 2' 44" W  View metadata report for BODC series reference number 148994
1490081978-08-26 09:52 58° 5' 47" N  12° 2' 44" W  View metadata report for BODC series reference number 149008
1490211978-08-26 09:54 58° 5' 47" N  12° 2' 44" W  View metadata report for BODC series reference number 149021
1490331978-08-26 09:56 58° 5' 47" N  12° 2' 44" W  View metadata report for BODC series reference number 149033
1490451978-08-26 09:58 58° 5' 47" N  12° 2' 44" W  View metadata report for BODC series reference number 149045
1490571978-08-26 10:00 58° 5' 47" N  12° 2' 44" W  View metadata report for BODC series reference number 149057
1490691978-08-26 10:02 58° 5' 47" N  12° 2' 44" W  View metadata report for BODC series reference number 149069
1490701978-08-26 10:04 58° 5' 47" N  12° 2' 44" W  View metadata report for BODC series reference number 149070
1490821978-08-26 10:06 58° 5' 47" N  12° 2' 44" W  View metadata report for BODC series reference number 149082
1490941978-08-26 10:08 58° 5' 47" N  12° 2' 44" W  View metadata report for BODC series reference number 149094
1491011978-08-26 10:30 58° 5' 50" N  12° 2' 47" W  View metadata report for BODC series reference number 149101
1491131978-08-26 10:32 58° 5' 50" N  12° 2' 47" W  View metadata report for BODC series reference number 149113
1491251978-08-26 10:34 58° 5' 50" N  12° 2' 47" W  View metadata report for BODC series reference number 149125
1491371978-08-26 10:36 58° 5' 50" N  12° 2' 47" W  View metadata report for BODC series reference number 149137
1491491978-08-26 10:38 58° 5' 50" N  12° 2' 47" W  View metadata report for BODC series reference number 149149
1491501978-08-26 10:40 58° 5' 50" N  12° 2' 47" W  View metadata report for BODC series reference number 149150
1491621978-08-26 10:42 58° 5' 50" N  12° 2' 47" W  View metadata report for BODC series reference number 149162
1491741978-08-26 10:44 58° 5' 50" N  12° 2' 47" W  View metadata report for BODC series reference number 149174
1491861978-08-26 10:46 58° 5' 50" N  12° 2' 47" W  View metadata report for BODC series reference number 149186
1491981978-08-26 10:48 58° 5' 50" N  12° 2' 47" W  View metadata report for BODC series reference number 149198
1492051978-08-26 10:50 58° 5' 50" N  12° 2' 47" W  View metadata report for BODC series reference number 149205
1492171978-08-26 10:52 58° 5' 50" N  12° 2' 47" W  View metadata report for BODC series reference number 149217
1492291978-08-26 10:54 58° 5' 50" N  12° 2' 47" W  View metadata report for BODC series reference number 149229
1492301978-08-26 10:56 58° 5' 50" N  12° 2' 47" W  View metadata report for BODC series reference number 149230
1492421978-08-26 10:58 58° 5' 50" N  12° 2' 47" W  View metadata report for BODC series reference number 149242
1492541978-08-26 11:00 58° 5' 50" N  12° 2' 47" W  View metadata report for BODC series reference number 149254
1492661978-08-26 12:30 58° 5' 47" N  12° 2' 41" W  View metadata report for BODC series reference number 149266
1492781978-08-26 12:32 58° 5' 47" N  12° 2' 41" W  View metadata report for BODC series reference number 149278
1492911978-08-26 12:34 58° 5' 47" N  12° 2' 41" W  View metadata report for BODC series reference number 149291
1493091978-08-26 12:36 58° 5' 47" N  12° 2' 41" W  View metadata report for BODC series reference number 149309
1493101978-08-26 12:38 58° 5' 47" N  12° 2' 41" W  View metadata report for BODC series reference number 149310
1485761978-08-26 08:36 58° 5' 47" N  12° 2' 44" W  View metadata report for BODC series reference number 148576
1485881978-08-26 08:38 58° 5' 47" N  12° 2' 44" W  View metadata report for BODC series reference number 148588
1486071978-08-26 08:40 58° 5' 47" N  12° 2' 44" W  View metadata report for BODC series reference number 148607
1486191978-08-26 08:42 58° 5' 47" N  12° 2' 44" W  View metadata report for BODC series reference number 148619
1486201978-08-26 08:44 58° 5' 47" N  12° 2' 44" W  View metadata report for BODC series reference number 148620
1486321978-08-26 08:46 58° 5' 47" N  12° 2' 44" W  View metadata report for BODC series reference number 148632
1486441978-08-26 08:48 58° 5' 47" N  12° 2' 44" W  View metadata report for BODC series reference number 148644
1486561978-08-26 08:50 58° 5' 47" N  12° 2' 44" W  View metadata report for BODC series reference number 148656
1486681978-08-26 08:52 58° 5' 47" N  12° 2' 44" W  View metadata report for BODC series reference number 148668
1486811978-08-26 08:54 58° 5' 47" N  12° 2' 44" W  View metadata report for BODC series reference number 148681
1486931978-08-26 08:56 58° 5' 47" N  12° 2' 44" W  View metadata report for BODC series reference number 148693
1487001978-08-26 08:58 58° 5' 47" N  12° 2' 44" W  View metadata report for BODC series reference number 148700
1487121978-08-26 09:00 58° 5' 47" N  12° 2' 44" W  View metadata report for BODC series reference number 148712
1487241978-08-26 09:02 58° 5' 47" N  12° 2' 44" W  View metadata report for BODC series reference number 148724
1487361978-08-26 09:04 58° 5' 47" N  12° 2' 44" W  View metadata report for BODC series reference number 148736
1487481978-08-26 09:06 58° 5' 47" N  12° 2' 44" W  View metadata report for BODC series reference number 148748
1487611978-08-26 09:08 58° 5' 47" N  12° 2' 44" W  View metadata report for BODC series reference number 148761
1487731978-08-26 09:10 58° 5' 47" N  12° 2' 44" W  View metadata report for BODC series reference number 148773
1487851978-08-26 09:12 58° 5' 47" N  12° 2' 44" W  View metadata report for BODC series reference number 148785
1487971978-08-26 09:14 58° 5' 47" N  12° 2' 44" W  View metadata report for BODC series reference number 148797
1488041978-08-26 09:16 58° 5' 47" N  12° 2' 44" W  View metadata report for BODC series reference number 148804
1488161978-08-26 09:18 58° 5' 47" N  12° 2' 44" W  View metadata report for BODC series reference number 148816
1488281978-08-26 09:20 58° 5' 47" N  12° 2' 44" W  View metadata report for BODC series reference number 148828
1488411978-08-26 09:22 58° 5' 47" N  12° 2' 44" W  View metadata report for BODC series reference number 148841
1488531978-08-26 09:24 58° 5' 47" N  12° 2' 44" W  View metadata report for BODC series reference number 148853
1443171978-08-25 00:30 58° 5' 48" N  12° 3' 2" W  View metadata report for BODC series reference number 144317
1443291978-08-25 00:32 58° 5' 48" N  12° 3' 2" W  View metadata report for BODC series reference number 144329
1443301978-08-25 00:34 58° 5' 48" N  12° 3' 2" W  View metadata report for BODC series reference number 144330
1443421978-08-25 00:36 58° 5' 48" N  12° 3' 2" W  View metadata report for BODC series reference number 144342
1443541978-08-25 00:38 58° 5' 48" N  12° 3' 2" W  View metadata report for BODC series reference number 144354
1443661978-08-25 00:40 58° 5' 48" N  12° 3' 2" W  View metadata report for BODC series reference number 144366
1443781978-08-25 00:42 58° 5' 48" N  12° 3' 2" W  View metadata report for BODC series reference number 144378
1443911978-08-25 00:44 58° 5' 48" N  12° 3' 2" W  View metadata report for BODC series reference number 144391
1444091978-08-25 00:46 58° 5' 48" N  12° 3' 2" W  View metadata report for BODC series reference number 144409
1444101978-08-25 00:48 58° 5' 48" N  12° 3' 2" W  View metadata report for BODC series reference number 144410
1444221978-08-25 00:50 58° 5' 48" N  12° 3' 2" W  View metadata report for BODC series reference number 144422
1444341978-08-25 00:52 58° 5' 48" N  12° 3' 2" W  View metadata report for BODC series reference number 144434
1444461978-08-25 00:54 58° 5' 48" N  12° 3' 2" W  View metadata report for BODC series reference number 144446
1437191978-08-24 20:48 58° 5' 48" N  12° 3' 2" W  View metadata report for BODC series reference number 143719
1437201978-08-24 20:50 58° 5' 48" N  12° 3' 2" W  View metadata report for BODC series reference number 143720
1437321978-08-24 20:52 58° 5' 48" N  12° 3' 2" W  View metadata report for BODC series reference number 143732
1437441978-08-24 20:54 58° 5' 48" N  12° 3' 2" W  View metadata report for BODC series reference number 143744
1437561978-08-24 20:56 58° 5' 48" N  12° 3' 2" W  View metadata report for BODC series reference number 143756
1437681978-08-24 20:58 58° 5' 48" N  12° 3' 2" W  View metadata report for BODC series reference number 143768
1437811978-08-24 21:00 58° 5' 48" N  12° 3' 2" W  View metadata report for BODC series reference number 143781
1437931978-08-24 21:32 58° 5' 48" N  12° 3' 2" W  View metadata report for BODC series reference number 143793
1438001978-08-24 21:34 58° 5' 48" N  12° 3' 2" W  View metadata report for BODC series reference number 143800
1438121978-08-24 21:36 58° 5' 48" N  12° 3' 2" W  View metadata report for BODC series reference number 143812
1438241978-08-24 21:38 58° 5' 48" N  12° 3' 2" W  View metadata report for BODC series reference number 143824
1438361978-08-24 21:40 58° 5' 48" N  12° 3' 2" W  View metadata report for BODC series reference number 143836
1438481978-08-24 21:42 58° 5' 48" N  12° 3' 2" W  View metadata report for BODC series reference number 143848
1438611978-08-24 21:44 58° 5' 48" N  12° 3' 2" W  View metadata report for BODC series reference number 143861
1438731978-08-24 21:46 58° 5' 48" N  12° 3' 2" W  View metadata report for BODC series reference number 143873
1438851978-08-24 21:48 58° 5' 48" N  12° 3' 2" W  View metadata report for BODC series reference number 143885
1438971978-08-24 21:50 58° 5' 48" N  12° 3' 2" W  View metadata report for BODC series reference number 143897
1439041978-08-24 21:52 58° 5' 48" N  12° 3' 2" W  View metadata report for BODC series reference number 143904
1439161978-08-24 21:54 58° 5' 48" N  12° 3' 2" W  View metadata report for BODC series reference number 143916
1439281978-08-24 21:56 58° 5' 48" N  12° 3' 2" W  View metadata report for BODC series reference number 143928
1439411978-08-24 21:58 58° 5' 48" N  12° 3' 2" W  View metadata report for BODC series reference number 143941
1439531978-08-24 22:00 58° 5' 48" N  12° 3' 2" W  View metadata report for BODC series reference number 143953
1439651978-08-24 22:02 58° 5' 48" N  12° 3' 2" W  View metadata report for BODC series reference number 143965
1439771978-08-24 22:26 58° 5' 48" N  12° 3' 2" W  View metadata report for BODC series reference number 143977
1439891978-08-24 22:28 58° 5' 48" N  12° 3' 2" W  View metadata report for BODC series reference number 143989
1439901978-08-24 22:30 58° 5' 48" N  12° 3' 2" W  View metadata report for BODC series reference number 143990
1440041978-08-24 22:32 58° 5' 48" N  12° 3' 2" W  View metadata report for BODC series reference number 144004
1440161978-08-24 22:34 58° 5' 48" N  12° 3' 2" W  View metadata report for BODC series reference number 144016
1440281978-08-24 22:36 58° 5' 48" N  12° 3' 2" W  View metadata report for BODC series reference number 144028
1440411978-08-24 22:38 58° 5' 48" N  12° 3' 2" W  View metadata report for BODC series reference number 144041
1440531978-08-24 22:40 58° 5' 48" N  12° 3' 2" W  View metadata report for BODC series reference number 144053
1440651978-08-24 22:42 58° 5' 48" N  12° 3' 2" W  View metadata report for BODC series reference number 144065
1440771978-08-24 22:44 58° 5' 48" N  12° 3' 2" W  View metadata report for BODC series reference number 144077
1440891978-08-24 22:46 58° 5' 48" N  12° 3' 2" W  View metadata report for BODC series reference number 144089
1433381978-08-24 18:18 58° 5' 44" N  12° 3' 1" W  View metadata report for BODC series reference number 143338
1433511978-08-24 18:20 58° 5' 44" N  12° 3' 1" W  View metadata report for BODC series reference number 143351
1433631978-08-24 18:22 58° 5' 44" N  12° 3' 1" W  View metadata report for BODC series reference number 143363
1433751978-08-24 18:24 58° 5' 44" N  12° 3' 1" W  View metadata report for BODC series reference number 143375
1433871978-08-24 18:26 58° 5' 44" N  12° 3' 1" W  View metadata report for BODC series reference number 143387
1433991978-08-24 18:28 58° 5' 44" N  12° 3' 1" W  View metadata report for BODC series reference number 143399
1434061978-08-24 18:30 58° 5' 44" N  12° 3' 1" W  View metadata report for BODC series reference number 143406
1434181978-08-24 18:32 58° 5' 44" N  12° 3' 1" W  View metadata report for BODC series reference number 143418
1171601978-07-30 14:58 58° 5' 55" N  12° 2' 52" W  View metadata report for BODC series reference number 117160
1171721978-07-30 15:13 58° 5' 55" N  12° 2' 52" W  View metadata report for BODC series reference number 117172
1171841978-07-30 15:15 58° 5' 55" N  12° 2' 52" W  View metadata report for BODC series reference number 117184
1301621978-08-18 20:18 58° 5' 48" N  12° 2' 43" W  View metadata report for BODC series reference number 130162
1301741978-08-18 20:20 58° 5' 48" N  12° 2' 43" W  View metadata report for BODC series reference number 130174
1301861978-08-18 20:22 58° 5' 48" N  12° 2' 43" W  View metadata report for BODC series reference number 130186
1301981978-08-18 20:24 58° 5' 48" N  12° 2' 43" W  View metadata report for BODC series reference number 130198
1302051978-08-18 20:44 58° 5' 49" N  12° 2' 55" W  View metadata report for BODC series reference number 130205
1302171978-08-18 20:46 58° 5' 49" N  12° 2' 55" W  View metadata report for BODC series reference number 130217
1302291978-08-18 20:48 58° 5' 49" N  12° 2' 55" W  View metadata report for BODC series reference number 130229
1302301978-08-18 20:50 58° 5' 49" N  12° 2' 55" W  View metadata report for BODC series reference number 130230
1302421978-08-18 20:52 58° 5' 49" N  12° 2' 55" W  View metadata report for BODC series reference number 130242
1295171978-08-18 14:16 58° 5' 51" N  12° 2' 50" W  View metadata report for BODC series reference number 129517
1295291978-08-18 14:46 58° 5' 52" N  12° 2' 44" W  View metadata report for BODC series reference number 129529
1295301978-08-18 14:48 58° 5' 52" N  12° 2' 44" W  View metadata report for BODC series reference number 129530
1295421978-08-18 14:50 58° 5' 52" N  12° 2' 44" W  View metadata report for BODC series reference number 129542
1295541978-08-18 14:52 58° 5' 52" N  12° 2' 44" W  View metadata report for BODC series reference number 129554
1295661978-08-18 14:54 58° 5' 52" N  12° 2' 44" W  View metadata report for BODC series reference number 129566
1295781978-08-18 14:56 58° 5' 52" N  12° 2' 44" W  View metadata report for BODC series reference number 129578
1295911978-08-18 14:58 58° 5' 52" N  12° 2' 44" W  View metadata report for BODC series reference number 129591
1296091978-08-18 15:00 58° 5' 52" N  12° 2' 44" W  View metadata report for BODC series reference number 129609
1296101978-08-18 15:02 58° 5' 52" N  12° 2' 44" W  View metadata report for BODC series reference number 129610
1296221978-08-18 15:04 58° 5' 52" N  12° 2' 44" W  View metadata report for BODC series reference number 129622
1296341978-08-18 15:06 58° 5' 52" N  12° 2' 44" W  View metadata report for BODC series reference number 129634
1296461978-08-18 15:08 58° 5' 52" N  12° 2' 44" W  View metadata report for BODC series reference number 129646
1296581978-08-18 15:10 58° 5' 52" N  12° 2' 44" W  View metadata report for BODC series reference number 129658
1296711978-08-18 15:12 58° 5' 52" N  12° 2' 44" W  View metadata report for BODC series reference number 129671
1296831978-08-18 15:14 58° 5' 52" N  12° 2' 44" W  View metadata report for BODC series reference number 129683
1296951978-08-18 15:16 58° 5' 52" N  12° 2' 44" W  View metadata report for BODC series reference number 129695
1297021978-08-18 15:46 58° 5' 52" N  12° 2' 44" W  View metadata report for BODC series reference number 129702
1297141978-08-18 15:48 58° 5' 52" N  12° 2' 44" W  View metadata report for BODC series reference number 129714
1297261978-08-18 15:50 58° 5' 52" N  12° 2' 44" W  View metadata report for BODC series reference number 129726
1297381978-08-18 15:52 58° 5' 52" N  12° 2' 44" W  View metadata report for BODC series reference number 129738
1297511978-08-18 15:54 58° 5' 52" N  12° 2' 44" W  View metadata report for BODC series reference number 129751
1297631978-08-18 15:56 58° 5' 52" N  12° 2' 44" W  View metadata report for BODC series reference number 129763
1297751978-08-18 15:58 58° 5' 52" N  12° 2' 44" W  View metadata report for BODC series reference number 129775
1297871978-08-18 16:00 58° 5' 52" N  12° 2' 44" W  View metadata report for BODC series reference number 129787
1297991978-08-18 16:02 58° 5' 52" N  12° 2' 44" W  View metadata report for BODC series reference number 129799
1298061978-08-18 16:04 58° 5' 52" N  12° 2' 44" W  View metadata report for BODC series reference number 129806
1298181978-08-18 16:06 58° 5' 52" N  12° 2' 44" W  View metadata report for BODC series reference number 129818
1298311978-08-18 16:08 58° 5' 52" N  12° 2' 44" W  View metadata report for BODC series reference number 129831
1298431978-08-18 16:10 58° 5' 52" N  12° 2' 44" W  View metadata report for BODC series reference number 129843
1298551978-08-18 16:12 58° 5' 52" N  12° 2' 44" W  View metadata report for BODC series reference number 129855
1298671978-08-18 16:14 58° 5' 52" N  12° 2' 44" W  View metadata report for BODC series reference number 129867
1298791978-08-18 16:16 58° 5' 52" N  12° 2' 44" W  View metadata report for BODC series reference number 129879
1298801978-08-18 16:46 58° 5' 50" N  12° 2' 36" W  View metadata report for BODC series reference number 129880
1291481978-08-18 12:10 58° 5' 51" N  12° 2' 50" W  View metadata report for BODC series reference number 129148
1291611978-08-18 12:12 58° 5' 51" N  12° 2' 50" W  View metadata report for BODC series reference number 129161
1291731978-08-18 12:14 58° 5' 51" N  12° 2' 50" W  View metadata report for BODC series reference number 129173
1291851978-08-18 12:16 58° 5' 51" N  12° 2' 50" W  View metadata report for BODC series reference number 129185
1291971978-08-18 12:44 58° 5' 51" N  12° 2' 50" W  View metadata report for BODC series reference number 129197
1292041978-08-18 12:46 58° 5' 51" N  12° 2' 50" W  View metadata report for BODC series reference number 129204
1292161978-08-18 12:48 58° 5' 51" N  12° 2' 50" W  View metadata report for BODC series reference number 129216
1292281978-08-18 12:50 58° 5' 51" N  12° 2' 50" W  View metadata report for BODC series reference number 129228
1292411978-08-18 12:52 58° 5' 51" N  12° 2' 50" W  View metadata report for BODC series reference number 129241
1292531978-08-18 12:54 58° 5' 51" N  12° 2' 50" W  View metadata report for BODC series reference number 129253
1292651978-08-18 12:56 58° 5' 51" N  12° 2' 50" W  View metadata report for BODC series reference number 129265
1292771978-08-18 12:58 58° 5' 51" N  12° 2' 50" W  View metadata report for BODC series reference number 129277
1292891978-08-18 13:00 58° 5' 51" N  12° 2' 50" W  View metadata report for BODC series reference number 129289
1292901978-08-18 13:02 58° 5' 51" N  12° 2' 50" W  View metadata report for BODC series reference number 129290
1488651978-08-26 09:26 58° 5' 47" N  12° 2' 44" W  View metadata report for BODC series reference number 148865
1488771978-08-26 09:28 58° 5' 47" N  12° 2' 44" W  View metadata report for BODC series reference number 148877
1488891978-08-26 09:30 58° 5' 47" N  12° 2' 44" W  View metadata report for BODC series reference number 148889
1488901978-08-26 09:32 58° 5' 47" N  12° 2' 44" W  View metadata report for BODC series reference number 148890
1489081978-08-26 09:34 58° 5' 47" N  12° 2' 44" W  View metadata report for BODC series reference number 148908
1390631978-08-23 04:52 58° 5' 51" N  12° 2' 51" W  View metadata report for BODC series reference number 139063
1390751978-08-23 04:54 58° 5' 51" N  12° 2' 51" W  View metadata report for BODC series reference number 139075
1390871978-08-23 04:56 58° 5' 51" N  12° 2' 51" W  View metadata report for BODC series reference number 139087
1390991978-08-23 04:58 58° 5' 51" N  12° 2' 51" W  View metadata report for BODC series reference number 139099
1391061978-08-23 05:00 58° 5' 51" N  12° 2' 51" W  View metadata report for BODC series reference number 139106
1391181978-08-23 05:02 58° 5' 51" N  12° 2' 51" W  View metadata report for BODC series reference number 139118
1391311978-08-23 00:50 58° 5' 51" N  12° 2' 51" W  View metadata report for BODC series reference number 139131
1391431978-08-23 05:06 58° 5' 51" N  12° 2' 51" W  View metadata report for BODC series reference number 139143
1391551978-08-23 05:08 58° 5' 51" N  12° 2' 51" W  View metadata report for BODC series reference number 139155
1391671978-08-23 05:10 58° 5' 51" N  12° 2' 51" W  View metadata report for BODC series reference number 139167
1391791978-08-23 05:12 58° 5' 51" N  12° 2' 51" W  View metadata report for BODC series reference number 139179
1391801978-08-23 05:14 58° 5' 51" N  12° 2' 51" W  View metadata report for BODC series reference number 139180
1391921978-08-23 05:16 58° 5' 51" N  12° 2' 51" W  View metadata report for BODC series reference number 139192
1392111978-08-23 05:18 58° 5' 51" N  12° 2' 51" W  View metadata report for BODC series reference number 139211
1392231978-08-23 05:46 58° 5' 51" N  12° 2' 51" W  View metadata report for BODC series reference number 139223
1392351978-08-23 05:48 58° 5' 51" N  12° 2' 51" W  View metadata report for BODC series reference number 139235
1384901978-08-23 01:16 58° 5' 50" N  12° 2' 48" W  View metadata report for BODC series reference number 138490
1385081978-08-23 01:18 58° 5' 50" N  12° 2' 48" W  View metadata report for BODC series reference number 138508
1385211978-08-23 01:48 58° 5' 50" N  12° 2' 48" W  View metadata report for BODC series reference number 138521
1385331978-08-23 01:50 58° 5' 50" N  12° 2' 48" W  View metadata report for BODC series reference number 138533
1385451978-08-23 01:52 58° 5' 50" N  12° 2' 48" W  View metadata report for BODC series reference number 138545
1385571978-08-23 01:54 58° 5' 50" N  12° 2' 48" W  View metadata report for BODC series reference number 138557
1385691978-08-23 01:56 58° 5' 50" N  12° 2' 48" W  View metadata report for BODC series reference number 138569
1385701978-08-23 01:58 58° 5' 50" N  12° 2' 48" W  View metadata report for BODC series reference number 138570
1385821978-08-23 02:00 58° 5' 50" N  12° 2' 48" W  View metadata report for BODC series reference number 138582
1385941978-08-23 02:02 58° 5' 50" N  12° 2' 48" W  View metadata report for BODC series reference number 138594
1386011978-08-23 02:04 58° 5' 50" N  12° 2' 48" W  View metadata report for BODC series reference number 138601
1386131978-08-23 02:06 58° 5' 50" N  12° 2' 48" W  View metadata report for BODC series reference number 138613
1386251978-08-23 02:08 58° 5' 50" N  12° 2' 48" W  View metadata report for BODC series reference number 138625
1386371978-08-23 02:10 58° 5' 50" N  12° 2' 48" W  View metadata report for BODC series reference number 138637
1386491978-08-23 02:12 58° 5' 50" N  12° 2' 48" W  View metadata report for BODC series reference number 138649
1386501978-08-23 02:14 58° 5' 50" N  12° 2' 48" W  View metadata report for BODC series reference number 138650
1386621978-08-23 02:16 58° 5' 50" N  12° 2' 48" W  View metadata report for BODC series reference number 138662
1386741978-08-23 02:18 58° 5' 50" N  12° 2' 48" W  View metadata report for BODC series reference number 138674
1386861978-08-23 02:48 58° 5' 49" N  12° 2' 49" W  View metadata report for BODC series reference number 138686
1386981978-08-23 02:50 58° 5' 49" N  12° 2' 49" W  View metadata report for BODC series reference number 138698
1387051978-08-23 02:52 58° 5' 49" N  12° 2' 49" W  View metadata report for BODC series reference number 138705
1387171978-08-23 02:54 58° 5' 49" N  12° 2' 49" W  View metadata report for BODC series reference number 138717
1387291978-08-23 02:56 58° 5' 49" N  12° 2' 49" W  View metadata report for BODC series reference number 138729
1387301978-08-23 02:58 58° 5' 49" N  12° 2' 49" W  View metadata report for BODC series reference number 138730
1387421978-08-23 03:00 58° 5' 49" N  12° 2' 49" W  View metadata report for BODC series reference number 138742
1387541978-08-23 03:02 58° 5' 49" N  12° 2' 49" W  View metadata report for BODC series reference number 138754
1387661978-08-23 03:04 58° 5' 49" N  12° 2' 49" W  View metadata report for BODC series reference number 138766
1387781978-08-23 03:06 58° 5' 49" N  12° 2' 49" W  View metadata report for BODC series reference number 138778
1387911978-08-23 03:08 58° 5' 49" N  12° 2' 49" W  View metadata report for BODC series reference number 138791
1388091978-08-23 03:10 58° 5' 49" N  12° 2' 49" W  View metadata report for BODC series reference number 138809
1388101978-08-23 03:12 58° 5' 49" N  12° 2' 49" W  View metadata report for BODC series reference number 138810
1388221978-08-23 03:14 58° 5' 49" N  12° 2' 49" W  View metadata report for BODC series reference number 138822
1388341978-08-23 03:16 58° 5' 49" N  12° 2' 49" W  View metadata report for BODC series reference number 138834
1388461978-08-23 03:18 58° 5' 49" N  12° 2' 49" W  View metadata report for BODC series reference number 138846
1381151978-08-22 23:12 58° 5' 57" N  12° 2' 52" W  View metadata report for BODC series reference number 138115
1381271978-08-22 23:14 58° 5' 57" N  12° 2' 52" W  View metadata report for BODC series reference number 138127
1171961978-07-30 15:17 58° 5' 55" N  12° 2' 52" W  View metadata report for BODC series reference number 117196
117203